Date StartTime U_cm/s V_cm/s W_cm/s Ustd_cm/s Vstd_cm/s Wstd_cm/s Uvar_(cm/s)^2 Vvar_(cm/s)^2 Wvar_(cm/s)^2 KE_(m/s)^2 TurbulentKE_(m/s)^2 HorizWindSpeed_cm/s FrictionSpeec_cm/s DragCoef SpeedOfSound_m/s SonicTemperature_C Pressure_mb 
11/27/2013  00:00:00      -89.024      -26.183       -3.254       33.055       22.126       15.314     1092.633      489.546      234.506        0.522        0.091       92.794       12.135        0.017      333.271        2.476      864.133
11/27/2013  00:01:00     -105.125      -19.878      -12.048       27.893       27.789       17.269      778.006      772.220      298.225        0.672        0.092      106.988       13.251        0.015      333.281        2.493      864.112
11/27/2013  00:02:00     -103.724      -10.489      -10.755       25.999       19.526       15.848      675.926      381.251      251.171        0.615        0.065      104.253       12.695        0.015      333.283        2.495      864.087
11/27/2013  00:03:00      -77.541      -18.922      -11.780       19.871       17.610       16.144      394.856      310.116      260.623        0.374        0.048       79.816       11.473        0.021      333.277        2.485      864.059
11/27/2013  00:04:00      -77.982      -12.309       -8.524       23.080       15.670       11.272      532.674      245.556      127.055        0.361        0.045       78.948        9.692        0.015      333.355        2.615      864.047
11/27/2013  00:05:00      -63.471      -26.438       -8.726        9.766       11.525        9.039       95.380      132.827       81.712        0.256        0.015       68.757        4.117        0.004      333.337        2.585      864.045
11/27/2013  00:06:00      -63.132      -13.295       -5.921       14.422        9.075        9.296      208.006       82.347       86.424        0.229        0.019       64.517        6.221        0.009      333.382        2.659      864.046
11/27/2013  00:07:00      -74.815      -11.359       -9.097       13.305       13.782        9.557      177.033      189.951       91.334        0.313        0.023       75.672        5.637        0.006      333.369        2.639      864.055
11/27/2013  00:08:00      -91.351       -7.775      -11.084       19.585       11.055        8.110      383.567      122.202       65.771        0.455        0.029       91.681        3.592        0.002      333.335        2.581      864.059
11/27/2013  00:09:00      -82.561       -4.363      -11.223       16.721       16.003       10.150      279.582      256.109      103.020        0.380        0.032       82.676        9.393        0.013      333.338        2.587      864.062
11/27/2013  00:10:00      -86.097      -15.065      -17.328       15.920       13.206        9.147      253.459      174.391       83.666        0.423        0.026       87.405        7.748        0.008      333.264        2.465      864.055
11/27/2013  00:11:00      -80.116       -6.853      -12.819       17.608       13.172        9.841      310.049      173.511       96.849        0.361        0.029       80.409        6.232        0.006      333.281        2.491      864.056
11/27/2013  00:12:00      -71.574      -14.203      -13.926       12.725        8.276        6.862      161.921       68.497       47.092        0.290        0.014       72.970        4.597        0.004      333.318        2.552      864.055
11/27/2013  00:13:00      -63.622       -9.426      -13.790        8.428        7.514        5.079       71.035       56.459       25.799        0.224        0.008       64.316        3.350        0.003      333.482        2.825      864.056
11/27/2013  00:14:00      -49.850      -12.510      -12.637       14.190        9.051        7.619      201.368       81.913       58.044        0.157        0.017       51.396        7.278        0.020      333.427        2.736      864.058
11/27/2013  00:15:00       -4.792       10.542       -2.715       18.081       16.362        8.868      326.905      267.725       78.633        0.041        0.034       11.580        9.656        0.695      333.847        3.430      864.044
11/27/2013  00:16:00        8.196        6.642        5.461        8.195        6.217        6.161       67.154       38.648       37.961        0.014        0.007       10.550        4.517        0.183      333.840        3.419      864.022
11/27/2013  00:17:00      -51.245       -9.311       -8.164       16.883        8.133        8.334      285.021       66.143       69.453        0.160        0.021       52.084        8.082        0.024      333.437        2.751      864.006
11/27/2013  00:18:00      -73.557      -15.179       -5.792       18.394       13.692       10.759      338.324      187.479      115.758        0.316        0.032       75.107        9.797        0.017      333.278        2.488      864.001
11/27/2013  00:19:00      -92.078       -1.156      -17.809       13.404       11.355       10.824      179.654      128.925      117.149        0.461        0.021       92.085        7.185        0.006      333.135        2.251      864.002
11/27/2013  00:20:00      -87.624      -12.645      -12.384       17.662       15.417       11.199      311.944      237.671      125.420        0.433        0.034       88.532        3.745        0.002      333.059        2.127      863.994
11/27/2013  00:21:00      -62.162       -7.728      -12.375       14.967       14.366        9.449      224.006      206.395       89.276        0.230        0.026       62.641        7.781        0.015      333.111        2.212      863.985
11/27/2013  00:22:00      -41.121       -4.756       -9.828        6.506        6.816        5.361       42.334       46.454       28.742        0.096        0.006       41.395        4.059        0.010      333.364        2.630      863.973
11/27/2013  00:23:00      -23.259       -8.106       -6.146        8.830       13.059        5.814       77.964      170.532       33.804        0.046        0.014       24.631        6.008        0.060      333.451        2.774      863.956
11/27/2013  00:24:00      -17.650       -5.440        4.696        8.773        6.392        4.511       76.970       40.852       20.350        0.025        0.007       18.469        4.572        0.061      333.590        3.006      863.951
11/27/2013  00:25:00        2.533       16.375        5.378       10.038       13.840        5.626      100.770      191.558       31.651        0.031        0.016       16.570        5.751        0.120      333.834        3.409      863.949
11/27/2013  00:26:00      -39.186        6.596       -4.869       30.902        8.276       11.234      954.923       68.487      126.197        0.138        0.057       39.737       16.743        0.178      333.537        2.916      863.941
11/27/2013  00:27:00      -54.427       -7.016      -11.502       14.883       10.446        6.590      221.497      109.114       43.423        0.176        0.019       54.878        5.126        0.009      333.260        2.457      863.931
11/27/2013  00:28:00      -60.216       -7.951      -14.385       10.203        8.284        7.285      104.091       68.630       53.077        0.206        0.011       60.738        3.387        0.003      333.212        2.378      863.923
11/27/2013  00:29:00      -68.579      -11.932      -16.753        8.850       10.483        6.916       78.318      109.901       47.834        0.268        0.012       69.609        5.242        0.006      333.086        2.172      863.914
11/27/2013  00:30:00      -59.040      -13.653      -11.304       11.531       14.509        8.965      132.971      210.500       80.380        0.211        0.021       60.598        7.988        0.017      333.143        2.266      863.901
11/27/2013  00:31:00      -64.995       -2.606      -12.947        9.396        8.628        7.955       88.290       74.445       63.278        0.231        0.011       65.047        5.512        0.007      333.454        2.779      863.885
11/27/2013  00:32:00      -48.398      -28.919       -9.869        7.410        6.580        4.906       54.901       43.299       24.070        0.170        0.006       56.379        2.832        0.003      333.353        2.611      863.861
11/27/2013  00:33:00      -56.916      -34.079       -9.062       11.077       11.063        9.568      122.701      122.399       91.554        0.241        0.017       66.338        4.026        0.004      333.128        2.239      863.843
11/27/2013  00:34:00      -86.089       -3.767      -20.335        9.980        8.150        7.716       99.597       66.420       59.529        0.403        0.011       86.171        5.887        0.005      333.092        2.180      863.821
11/27/2013  00:35:00      -91.682      -12.329      -16.248       21.138       17.637       13.904      446.817      311.048      193.323        0.489        0.048       92.507       12.852        0.019      332.917        1.891      863.799
11/27/2013  00:36:00      -87.916       -3.363      -12.568       17.061       17.957       15.063      291.075      322.465      226.908        0.437        0.042       87.980        9.236        0.011      332.922        1.900      863.792
11/27/2013  00:37:00      -93.206       -6.758      -17.996       19.979       15.485       12.646      399.143      239.793      159.920        0.493        0.040       93.451       10.051        0.012      332.915        1.890      863.786
11/27/2013  00:38:00      -79.522       -9.170      -13.275       11.339       12.981        9.979      128.576      168.503       99.581        0.349        0.020       80.049        4.852        0.004      333.004        2.036      863.786
11/27/2013  00:39:00      -79.503      -11.016      -11.891       14.465       16.293        8.990      209.235      265.459       80.819        0.357        0.028       80.262        4.540        0.003      333.014        2.051      863.787
11/27/2013  00:40:00      -77.371      -11.207      -13.564       17.268       16.487       14.076      298.182      271.833      198.129        0.353        0.038       78.178       11.225        0.021      333.009        2.043      863.794
11/27/2013  00:41:00      -87.777      -18.970      -16.423       12.652       17.291       13.532      160.074      298.967      183.108        0.449        0.032       89.804        4.170        0.002      332.925        1.905      863.801
11/27/2013  00:42:00      -85.118      -24.607      -16.739       23.062       24.361       15.118      531.865      593.442      228.544        0.474        0.068       88.604        5.798        0.004      332.922        1.901      863.809
11/27/2013  00:43:00      -91.100      -25.966      -16.350       23.000       17.924       14.612      529.014      321.268      213.499        0.515        0.053       94.729        8.047        0.007      332.863        1.803      863.807
11/27/2013  00:44:00      -69.809      -15.316       -6.010       24.368       26.167       17.913      593.801      684.700      320.876        0.337        0.080       71.470       15.873        0.049      332.921        1.899      863.806
11/27/2013  00:45:00      -48.260      -16.997       -8.852       20.663       15.335       11.448      426.969      235.165      131.054        0.174        0.040       51.165        5.734        0.013      332.989        2.010      863.799
11/27/2013  00:46:00      -84.688      -15.998      -20.049       26.648       19.011       13.471      710.141      361.420      181.456        0.454        0.063       86.186       10.790        0.016      333.013        2.050      863.793
11/27/2013  00:47:00      -84.881       -5.879      -20.638       11.420       10.171        8.468      130.426      103.439       71.707        0.399        0.015       85.084        5.263        0.004      333.028        2.075      863.776
11/27/2013  00:48:00      -91.600        0.057      -14.562       21.343       19.506       15.937      455.509      380.498      253.987        0.485        0.054       91.600       13.260        0.021      333.045        2.103      863.751
11/27/2013  00:49:00     -110.366      -20.249      -17.216       19.673       22.534       14.265      387.039      507.798      203.479        0.699        0.055      112.208       13.645        0.015      332.981        1.997      863.734
11/27/2013  00:50:00      -92.506      -31.965       -7.871       27.178       27.999       16.283      738.666      783.937      265.129        0.571        0.089       97.873       14.321        0.021      332.898        1.861      863.734
11/27/2013  00:51:00      -98.933      -40.337       -7.282       23.673       24.886       15.515      560.432      619.298      240.708        0.644        0.071      106.840       13.880        0.017      332.875        1.822      863.747
11/27/2013  00:52:00      -80.601      -39.541       -4.958       23.746       30.241       17.676      563.849      914.493      312.432        0.494        0.090       89.778       11.890        0.018      332.915        1.889      863.753
11/27/2013  00:53:00     -118.107      -25.947      -12.488       16.687       16.444       13.216      278.448      270.407      174.674        0.775        0.036      120.924        8.437        0.005      332.886        1.841      863.749
11/27/2013  00:54:00     -106.416      -15.014       -0.138       35.198       21.706       19.740     1238.919      471.155      389.662        0.682        0.105      107.470       21.345        0.039      332.863        1.802      863.740
11/27/2013  00:55:00      -92.908      -28.047       -4.199       29.845       19.775       15.159      890.749      391.057      229.792        0.547        0.076       97.049       13.849        0.020      332.836        1.759      863.730
11/27/2013  00:56:00     -115.825      -29.230      -19.120       11.271       12.407        8.675      127.045      153.938       75.254        0.750        0.018      119.457        2.681        0.001      332.888        1.844      863.724
11/27/2013  00:57:00     -117.735      -26.766      -19.133       15.092       15.564        9.768      227.754      242.246       95.417        0.775        0.028      120.739        7.142        0.003      332.891        1.849      863.719
11/27/2013  00:58:00      -89.067      -26.520       -6.237       23.737       14.892       13.187      563.429      221.761      173.884        0.482        0.048       92.932       10.181        0.012      332.892        1.851      863.716
11/27/2013  00:59:00      -81.517      -31.855      -12.214       19.093       14.965       11.052      364.550      223.966      122.150        0.426        0.036       87.520        7.182        0.007      332.925        1.904      863.716
11/27/2013  01:00:00     -105.366      -29.041      -16.821       14.629       13.359       10.635      214.007      178.455      113.100        0.637        0.025      109.295        7.487        0.005      332.917        1.891      863.712
11/27/2013  01:01:00      -90.178      -33.433       -8.599       28.210       18.848       14.184      795.793      355.256      201.174        0.534        0.068       96.175       11.247        0.014      332.925        1.905      863.702
11/27/2013  01:02:00     -106.865      -25.808       -9.451       32.685       22.841       15.832     1068.281      521.694      250.643        0.701        0.092      109.937       13.018        0.014      332.905        1.872      863.701
11/27/2013  01:03:00     -113.754      -20.597      -13.316       27.974       26.065       14.821      782.537      679.395      219.667        0.761        0.084      115.603       11.081        0.009      332.852        1.785      863.695
11/27/2013  01:04:00     -114.642       -1.979       -4.052       47.752       33.023       29.791     2280.213     1090.542      887.486        0.871        0.213      114.659       30.365        0.070      332.770        1.649      863.690
11/27/2013  01:05:00      -41.389        4.752       10.306       61.870       29.902       23.388     3827.894      894.102      546.986        0.355        0.263       41.661       28.478        0.467      332.736        1.594      863.675
11/27/2013  01:06:00      -11.610       -4.782       -1.389       34.263       23.123       17.567     1173.981      534.655      308.613        0.109        0.101       12.556       16.597        1.747      332.771        1.651      863.660
11/27/2013  01:07:00      -69.887      -24.064        3.616       34.195       39.863       23.360     1169.278     1589.098      545.705        0.439        0.165       73.913       21.252        0.083      332.804        1.706      863.657
11/27/2013  01:08:00      -97.056      -29.860       -3.117       36.080       36.204       21.791     1301.771     1310.699      474.831        0.670        0.154      101.545       16.506        0.026      332.806        1.708      863.668
11/27/2013  01:09:00      -63.919      -26.674        2.711       40.375       24.159       20.742     1630.163      583.636      430.212        0.372        0.132       69.261       18.650        0.073      332.822        1.734      863.683
11/27/2013  01:10:00     -107.353      -19.397        0.179       54.246       42.614       23.439     2942.643     1815.919      549.364        0.860        0.265      109.092       19.360        0.031      332.828        1.745      863.685
11/27/2013  01:11:00      -96.621      -15.395        0.557       46.197       34.986       21.091     2134.164     1223.986      444.840        0.669        0.190       97.840       18.264        0.035      332.806        1.709      863.686
11/27/2013  01:12:00     -118.422        3.359       -1.043       48.408       33.575       23.935     2343.302     1127.312      572.882        0.904        0.202      118.470       24.291        0.042      332.809        1.714      863.685
11/27/2013  01:13:00      -96.619      -24.583       -3.466       62.443       23.961       17.209     3899.186      574.150      296.164        0.736        0.238       99.698       25.614        0.066      332.838        1.762      863.675
11/27/2013  01:14:00     -104.818      -11.333       -4.428       49.486       40.326       22.847     2448.819     1626.214      521.979        0.787        0.230      105.429       25.601        0.059      332.815        1.725      863.665
11/27/2013  01:15:00     -119.755      -13.606      -11.011       44.493       36.397       20.604     1979.640     1324.728      424.510        0.919        0.186      120.525       17.531        0.021      332.760        1.632      863.653
11/27/2013  01:16:00     -104.587      -19.732       -8.762       46.734       28.299       19.526     2184.067      800.846      381.281        0.738        0.168      106.432       21.701        0.042      332.756        1.626      863.657
11/27/2013  01:17:00      -63.382      -37.439       -2.946       32.256       23.911       17.337     1040.434      571.736      300.570        0.367        0.096       73.614       17.779        0.058      332.822        1.736      863.664
11/27/2013  01:18:00      -70.657      -33.806       -9.083       27.591       27.114       18.536      761.288      735.191      343.576        0.403        0.092       78.328        8.413        0.012      332.799        1.697      863.673
11/27/2013  01:19:00      -77.403      -53.435      -14.910       22.188       21.987       15.843      492.329      483.423      251.006        0.515        0.061       94.056       13.739        0.021      332.786        1.676      863.670
11/27/2013  01:20:00      -79.988      -31.891      -11.463       23.748       22.378       20.044      563.970      500.792      401.744        0.451        0.073       86.111       14.855        0.030      332.797        1.694      863.659
11/27/2013  01:21:00      -75.022      -41.115       -5.299       28.178       20.932       20.315      794.022      438.168      412.696        0.450        0.082       85.549       13.366        0.024      332.807        1.710      863.652
11/27/2013  01:22:00      -91.412      -36.413      -10.141       17.527       21.965       16.031      307.202      482.446      256.985        0.542        0.052       98.397       11.830        0.014      332.822        1.736      863.663
11/27/2013  01:23:00      -95.150      -16.118      -18.878       24.291       17.521       10.247      590.034      306.968      105.007        0.534        0.050       96.506        6.915        0.005      332.854        1.787      863.669
11/27/2013  01:24:00      -73.678      -19.998      -10.682       19.154       15.716       12.094      366.887      246.991      146.255        0.335        0.038       76.344        5.992        0.006      332.902        1.867      863.671
11/27/2013  01:25:00      -69.458      -26.372      -14.272       21.144       19.346       14.987      447.070      374.259      224.599        0.338        0.052       74.296       10.271        0.019      332.868        1.810      863.664
11/27/2013  01:26:00      -83.197      -14.119      -10.250       21.277       13.554       12.883      452.714      183.701      165.966        0.401        0.040       84.386       11.773        0.019      332.850        1.784      863.662
11/27/2013  01:27:00      -96.606      -30.534      -12.499       14.070       22.040       12.197      197.962      485.756      148.765        0.563        0.042      101.317        6.934        0.005      332.799        1.698      863.661
11/27/2013  01:28:00      -96.065       -9.180      -13.219       30.251       19.855       15.583      915.111      394.234      242.824        0.552        0.078       96.503       14.708        0.023      332.791        1.684      863.657
11/27/2013  01:29:00     -107.529      -16.879      -17.601       16.021       15.529       10.141      256.669      241.165      102.839        0.638        0.030      108.846        7.521        0.005      332.811        1.716      863.657
11/27/2013  01:30:00      -84.647      -14.156       -5.536       17.393       19.197       12.482      302.527      368.530      155.796        0.411        0.041       85.822       10.106        0.014      332.881        1.833      863.660
11/27/2013  01:31:00      -92.567      -16.842      -19.015       10.428       22.253        9.012      108.734      495.213       81.212        0.495        0.034       94.087        6.353        0.005      332.873        1.820      863.662
11/27/2013  01:32:00      -98.654      -29.498       -9.182       17.768       16.784       16.365      315.710      281.712      267.813        0.578        0.043      102.970       12.128        0.014      332.851        1.783      863.659
11/27/2013  01:33:00     -111.816      -39.134      -10.853       15.833       17.883       16.895      250.676      319.806      285.432        0.750        0.043      118.466        7.923        0.004      332.800        1.699      863.668
11/27/2013  01:34:00     -129.924      -47.395      -14.199       21.099       21.548       14.227      445.187      464.318      202.395        1.022        0.056      138.298       12.424        0.008      332.776        1.660      863.678
11/27/2013  01:35:00      -97.260      -47.592       -9.997       18.752       20.985       14.495      351.626      440.381      210.096        0.641        0.050      108.279        9.443        0.008      332.786        1.676      863.675
11/27/2013  01:36:00      -85.960      -25.212      -15.418       23.130       20.926       12.609      535.013      437.887      158.997        0.470        0.057       89.582        8.938        0.010      332.840        1.766      863.667
11/27/2013  01:37:00      -89.350      -39.012      -14.256       18.907       15.914       10.886      357.481      253.256      118.506        0.522        0.036       97.495        6.570        0.005      332.773        1.655      863.664
11/27/2013  01:38:00     -118.562      -27.461      -20.009       14.205       15.586       12.874      201.771      242.937      165.733        0.791        0.031      121.700        7.048        0.003      332.768        1.647      863.651
11/27/2013  01:39:00     -109.753      -42.552      -16.479       21.032       21.477       14.627      442.330      461.246      213.963        0.762        0.056      117.713        8.473        0.005      332.755        1.624      863.639
11/27/2013  01:40:00     -109.280      -29.038      -12.721       38.349       28.685       20.459     1470.625      822.817      418.568        0.783        0.136      113.072       21.493        0.036      332.695        1.525      863.624
11/27/2013  01:41:00      -92.875      -18.970       -8.909       35.201       37.570       19.942     1239.128     1411.527      397.684        0.606        0.152       94.792       14.874        0.025      332.689        1.515      863.602
11/27/2013  01:42:00      -59.472      -15.000        8.415       36.717       35.025       27.902     1348.159     1226.723      778.507        0.359        0.168       61.335       27.344        0.199      332.705        1.542      863.588
11/27/2013  01:43:00      -78.054      -22.215      -11.690       21.709       16.215       12.592      471.300      262.928      158.555        0.381        0.045       81.154        9.325        0.013      332.794        1.689      863.581
11/27/2013  01:44:00      -70.512      -30.805       -9.796       24.152       30.801       24.068      583.300      948.686      579.291        0.406        0.106       76.948        8.580        0.012      332.782        1.669      863.578
11/27/2013  01:45:00      -82.476      -49.685       -5.603       33.550       32.714       28.565     1125.584     1070.212      815.940        0.616        0.151       96.286       14.860        0.024      332.709        1.550      863.590
11/27/2013  01:46:00      -68.748        2.512       -4.334       76.356       21.759       24.236     5830.168      473.444      587.404        0.582        0.345       68.794       27.061        0.155      332.707        1.544      863.604
11/27/2013  01:47:00      -93.280      -10.271       -6.828       21.034       27.063       15.971      442.445      732.390      255.083        0.514        0.071       93.843        7.276        0.006      332.733        1.589      863.616
11/27/2013  01:48:00      -79.585      -17.615       -4.125       30.513       22.050       16.057      931.067      486.182      257.816        0.417        0.084       81.511       13.308        0.027      332.792        1.684      863.623
11/27/2013  01:49:00      -59.340      -50.849       -0.948       19.187       17.488       16.537      368.157      305.831      273.489        0.353        0.047       78.146       11.459        0.022      332.792        1.685      863.609
11/27/2013  01:50:00      -88.057      -21.970       -9.684       17.003       20.779       13.957      289.096      431.775      194.802        0.462        0.046       90.757       11.432        0.016      332.824        1.738      863.577
11/27/2013  01:51:00      -95.114      -31.364      -11.460       23.889       18.847       15.573      570.668      355.208      242.503        0.566        0.058      100.152       11.926        0.014      332.839        1.764      863.550
11/27/2013  01:52:00     -110.198      -18.606      -13.827       17.074       18.177       11.654      291.510      330.404      135.808        0.672        0.038      111.758        9.130        0.007      332.771        1.652      863.528
11/27/2013  01:53:00     -114.840      -22.288      -17.396       20.304       16.541       12.470      412.245      273.607      155.498        0.741        0.042      116.983        8.262        0.005      332.787        1.679      863.511
11/27/2013  01:54:00     -111.996      -53.803      -16.475       24.948       17.420       16.309      622.393      303.448      265.991        0.845        0.060      124.249       13.394        0.012      332.761        1.634      863.492
11/27/2013  01:55:00      -98.316      -45.063      -13.921       28.441       31.565       20.552      808.901      996.349      422.390        0.706        0.111      108.151       18.047        0.028      332.732        1.587      863.483
11/27/2013  01:56:00     -103.963       -9.739      -10.780       23.824       22.607       14.358      567.578      511.088      206.141        0.615        0.064      104.419       12.054        0.013      332.729        1.580      863.474
11/27/2013  01:57:00     -107.114      -10.713      -16.802       21.383       14.797       13.543      457.227      218.954      183.426        0.636        0.043      107.649        9.120        0.007      332.677        1.494      863.468
11/27/2013  01:58:00      -75.571      -19.270       -7.612       23.041       18.228       17.701      530.882      332.244      313.316        0.366        0.059       77.989       10.858        0.019      332.732        1.586      863.474
11/27/2013  01:59:00      -90.431      -17.676      -19.028       16.737       20.667       14.944      280.121      427.121      223.327        0.489        0.047       92.143       11.971        0.017      332.718        1.563      863.479
11/27/2013  02:00:00     -100.830      -39.987      -23.714       24.598       19.462       15.633      605.081      378.764      244.382        0.678        0.061      108.469        7.813        0.005      332.732        1.587      863.490
11/27/2013  02:01:00     -112.345      -38.192      -10.846       30.984       35.435       19.007      960.012     1255.673      361.278        0.839        0.129      118.659       15.453        0.017      332.711        1.551      863.492
11/27/2013  02:02:00     -100.471      -17.311      -16.721       29.346       27.250       16.102      861.196      742.587      259.274        0.627        0.093      101.951       11.336        0.012      332.664        1.473      863.494
11/27/2013  02:03:00      -92.077      -23.689      -18.624       22.390       18.404       16.931      501.318      338.718      286.647        0.526        0.056       95.076       11.348        0.014      332.695        1.525      863.491
11/27/2013  02:04:00      -83.350      -22.291       -9.906       20.495       22.698       16.424      420.058      515.217      269.739        0.437        0.060       86.279       13.308        0.024      332.779        1.664      863.494
11/27/2013  02:05:00      -70.911      -17.860       -8.156       34.046       18.970       19.788     1159.109      359.864      391.580        0.366        0.096       73.125       14.734        0.041      332.785        1.675      863.501
11/27/2013  02:06:00      -66.100      -28.465      -14.260       19.802       14.607       15.241      392.136      213.374      232.273        0.311        0.042       71.969        7.782        0.012      332.823        1.735      863.505
11/27/2013  02:07:00      -95.013      -20.378      -13.060       13.431       13.754       10.278      180.380      189.186      105.643        0.504        0.024       97.174        5.643        0.003      332.729        1.581      863.503
11/27/2013  02:08:00     -116.644      -20.416      -23.447       14.199       19.622       13.164      201.598      385.013      173.294        0.767        0.038      118.417        7.193        0.004      332.716        1.560      863.503
11/27/2013  02:09:00      -89.661      -44.499      -21.110       24.167       18.310       12.265      584.052      335.258      150.436        0.577        0.053      100.096        8.584        0.007      332.745        1.610      863.521
11/27/2013  02:10:00      -66.008      -50.937       -7.219       27.235       26.332       19.089      741.735      693.374      364.385        0.440        0.090       83.376       10.923        0.017      332.764        1.639      863.530
11/27/2013  02:11:00      -79.491      -35.754      -15.805       32.909       25.706       21.660     1082.971      660.796      469.164        0.503        0.111       87.162       17.282        0.039      332.691        1.520      863.529
11/27/2013  02:12:00      -76.854      -46.819       -8.727       19.192       23.219       12.293      368.321      539.141      151.129        0.462        0.053       89.992        3.241        0.001      332.700        1.534      863.526
11/27/2013  02:13:00      -74.357      -20.212      -11.746       20.881       22.406       15.033      436.018      502.045      226.000        0.362        0.058       77.056       13.646        0.031      332.633        1.421      863.513
11/27/2013  02:14:00      -75.409      -36.836      -13.426       15.606       25.996       11.419      243.549      675.795      130.396        0.414        0.052       83.925       10.275        0.015      332.694        1.524      863.496
11/27/2013  02:15:00      -94.774      -41.207      -14.563       22.810       21.485       15.744      520.296      461.606      247.885        0.606        0.061      103.344       11.661        0.013      332.677        1.494      863.495
11/27/2013  02:16:00      -74.331      -37.881       -6.481       19.729       18.273       20.374      389.241      333.891      415.098        0.407        0.057       83.427        6.876        0.007      332.629        1.416      863.501
11/27/2013  02:17:00      -90.833      -44.354      -17.211       22.307       21.177       12.780      497.600      448.448      163.322        0.581        0.055      101.084       11.502        0.013      332.586        1.345      863.505
11/27/2013  02:18:00      -93.604      -42.597      -18.752       17.412       20.478       10.777      303.175      419.364      116.152        0.588        0.042      102.840        7.607        0.005      332.578        1.333      863.507
11/27/2013  02:19:00      -81.656      -45.444       -7.630       17.210       21.250       13.687      296.172      451.572      187.337        0.486        0.047       93.449       10.452        0.013      332.656        1.460      863.495
11/27/2013  02:20:00      -88.521      -41.607      -14.800       23.996       23.807       17.676      575.802      566.797      312.451        0.562        0.073       97.811        9.354        0.009      332.643        1.439      863.486
11/27/2013  02:21:00      -81.506      -45.266      -10.070       19.842       17.714       16.659      393.717      313.787      277.536        0.489        0.049       93.232        9.808        0.011      332.603        1.371      863.475
11/27/2013  02:22:00      -78.793      -59.748       -9.082       20.772       22.243       15.334      431.480      494.755      235.139        0.551        0.058       98.884        9.933        0.010      332.640        1.433      863.472
11/27/2013  02:23:00      -81.528      -60.835      -11.271       18.211       19.304       16.732      331.641      372.647      279.944        0.573        0.049      101.724        9.599        0.009      332.591        1.353      863.481
11/27/2013  02:24:00      -79.976      -40.689       -7.159       17.455       15.997        9.707      304.672      255.898       94.221        0.438        0.033       89.732        6.228        0.005      332.611        1.386      863.471
11/27/2013  02:25:00      -71.250      -15.504       -6.550       17.338       17.945       13.913      300.601      322.038      193.558        0.309        0.041       72.917       10.635        0.021      332.592        1.353      863.444
11/27/2013  02:26:00      -59.217       -4.881       -7.111       21.429       15.960        8.504      459.193      254.715       72.325        0.218        0.039       59.418        8.195        0.019      332.594        1.359      863.405
11/27/2013  02:27:00      -29.146        9.922       -4.149       12.316        7.656        6.849      151.694       58.609       46.912        0.061        0.013       30.789        6.893        0.050      332.713        1.556      863.377
11/27/2013  02:28:00      -16.415        6.787        3.066       16.335        9.224        6.196      266.846       85.091       38.391        0.036        0.020       17.763        9.094        0.262      332.900        1.865      863.361
11/27/2013  02:29:00       19.834       -2.251        2.048        8.869        7.892        7.294       78.667       62.285       53.196        0.030        0.010       19.961        5.069        0.064      332.905        1.872      863.372
11/27/2013  02:30:00       18.187        0.519        5.811       11.085        6.806        7.629      122.886       46.326       58.201        0.030        0.011       18.195        7.417        0.166      332.813        1.720      863.393
11/27/2013  02:31:00        4.445        2.537       12.538        8.007        6.314        7.462       64.109       39.864       55.688        0.017        0.008        5.118        3.940        0.593      332.751        1.618      863.421
11/27/2013  02:32:00        5.294       -7.779       13.204        6.952       12.165        9.878       48.329      147.992       97.566        0.028        0.015        9.410        8.434        0.803      332.798        1.696      863.437
11/27/2013  02:33:00      -31.606      -17.463       -6.620       29.143       13.409        8.735      849.295      179.796       76.301        0.123        0.055       36.109        7.390        0.042      332.708        1.548      863.441
11/27/2013  02:34:00      -79.513       -3.520      -11.940       10.208        7.549        7.394      104.207       56.988       54.665        0.335        0.011       79.591        2.054        0.001      332.566        1.312      863.428
11/27/2013  02:35:00      -75.150       -1.221       -7.518       18.267       10.409       10.251      333.699      108.338      105.082        0.313        0.027       75.160        8.682        0.013      332.558        1.298      863.421
11/27/2013  02:36:00      -64.396       -9.549       -4.736       22.701       10.907       11.338      515.337      118.955      128.545        0.251        0.038       65.100       13.004        0.040      332.574        1.325      863.423
11/27/2013  02:37:00      -45.417      -18.060        0.216       14.903       13.628       10.558      222.104      185.734      111.461        0.145        0.026       48.876        9.099        0.035      332.540        1.269      863.431
11/27/2013  02:38:00      -60.719      -26.576       -2.266       14.325       12.080        7.235      205.191      145.938       52.342        0.240        0.020       66.280        2.771        0.002      332.580        1.335      863.454
11/27/2013  02:39:00      -64.115      -21.280       -9.337        9.332        9.900        6.130       87.094       98.002       37.571        0.244        0.011       67.554        5.229        0.006      332.608        1.381      863.463
11/27/2013  02:40:00      -66.982      -18.915       -3.718       15.112       10.122        8.477      228.363      102.445       71.867        0.263        0.020       69.601        7.047        0.010      332.650        1.451      863.456
11/27/2013  02:41:00      -65.573      -21.792      -10.428        8.022        8.328        5.844       64.358       69.355       34.147        0.253        0.008       69.100        1.972        0.001      332.674        1.489      863.439
11/27/2013  02:42:00      -54.978      -14.792       -5.930       11.093        8.405        7.195      123.052       70.636       51.774        0.176        0.012       56.933        6.291        0.012      332.675        1.492      863.412
11/27/2013  02:43:00      -49.002        0.294       -8.404        7.534        6.675        5.175       56.755       44.552       26.780        0.130        0.006       49.002        4.774        0.009      332.671        1.484      863.391
11/27/2013  02:44:00      -59.964        4.920       -9.603        5.401        5.309        5.034       29.169       28.190       25.338        0.190        0.004       60.165        3.225        0.003      332.761        1.636      863.386
11/27/2013  02:45:00      -46.772       -9.636       -7.772        9.103       10.792        5.906       82.861      116.464       34.876        0.129        0.012       47.754        2.253        0.002      332.805        1.708      863.393
11/27/2013  02:46:00       -4.074      -23.059       -1.175       24.962       12.682        9.268      623.089      160.826       85.890        0.071        0.043       23.416        9.411        0.162      332.811        1.717      863.408
11/27/2013  02:47:00       -1.727      -23.409       -2.128        5.533       12.219        6.435       30.610      149.309       41.410        0.039        0.011       23.473        4.533        0.037      332.836        1.758      863.422
11/27/2013  02:48:00       -5.093      -16.164        9.740        7.051       16.100       11.465       49.712      259.201      131.448        0.041        0.022       16.948        9.870        0.339      332.831        1.749      863.443
11/27/2013  02:49:00        6.300       12.543       20.530       12.891       11.084        7.978      166.172      122.847       63.650        0.049        0.018       14.036        8.887        0.401      332.708        1.546      863.440
11/27/2013  02:50:00       36.669       24.062       14.776       10.007        9.610       11.249      100.143       92.360      126.548        0.123        0.016       43.858        9.736        0.049      332.790        1.682      863.416
11/27/2013  02:51:00       35.165       20.241        4.591        9.030        8.132        7.012       81.534       66.125       49.170        0.093        0.010       40.574        3.652        0.008      332.831        1.750      863.382
11/27/2013  02:52:00       23.211       18.824        1.130        5.679        5.757        5.151       32.254       33.147       26.532        0.049        0.005       29.884        3.772        0.016      332.848        1.779      863.341
11/27/2013  02:53:00       23.189       14.644        1.912       12.836        9.396       10.233      164.774       88.288      104.713        0.056        0.018       27.426        8.104        0.087      332.867        1.810      863.314
11/27/2013  02:54:00       23.661       25.021       -2.301       11.134       11.887       10.590      123.962      141.294      112.149        0.078        0.019       34.437        9.453        0.075      332.924        1.902      863.299
11/27/2013  02:55:00       14.314       27.138       -2.752        6.876        9.093        8.399       47.279       82.685       70.550        0.057        0.010       30.681        6.386        0.043      332.919        1.896      863.297
11/27/2013  02:56:00        7.550       25.094       -1.088        7.101        7.290        3.990       50.424       53.139       15.917        0.040        0.006       26.205        2.984        0.013      332.923        1.901      863.313
11/27/2013  02:57:00      -13.347        6.686       -0.458        9.883        5.733        3.057       97.673       32.871        9.345        0.018        0.007       14.928        4.135        0.077      332.910        1.881      863.332
11/27/2013  02:58:00      -50.429       -9.598       -5.252       15.283        9.784        7.536      233.560       95.733       56.788        0.152        0.019       51.334        4.877        0.009      332.664        1.476      863.341
11/27/2013  02:59:00      -88.505       -1.340       -8.934       37.892       12.428       12.525     1435.830      154.454      156.867        0.483        0.087       88.515       18.142        0.042      332.472        1.156      863.324
11/27/2013  03:00:00     -115.910       -7.571      -16.548       11.939       11.484       10.388      142.540      131.885      107.913        0.707        0.019      116.157        5.642        0.002      332.390        1.021      863.289
11/27/2013  03:01:00      -93.967        2.433      -12.213       13.162       13.357       11.011      173.228      178.401      121.244        0.473        0.024       93.999        5.799        0.004      332.408        1.051      863.256
11/27/2013  03:02:00      -62.187       -5.048       -6.861       22.709       16.197       14.430      515.678      262.333      208.212        0.246        0.049       62.391       12.068        0.037      332.408        1.051      863.231
11/27/2013  03:03:00      -50.918      -13.802      -10.367       12.891       12.009        9.226      166.177      144.214       85.115        0.164        0.020       52.755        7.821        0.022      332.407        1.049      863.226
11/27/2013  03:04:00      -72.931      -33.269       -6.089       22.470       18.263        9.191      504.908      333.535       84.471        0.369        0.046       80.161        8.108        0.010      332.426        1.079      863.233
11/27/2013  03:05:00      -63.328      -39.634       -9.866       16.421       19.701       11.029      269.657      388.118      121.641        0.323        0.039       74.708        5.765        0.006      332.422        1.075      863.250
11/27/2013  03:06:00      -41.390      -34.938        2.308       21.324       14.737       12.296      454.728      217.167      151.195        0.188        0.041       54.164        8.246        0.023      332.495        1.194      863.262
11/27/2013  03:07:00      -55.785      -32.709       -4.607       17.219        8.936        9.050      296.493       79.858       81.904        0.233        0.023       64.668        9.882        0.023      332.555        1.295      863.282
11/27/2013  03:08:00      -53.735      -33.912       -3.690       18.491       13.649       13.860      341.918      186.282      192.101        0.239        0.036       63.541       11.779        0.034      332.685        1.507      863.290
11/27/2013  03:09:00      -61.936      -33.286       -3.269       18.439       10.598       11.793      340.009      112.327      139.079        0.277        0.030       70.314        8.982        0.016      332.635        1.426      863.280
11/27/2013  03:10:00      -58.749       -8.372       -1.931       14.680       14.841        8.544      215.504      220.268       72.992        0.202        0.025       59.343        6.415        0.012      332.600        1.368      863.247
11/27/2013  03:11:00      -82.564       -5.245       -5.408       17.707        8.439        9.234      313.541       71.216       85.265        0.367        0.024       82.730        7.613        0.008      332.628        1.413      863.206
11/27/2013  03:12:00      -97.308      -15.023       -8.725       12.190       11.362        7.352      148.602      129.089       54.057        0.505        0.017       98.460        6.558        0.004      332.712        1.554      863.185
11/27/2013  03:13:00      -86.759      -12.807       -8.342       18.730       13.158        9.672      350.818      173.121       93.550        0.419        0.031       87.699        7.851        0.008      332.690        1.518      863.176
11/27/2013  03:14:00      -61.210      -20.782       -2.344       14.284       13.714        8.527      204.028      188.082       72.706        0.232        0.023       64.642        5.909        0.008      332.740        1.601      863.178
11/27/2013  03:15:00      -73.109      -23.020       -2.503       16.930       10.799       11.739      286.636      116.618      137.805        0.321        0.027       76.647       11.313        0.022      332.842        1.768      863.176
11/27/2013  03:16:00      -83.660      -13.880       -6.674        7.297        8.676        5.967       53.250       75.268       35.605        0.370        0.008       84.804        4.140        0.002      332.828        1.746      863.170
11/27/2013  03:17:00      -78.659      -10.415       -7.092       11.790       10.165        8.912      139.002      103.325       79.420        0.333        0.016       79.346        7.646        0.009      332.772        1.652      863.159
11/27/2013  03:18:00      -79.225      -18.300       -3.209       13.008       12.780       13.269      169.215      163.336      176.055        0.357        0.025       81.311        8.603        0.011      332.691        1.519      863.156
11/27/2013  03:19:00      -72.990      -22.715       -3.825       16.240       13.458       11.107      263.751      181.129      123.357        0.321        0.028       76.443        9.748        0.016      332.739        1.597      863.158
11/27/2013  03:20:00      -76.509      -29.141       -2.987       11.891       10.078        6.706      141.406      101.573       44.970        0.350        0.014       81.871        3.874        0.002      332.787        1.677      863.166
11/27/2013  03:21:00      -71.375      -23.442       -1.960       18.283       14.524       10.645      334.266      210.937      113.324        0.315        0.033       75.126       10.985        0.021      332.780        1.665      863.158
11/27/2013  03:22:00     -104.608        0.424      -12.452       10.832        7.561        7.831      117.325       57.175       61.329        0.567        0.012      104.609        5.229        0.002      332.729        1.580      863.131
11/27/2013  03:23:00      -95.565        3.522      -15.830       20.500       10.296        9.093      420.248      105.999       82.685        0.500        0.030       95.630        6.188        0.004      332.757        1.628      863.101
11/27/2013  03:24:00      -66.628        5.994       -8.667       15.863       13.664       10.170      251.629      186.708      103.435        0.255        0.027       66.897        6.274        0.009      332.789        1.680      863.078
11/27/2013  03:25:00      -45.018       -2.401       -4.390       14.696       14.205        9.164      215.972      201.781       83.985        0.128        0.025       45.082        6.671        0.022      332.795        1.691      863.057
11/27/2013  03:26:00      -71.465      -23.795      -10.910       20.306       14.118        9.380      412.317      199.307       87.981        0.325        0.035       75.322        7.119        0.009      332.709        1.547      863.056
11/27/2013  03:27:00      -44.712      -26.596        0.252       30.814       23.768       13.497      949.513      564.914      182.169        0.220        0.085       52.024       17.151        0.109      332.611        1.384      863.074
11/27/2013  03:28:00      -95.449      -21.655       -7.744       38.736       27.274       19.485     1500.494      743.893      379.664        0.613        0.131       97.874       19.470        0.040      332.595        1.360      863.087
11/27/2013  03:29:00      -66.652      -30.255       -6.868       33.446       20.997       17.947     1118.633      440.871      322.109        0.364        0.094       73.197       16.096        0.048      332.632        1.421      863.097
11/27/2013  03:30:00      -78.570      -32.135      -11.896       11.808       13.210        9.870      139.429      174.502       97.422        0.388        0.021       84.887        6.966        0.007      332.549        1.281      863.103
11/27/2013  03:31:00      -88.049      -11.464      -14.521       12.617       13.358       12.101      159.177      178.447      146.424        0.429        0.024       88.792        8.542        0.009      332.592        1.357      863.108
11/27/2013  03:32:00      -84.976      -19.504       -7.864       17.924       14.682       15.150      321.286      215.551      229.518        0.421        0.038       87.186       12.940        0.022      332.576        1.328      863.120
11/27/2013  03:33:00      -99.607      -19.161       -8.973       15.657       13.887       10.959      245.151      192.860      120.094        0.546        0.028      101.434        8.914        0.008      332.574        1.325      863.114
11/27/2013  03:34:00      -90.561      -10.716      -11.130       14.371        8.603        9.967      206.539       74.011       99.335        0.441        0.019       91.192        7.716        0.007      332.530        1.252      863.109
11/27/2013  03:35:00      -85.071        4.698       -9.378       13.350        8.790        6.604      178.223       77.271       43.616        0.382        0.015       85.201        4.829        0.003      332.545        1.277      863.096
11/27/2013  03:36:00      -33.828      -13.375       -2.993       20.965       14.225       11.930      439.545      202.341      142.321        0.106        0.039       36.376       11.025        0.092      332.592        1.355      863.088
11/27/2013  03:37:00      -56.074      -14.880       -2.730       21.543       11.005        9.020      464.082      121.107       81.367        0.202        0.033       58.015        8.513        0.022      332.634        1.423      863.085
11/27/2013  03:38:00      -88.087      -34.331      -11.672       22.380       23.650       15.801      500.868      559.301      249.668        0.519        0.065       94.541       12.268        0.017      332.616        1.393      863.091
11/27/2013  03:39:00     -115.925      -31.709      -13.200       19.041       19.600       17.085      362.551      384.162      291.911        0.783        0.052      120.184       10.105        0.007      332.568        1.317      863.092
11/27/2013  03:40:00     -105.836      -37.455      -15.776       19.449       24.246       13.198      378.248      587.876      174.191        0.700        0.057      112.268        6.935        0.004      332.538        1.265      863.086
11/27/2013  03:41:00     -101.911      -16.873      -11.557       28.160       19.724       15.993      792.974      389.035      255.767        0.612        0.072      103.298       15.532        0.023      332.501        1.204      863.074
11/27/2013  03:42:00      -83.149      -27.942       -2.475       24.897       31.575       13.644      619.850      996.950      186.149        0.475        0.090       87.718       13.599        0.024      332.489        1.184      863.075
11/27/2013  03:43:00      -96.309      -25.933       -8.828       14.747       17.397       10.619      217.485      302.658      112.753        0.533        0.032       99.739        8.236        0.007      332.519        1.234      863.072
11/27/2013  03:44:00      -85.597       -7.138       -8.662       23.783       12.290       12.549      565.628      151.044      157.482        0.416        0.044       85.894       14.089        0.027      332.535        1.260      863.050
11/27/2013  03:45:00      -64.123       -4.012      -11.346       17.734        9.657        8.057      314.512       93.266       64.912        0.236        0.024       64.248        7.310        0.013      332.573        1.324      863.022
11/27/2013  03:46:00      -15.309       -0.478       -0.655        6.890        7.509        4.996       47.469       56.380       24.960        0.018        0.006       15.316        3.374        0.049      332.694        1.523      862.993
11/27/2013  03:47:00       14.767        3.402        5.147       19.519        9.714       10.020      380.984       94.371      100.392        0.042        0.029       15.154        6.906        0.208      332.869        1.813      862.985
11/27/2013  03:48:00       33.302       10.016        3.788        8.124       13.245        6.330       65.996      175.421       40.063        0.075        0.014       34.775        2.524        0.005      332.825        1.741      862.989
11/27/2013  03:49:00       24.015       20.698        0.729        7.474        8.800        5.346       55.861       77.445       28.578        0.058        0.008       31.703        3.511        0.012      332.823        1.736      862.984
11/27/2013  03:50:00       23.326       17.071        3.416       14.088        7.859        7.308      198.468       61.769       53.412        0.058        0.016       28.906        5.979        0.043      332.709        1.548      862.982
11/27/2013  03:51:00       54.605       26.390        7.987       13.219        8.620       10.426      174.745       74.310      108.693        0.205        0.018       60.648        6.138        0.010      332.682        1.504      862.985
11/27/2013  03:52:00       66.984       46.146       13.541       15.913       14.267       19.755      253.225      203.547      390.265        0.382        0.042       81.340       11.489        0.020      332.563        1.305      862.995
11/27/2013  03:53:00       73.562       37.029       11.931       24.505       20.981       24.153      600.501      440.209      583.367        0.427        0.081       82.356       17.577        0.046      332.447        1.116      863.005
11/27/2013  03:54:00       40.127       47.960       39.668       20.021       17.583       23.640      400.835      309.160      558.851        0.338        0.063       62.532       11.964        0.037      332.498        1.198      863.020
11/27/2013  03:55:00       18.805       43.964       49.582       20.504       20.729       15.262      420.414      429.680      232.932        0.291        0.054       47.817       16.001        0.112      332.492        1.189      863.025
11/27/2013  03:56:00       22.805        6.007       23.414       27.172       20.463       13.462      738.327      418.746      181.212        0.122        0.067       23.583       17.482        0.549      332.546        1.279      863.026
11/27/2013  03:57:00        4.835      -17.129       -3.548       26.493       17.082       12.594      701.898      291.793      158.602        0.074        0.058       17.798       10.170        0.327      332.616        1.393      863.006
11/27/2013  03:58:00      -26.019       -8.763       -0.072        6.371        6.669        3.929       40.594       44.469       15.437        0.043        0.005       27.455        2.807        0.010      332.551        1.287      862.984
11/27/2013  03:59:00      -11.238       -5.931        2.643       11.479        4.960        5.311      131.756       24.599       28.209        0.018        0.009       12.707        6.226        0.240      332.520        1.236      862.970
11/27/2013  04:00:00       -3.862      -29.771        0.331        6.775       11.305        9.808       45.899      127.794       96.197        0.059        0.013       30.020        5.041        0.028      332.623        1.407      862.976
11/27/2013  04:01:00      -11.095      -30.433       -4.117       15.085        7.065        6.678      227.550       49.914       44.600        0.069        0.016       32.392        3.998        0.015      332.701        1.536      862.975
11/27/2013  04:02:00      -42.962      -23.028       -2.087       10.381        8.826        6.851      107.765       77.893       46.939        0.131        0.012       48.745        2.513        0.003      332.627        1.412      862.985
11/27/2013  04:03:00      -76.514      -36.568       -6.479       15.679       14.292        9.710      245.824      204.271       94.283        0.389        0.027       84.803        7.500        0.008      332.536        1.261      862.981
11/27/2013  04:04:00      -71.679      -46.175        3.705       44.345       27.180       20.507     1966.480      738.767      420.544        0.520        0.156       85.264       18.712        0.048      332.479        1.168      862.977
11/27/2013  04:05:00      -15.812      -14.795       11.411       33.653       17.266       20.792     1132.540      298.129      432.317        0.123        0.093       21.655       21.870        1.020      332.476        1.162      862.961
11/27/2013  04:06:00      -73.331       -6.778       -4.176       12.611       23.629       11.473      159.046      558.315      131.628        0.314        0.042       73.643        7.385        0.010      332.414        1.061      862.940
11/27/2013  04:07:00      -71.968        5.694       -0.809       24.424       17.701       12.789      596.513      313.336      163.563        0.314        0.054       72.193       14.312        0.039      332.344        0.944      862.919
11/27/2013  04:08:00      -69.157       -8.394       -0.179       26.217       20.953       14.247      687.331      439.007      202.988        0.309        0.066       69.664       15.175        0.047      332.324        0.911      862.896
11/27/2013  04:09:00      -71.348      -13.990        0.775       21.814       18.545       11.762      475.830      343.901      138.345        0.312        0.048       72.706       10.226        0.020      332.296        0.867      862.886
11/27/2013  04:10:00      -82.623        2.902       -1.723       22.993       16.133       14.775      528.698      260.261      218.299        0.392        0.050       82.674       12.443        0.023      332.335        0.929      862.866
11/27/2013  04:11:00      -58.601       -7.780       -0.659       20.196       18.434       13.890      407.873      339.817      192.941        0.222        0.047       59.115        6.944        0.014      332.328        0.920      862.849
11/27/2013  04:12:00      -69.563       -5.005       -1.153       23.081       15.569       14.231      532.737      242.389      202.507        0.292        0.049       69.743       11.747        0.028      332.309        0.888      862.845
11/27/2013  04:13:00      -80.548      -20.167       -1.232       22.931       16.772       10.934      525.832      281.307      119.560        0.391        0.046       83.034        9.352        0.013      332.287        0.851      862.849
11/27/2013  04:14:00      -97.810      -26.051       -0.880       18.639       14.221       13.999      347.418      202.239      195.968        0.550        0.037      101.220       12.058        0.014      332.279        0.838      862.850
11/27/2013  04:15:00     -100.767      -17.853       -1.618       17.039       17.901       11.932      290.337      320.434      142.376        0.561        0.038      102.336        9.339        0.008      332.258        0.804      862.847
11/27/2013  04:16:00      -96.355       -9.569       -8.483       14.877       12.675       10.365      221.323      160.667      107.431        0.497        0.024       96.829        7.204        0.006      332.261        0.809      862.820
11/27/2013  04:17:00      -94.626        5.099       -4.068       12.606        9.524        6.347      158.921       90.704       40.288        0.464        0.014       94.763        4.611        0.002      332.323        0.910      862.782
11/27/2013  04:18:00      -99.822        3.633       -9.973       10.831       10.132        6.821      117.321      102.661       46.519        0.517        0.013       99.888        5.114        0.003      332.389        1.020      862.762
11/27/2013  04:19:00      -94.597      -25.706       -7.519       24.130       21.681       11.218      582.271      470.069      125.834        0.542        0.059       98.028       10.938        0.012      332.253        0.796      862.756
11/27/2013  04:20:00     -125.501      -50.195       -6.447       20.289       37.501       17.468      411.633     1406.358      305.145        1.022        0.106      135.167       17.651        0.017      332.117        0.570      862.767
11/27/2013  04:21:00      -88.438      -10.668       -3.725       35.852       28.831       18.009     1285.364      831.228      324.318        0.519        0.122       89.079       11.570        0.017      332.053        0.466      862.786
11/27/2013  04:22:00      -99.851       -4.497       -6.707       35.606       22.102       17.800     1267.809      488.479      316.840        0.605        0.104       99.952       16.605        0.028      332.077        0.506      862.791
11/27/2013  04:23:00      -81.045       -3.604       -7.092       36.192       23.004       17.617     1309.873      529.172      310.366        0.439        0.107       81.126       18.519        0.052      332.180        0.676      862.773
11/27/2013  04:24:00      -77.876      -11.252       -5.995       13.826       17.015       12.953      191.171      289.527      167.784        0.344        0.032       78.685        7.923        0.010      332.205        0.718      862.752
11/27/2013  04:25:00      -65.967      -22.283        0.525       21.304       15.855        9.346      453.866      251.382       87.339        0.282        0.040       69.629       10.083        0.021      332.244        0.778      862.747
11/27/2013  04:26:00      -64.492      -32.785       -8.176       13.275       11.038        7.235      176.212      121.839       52.348        0.283        0.018       72.347        2.797        0.001      332.275        0.832      862.760
11/27/2013  04:27:00      -69.925      -20.937       -4.532       11.796       13.582        6.637      139.136      184.463       44.050        0.286        0.018       72.992        6.977        0.009      332.323        0.910      862.773
11/27/2013  04:28:00      -44.409       -8.096       -2.402       13.669        9.137        7.484      186.830       83.483       56.003        0.118        0.016       45.141        6.038        0.018      332.307        0.883      862.772
11/27/2013  04:29:00      -36.698       -8.251       -6.181       10.395        6.396        5.278      108.065       40.912       27.854        0.081        0.009       37.614        4.463        0.014      332.357        0.966      862.744
11/27/2013  04:30:00      -51.118       -4.593       -7.730        7.580        6.319        6.248       57.460       39.932       39.039        0.142        0.007       51.324        4.201        0.007      332.371        0.992      862.708
11/27/2013  04:31:00      -81.373       -2.119       -9.058       12.443        6.463        5.423      154.834       41.777       29.404        0.347        0.011       81.401        3.799        0.002      332.309        0.886      862.685
11/27/2013  04:32:00      -74.072        1.584       -9.549       18.086       10.740       10.570      327.099      115.353      111.723        0.307        0.028       74.089        9.731        0.017      332.311        0.890      862.679
11/27/2013  04:33:00      -69.450       12.388      -11.643       14.653       11.143        9.760      214.714      124.165       95.254        0.277        0.022       70.546        8.440        0.014      332.294        0.863      862.679
11/27/2013  04:34:00      -71.900        6.056      -15.179        7.962       11.164        7.113       63.396      124.633       50.588        0.284        0.012       72.155        3.342        0.002      332.308        0.885      862.658
11/27/2013  04:35:00      -42.881       -6.784      -12.657       15.372       12.074        8.148      236.292      145.775       66.391        0.125        0.022       43.414        7.825        0.032      332.271        0.824      862.625
11/27/2013  04:36:00      -28.406       12.191       -4.810       13.158       15.526       10.999      173.121      241.059      120.974        0.076        0.027       30.911        7.752        0.063      332.510        1.220      862.592
11/27/2013  04:37:00      -11.966       14.215        0.436       13.676       16.648        8.033      187.046      277.144       64.527        0.044        0.026       18.581        7.941        0.183      332.777        1.663      862.583
11/27/2013  04:38:00       -6.810        2.744        2.792        8.774        5.079        6.430       76.977       25.797       41.345        0.010        0.007        7.342        5.624        0.587      332.578        1.332      862.602
11/27/2013  04:39:00      -28.136       -1.963      -10.852        8.834        7.023        6.441       78.031       49.320       41.484        0.054        0.008       28.205        5.210        0.034      332.555        1.292      862.622
11/27/2013  04:40:00      -56.321      -29.327       -5.534       18.224       13.657        9.449      332.102      186.506       89.287        0.234        0.030       63.499        5.044        0.006      332.285        0.848      862.641
11/27/2013  04:41:00      -95.906      -22.591      -14.858       20.735       17.840        9.354      429.925      318.259       87.495        0.538        0.042       98.531        8.588        0.008      332.020        0.413      862.643
11/27/2013  04:42:00      -70.202      -12.273      -12.192       11.612       13.533       10.367      134.850      183.141      107.468        0.283        0.021       71.267        8.250        0.013      331.974        0.337      862.636
11/27/2013  04:43:00      -55.131      -12.825       -9.475       12.074        8.937        8.394      145.781       79.874       70.467        0.179        0.015       56.603        7.797        0.019      332.043        0.449      862.615
11/27/2013  04:44:00      -53.674      -22.184       -4.480        9.372       11.197        6.831       87.827      125.375       46.661        0.183        0.013       58.078        4.856        0.007      332.019        0.410      862.586
11/27/2013  04:45:00      -77.708      -18.938       -7.453       12.834       13.643       10.093      164.703      186.121      101.863        0.345        0.023       79.982        7.110        0.008      331.957        0.307      862.566
11/27/2013  04:46:00     -107.779      -27.034      -17.296       21.707       16.436       12.096      471.175      270.134      146.322        0.677        0.044      111.118       10.133        0.008      331.944        0.285      862.561
11/27/2013  04:47:00     -114.274      -39.633      -11.142       27.595       21.985       15.313      761.473      483.355      234.484        0.812        0.074      120.952        7.352        0.004      331.851        0.134      862.550
11/27/2013  04:48:00     -103.589      -34.121      -12.694       23.214       43.590       16.382      538.888     1900.131      268.370        0.738        0.135      109.064       18.687        0.029      331.855        0.139      862.540
11/27/2013  04:49:00      -75.452      -16.922       -1.940       35.078       27.484       19.683     1230.468      755.378      387.435        0.418        0.119       77.326       18.627        0.058      331.794        0.039      862.534
11/27/2013  04:50:00      -49.187      -16.439       -5.019       31.043       29.369       19.695      963.690      862.538      387.894        0.246        0.111       51.861       15.168        0.086      331.821        0.084      862.539
11/27/2013  04:51:00      -81.836      -21.370      -14.384       26.991       20.467       16.464      728.520      418.909      271.055        0.439        0.071       84.580       11.968        0.020      331.923        0.251      862.538
11/27/2013  04:52:00     -126.715       -2.531      -19.896       31.033       27.269       20.763      963.052      743.590      431.082        0.930        0.107      126.741       12.575        0.010      331.933        0.267      862.535
11/27/2013  04:53:00      -61.168      -14.589        0.250       42.924       27.944       24.976     1842.433      780.879      623.812        0.360        0.162       62.884       20.849        0.110      331.896        0.207      862.528
11/27/2013  04:54:00      -87.030      -17.646       -5.703       34.112       27.387       20.171     1163.614      750.071      406.887        0.512        0.116       88.801        7.864        0.008      331.945        0.288      862.520
11/27/2013  04:55:00     -100.343      -65.253        2.673       50.626       37.572       22.492     2562.972     1411.682      505.887        0.941        0.224      119.694       24.176        0.041      331.874        0.168      862.512
11/27/2013  04:56:00     -116.619        2.103      -11.310       40.477       32.762       18.428     1638.354     1073.356      339.596        0.839        0.153      116.638       16.129        0.019      331.818        0.079      862.488
11/27/2013  04:57:00      -56.808      -35.864       -0.967       38.283       27.537       16.559     1465.582      758.296      274.191        0.351        0.125       67.182       18.464        0.076      331.810        0.065      862.471
11/27/2013  04:58:00       -1.919      -13.196        1.969       24.115       20.079       16.062      581.535      403.171      257.994        0.071        0.062       13.335       17.438        1.710      331.900        0.211      862.466
11/27/2013  04:59:00       -3.434      -14.045       -8.492       28.738       17.315       13.423      825.863      299.798      180.175        0.079        0.065       14.458       10.603        0.538      332.080        0.510      862.481
11/27/2013  05:00:00      -59.432      -27.706       -8.452       19.346       12.977        8.018      374.259      168.403       64.285        0.249        0.030       65.573        4.382        0.004      332.020        0.412      862.489
11/27/2013  05:01:00      -51.223      -27.264       -9.291       22.266       10.879        8.845      495.772      118.359       78.229        0.207        0.035       58.027       10.129        0.030      331.985        0.354      862.489
11/27/2013  05:02:00      -55.146      -20.946       -9.901       16.947       15.281        9.687      287.208      233.495       93.840        0.210        0.031       58.990        7.523        0.016      331.949        0.294      862.497
11/27/2013  05:03:00      -50.327      -10.685       -9.684        9.908       15.803        8.779       98.160      249.740       77.071        0.158        0.021       51.449        7.643        0.022      331.950        0.296      862.506
11/27/2013  05:04:00      -43.917      -12.731      -19.034       12.731       13.092       10.698      162.074      171.413      114.443        0.145        0.022       45.726        6.049        0.018      332.049        0.460      862.524
11/27/2013  05:05:00      -62.679      -18.416      -14.347       30.334       13.509       12.354      920.125      182.488      152.620        0.286        0.063       65.329       15.199        0.054      331.978        0.342      862.525
11/27/2013  05:06:00      -83.173      -17.712       -8.198       18.941       15.330       10.776      358.760      235.019      116.125        0.400        0.035       85.038        8.095        0.009      331.901        0.215      862.512
11/27/2013  05:07:00     -108.881      -14.651      -12.865       15.628       13.867       15.539      244.220      192.296      241.452        0.646        0.034      109.862        8.268        0.006      331.836        0.107      862.494
11/27/2013  05:08:00      -96.045      -10.254       -8.858       25.011       22.737       23.966      625.536      516.960      574.357        0.556        0.086       96.590       17.131        0.031      331.835        0.106      862.476
11/27/2013  05:09:00     -102.944      -19.548      -12.629       32.978       23.511       14.084     1087.581      552.758      198.363        0.649        0.092      104.783       12.801        0.015      331.916        0.241      862.445
11/27/2013  05:10:00      -90.262       -3.451        0.272       47.291       30.624       24.766     2236.412      937.806      613.366        0.597        0.189       90.328       25.816        0.082      331.812        0.068      862.405
11/27/2013  05:11:00      -77.417      -13.678        1.021       50.155       32.494       24.828     2515.560     1055.880      616.439        0.518        0.209       78.616       26.126        0.110      331.821        0.084      862.362
11/27/2013  05:12:00      -37.192      -18.327        8.055       28.542       35.510       20.622      814.668     1260.956      425.266        0.214        0.125       41.462       18.926        0.208      331.889        0.196      862.346
11/27/2013  05:13:00      -65.294      -24.375       -0.315       29.213       15.444       11.749      853.389      238.522      138.039        0.304        0.061       69.695        6.789        0.009      331.934        0.270      862.355
11/27/2013  05:14:00      -83.680      -29.053       -7.153       27.690       30.221       14.904      766.730      913.319      222.134        0.490        0.095       88.580       12.083        0.019      331.922        0.250      862.368
11/27/2013  05:15:00     -108.137      -34.422      -14.273       27.331       20.795       11.974      746.969      432.442      143.371        0.720        0.066      113.484        8.194        0.005      331.904        0.219      862.378
11/27/2013  05:16:00      -89.253      -37.662      -13.283       22.315       20.751       11.648      497.978      430.603      135.686        0.531        0.053       96.874        7.383        0.006      331.902        0.217      862.396
11/27/2013  05:17:00      -39.904      -21.066       -4.572       16.096       12.993        7.911      259.071      168.810       62.588        0.127        0.025       45.123        5.493        0.015      332.000        0.380      862.406
11/27/2013  05:18:00      -63.259      -29.775       -8.198       24.653        7.668        6.613      607.762       58.792       43.729        0.283        0.036       69.916        8.286        0.014      332.049        0.459      862.404
11/27/2013  05:19:00      -81.425       -9.753       -9.758       15.558       17.496        8.623      242.057      306.125       74.358        0.372        0.031       82.007        6.701        0.007      332.031        0.430      862.368
11/27/2013  05:20:00     -132.976        7.688      -17.785       10.278       10.097        9.545      105.637      101.953       91.114        0.918        0.015      133.198        5.404        0.002      331.988        0.358      862.332
11/27/2013  05:21:00     -108.177      -11.366      -18.416       21.431       17.033       10.559      459.289      290.136      111.501        0.652        0.043      108.773        4.330        0.002      331.918        0.241      862.324
11/27/2013  05:22:00      -64.315      -41.910       -7.463       21.896       17.606        9.890      479.439      309.985       97.816        0.342        0.044       76.765        8.717        0.013      331.962        0.316      862.327
11/27/2013  05:23:00     -103.934      -34.254      -11.569       19.631       16.701       14.441      385.391      278.918      208.535        0.649        0.044      109.433       10.819        0.010      331.957        0.306      862.332
11/27/2013  05:24:00     -102.474      -12.656       -5.109       27.178       22.522       17.884      738.646      507.232      319.849        0.613        0.078      103.253       14.770        0.020      331.927        0.258      862.317
11/27/2013  05:25:00     -114.020      -19.954      -13.649       14.707       15.708       12.955      216.289      246.747      167.836        0.711        0.032      115.752        8.818        0.006      331.805        0.057      862.299
11/27/2013  05:26:00     -106.244      -23.410      -10.409       13.599       17.648       12.848      184.928      311.451      165.083        0.630        0.033      108.793        5.828        0.003      331.763       -0.010      862.304
11/27/2013  05:27:00      -87.744      -35.863       -5.124       14.850       15.953        9.332      220.535      254.508       87.084        0.479        0.028       94.790        6.012        0.004      331.844        0.122      862.314
11/27/2013  05:28:00     -108.693      -39.121       -6.041       15.582       20.636       11.695      242.808      425.839      136.762        0.709        0.040      115.519        8.259        0.005      331.932        0.265      862.317
11/27/2013  05:29:00     -105.148      -63.702       -9.524       24.656       18.918       14.085      607.913      357.890      198.390        0.818        0.058      122.939        7.344        0.004      331.889        0.195      862.310
11/27/2013  05:30:00      -87.386      -32.301        1.913       52.681       26.598       22.429     2775.333      707.458      503.044        0.633        0.199       93.165       28.135        0.091      331.779        0.014      862.307
11/27/2013  05:31:00     -114.845      -29.386       -5.863       29.655       22.292       18.536      879.423      496.934      343.570        0.790        0.086      118.545       16.037        0.018      331.726       -0.074      862.285
11/27/2013  05:32:00      -99.996      -25.480       -5.987       27.719       20.411       16.440      768.325      416.604      270.273        0.607        0.073      103.191       15.335        0.022      331.761       -0.016      862.267
11/27/2013  05:33:00      -96.656      -21.856       -7.018       30.162       23.667       17.964      909.755      560.111      322.693        0.583        0.090       99.096       17.283        0.030      331.740       -0.050      862.259
11/27/2013  05:34:00      -60.837      -29.863       -1.946       25.075       30.093       19.766      628.733      905.574      390.682        0.326        0.096       67.771       16.103        0.056      331.748       -0.036      862.259
11/27/2013  05:35:00      -46.932      -44.449       -1.197       32.278       22.546       18.532     1041.855      508.326      343.420        0.304        0.095       64.640       11.195        0.030      331.809        0.064      862.273
11/27/2013  05:36:00      -75.075      -15.164      -10.739       23.965       38.518       16.859      574.321     1483.674      284.239        0.416        0.117       76.591       13.728        0.032      331.780        0.016      862.275
11/27/2013  05:37:00      -66.322        6.754      -13.189       16.173       19.006       15.719      261.556      361.237      247.088        0.274        0.043       66.665        8.188        0.015      331.744       -0.043      862.263
11/27/2013  05:38:00      -65.807      -14.751       -9.893       32.803       18.959       14.294     1076.028      359.428      204.320        0.314        0.082       67.440       14.120        0.044      331.730       -0.065      862.241
11/27/2013  05:39:00      -96.737      -31.498      -11.935       28.114       33.142       16.977      790.408     1098.371      288.225        0.633        0.109      101.736       12.308        0.015      331.728       -0.070      862.231
11/27/2013  05:40:00      -61.913      -38.826       -4.014       56.960       31.591       24.959     3244.490      998.013      622.960        0.511        0.243       73.080       28.535        0.152      331.747       -0.038      862.240
11/27/2013  05:41:00      -51.982       -8.475       -4.819       33.598       20.032       16.257     1128.803      401.293      264.276        0.230        0.090       52.668       10.690        0.041      331.746       -0.041      862.251
11/27/2013  05:42:00      -33.001       -5.633       -2.032       45.702       24.792       19.505     2088.658      614.625      380.445        0.210        0.154       33.478       18.314        0.299      331.806        0.059      862.252
11/27/2013  05:43:00      -97.787       -9.549       -8.425       23.611       14.785       17.868      557.456      218.592      319.251        0.541        0.055       98.252       15.811        0.026      331.732       -0.064      862.247
11/27/2013  05:44:00      -94.488       -3.929      -11.839       23.687       22.619       12.516      561.094      511.614      156.649        0.516        0.061       94.570        3.067        0.001      331.761       -0.016      862.257
11/27/2013  05:45:00      -90.973      -22.939      -10.208       27.609       25.422       13.451      762.243      646.285      180.916        0.525        0.079       93.821        6.216        0.004      331.772        0.003      862.279
11/27/2013  05:46:00      -46.882      -51.528       -4.898       19.535       21.074       13.933      381.612      444.120      194.123        0.295        0.051       69.664       12.290        0.031      331.787        0.027      862.304
11/27/2013  05:47:00      -50.754        1.396       -4.124       27.909       13.189       15.254      778.893      173.946      232.679        0.189        0.059       50.774       17.528        0.119      331.791        0.034      862.316
11/27/2013  05:48:00      -66.799       10.119       -8.550       10.378        9.467        8.777      107.712       89.626       77.040        0.246        0.014       67.561        2.689        0.002      331.775        0.007      862.315
11/27/2013  05:49:00      -54.323       -2.659       -8.146       13.296       12.845        8.282      176.796      165.001       68.587        0.172        0.021       54.388        6.415        0.014      331.877        0.176      862.329
11/27/2013  05:50:00      -79.992      -18.315      -12.388       17.642       10.793        8.493      311.228      116.491       72.135        0.369        0.025       82.062        6.495        0.006      331.806        0.058      862.350
11/27/2013  05:51:00      -98.978      -13.506      -12.486       14.694       13.418        9.330      215.901      180.048       87.048        0.531        0.024       99.895        6.558        0.004      331.728       -0.067      862.360
11/27/2013  05:52:00      -74.386      -14.266      -12.440       17.136       14.569       10.611      293.633      212.256      112.586        0.325        0.031       75.742        8.933        0.014      331.758       -0.021      862.356
11/27/2013  05:53:00      -98.533      -25.425      -10.196       19.576       14.609       12.427      383.201      213.437      154.423        0.560        0.038      101.761        9.250        0.008      331.813        0.070      862.349
11/27/2013  05:54:00     -118.763      -22.849      -11.656       15.280       16.300       11.291      233.472      265.700      127.493        0.769        0.031      120.941        7.156        0.004      331.798        0.045      862.347
11/27/2013  05:55:00      -84.941      -41.993      -16.022       29.908       22.749       16.672      894.499      517.519      277.966        0.546        0.084       94.754        9.580        0.010      331.761       -0.016      862.339
11/27/2013  05:56:00      -98.011        3.962      -16.269       19.027       12.544       14.642      362.023      157.361      214.387        0.531        0.037       98.091       12.076        0.015      331.701       -0.112      862.342
11/27/2013  05:57:00     -101.471       -5.458      -17.975       13.736       12.386       11.523      188.685      153.417      132.779        0.556        0.024      101.618        6.021        0.004      331.676       -0.155      862.336
11/27/2013  05:58:00     -104.697      -22.573       -9.246       24.475       20.847       10.877      599.041      434.587      118.313        0.635        0.058      107.102        9.592        0.008      331.656       -0.187      862.332
11/27/2013  05:59:00      -71.413       -2.717       -4.876       25.034       15.973       17.022      626.699      255.147      289.753        0.315        0.059       71.465       13.467        0.036      331.624       -0.240      862.322
11/27/2013  06:00:00      -41.346      -16.356       -2.092       16.087        9.556        8.616      258.803       91.321       74.229        0.120        0.021       44.463        8.544        0.037      331.688       -0.137      862.318
11/27/2013  06:01:00      -18.796       -6.624       -3.551        6.654        7.405        6.645       44.282       54.830       44.158        0.028        0.007       19.929        5.543        0.077      331.819        0.080      862.310
11/27/2013  06:02:00      -26.506        1.567       -7.054        7.431        4.992        7.522       55.214       24.916       56.586        0.045        0.007       26.552        5.264        0.039      331.880        0.182      862.303
11/27/2013  06:03:00      -22.327        6.664       -3.368        5.644        6.070        3.649       31.859       36.843       13.315        0.032        0.004       23.300        2.532        0.012      331.869        0.162      862.301
11/27/2013  06:04:00      -30.049        3.053       -6.796        8.880        5.817        4.280       78.848       33.841       18.320        0.054        0.007       30.204        3.445        0.013      331.888        0.196      862.296
11/27/2013  06:05:00      -55.260       -4.452       -6.548       14.084        7.785        5.311      198.363       60.604       28.202        0.170        0.014       55.439        3.551        0.004      331.802        0.054      862.287
11/27/2013  06:06:00      -64.891       -8.998       -5.297       14.840       12.973       12.067      220.217      168.292      145.601        0.243        0.027       65.512        9.908        0.023      331.700       -0.114      862.278
11/27/2013  06:07:00      -68.222       -9.905      -12.537       12.116       11.457        8.326      146.809      131.263       69.330        0.263        0.017       68.937        4.426        0.004      331.613       -0.258      862.270
11/27/2013  06:08:00      -61.117      -19.010      -11.272       15.180       11.657       14.594      230.427      135.882      212.974        0.240        0.029       64.005        9.223        0.021      331.582       -0.309      862.268
11/27/2013  06:09:00      -55.596      -22.394       -9.056       14.748       15.589        6.872      217.498      243.003       47.231        0.209        0.025       59.937        3.461        0.003      331.714       -0.094      862.260
11/27/2013  06:10:00      -60.833      -27.576      -15.559        9.584       10.175        7.710       91.851      103.527       59.448        0.248        0.013       66.791        3.370        0.003      331.690       -0.130      862.259
11/27/2013  06:11:00      -86.369      -20.179      -15.474        9.286       17.508       10.044       86.233      306.543      100.882        0.430        0.025       88.695        3.567        0.002      331.611       -0.263      862.261
11/27/2013  06:12:00      -57.564       -6.714       -9.210       12.609       14.182       10.109      158.998      201.127      102.183        0.195        0.023       57.954        4.394        0.006      331.625       -0.237      862.258
11/27/2013  06:13:00      -54.475      -12.091       -7.094       18.021       10.869       11.192      324.746      118.142      125.252        0.187        0.028       55.801        9.337        0.028      331.606       -0.271      862.262
11/27/2013  06:14:00      -23.645      -27.732       -1.693       16.172       14.832       12.510      261.534      219.993      156.490        0.098        0.032       36.444       10.026        0.076      331.744       -0.043      862.268
11/27/2013  06:15:00      -18.401      -23.589       -2.294       16.719       12.309       18.161      279.535      151.505      329.810        0.083        0.038       29.917       14.299        0.228      331.816        0.076      862.279
11/27/2013  06:16:00      -31.462       -8.455       -5.026       15.359       10.461        9.546      235.891      109.424       91.128        0.076        0.022       32.579        7.980        0.060      331.880        0.179      862.290
11/27/2013  06:17:00      -45.744       -7.079       -4.329       11.659        7.863        7.103      135.926       61.820       50.448        0.120        0.012       46.288        2.581        0.003      331.784        0.023      862.285
11/27/2013  06:18:00      -45.317       -1.016       -2.657       11.776        9.927        9.792      138.673       98.538       95.876        0.120        0.017       45.329        7.785        0.029      331.801        0.050      862.291
11/27/2013  06:19:00      -65.595      -16.380       -7.587        8.974        7.349        8.077       80.534       54.012       65.233        0.241        0.010       67.610        4.210        0.004      331.765       -0.009      862.301
11/27/2013  06:20:00      -60.566      -12.761       -7.044       11.681        9.404        8.365      136.457       88.437       69.975        0.209        0.015       61.895        4.509        0.005      331.727       -0.071      862.305
11/27/2013  06:21:00      -38.344      -21.455       -8.543       10.729       11.433        8.178      115.120      130.715       66.882        0.116        0.016       43.938        4.783        0.012      331.705       -0.108      862.309
11/27/2013  06:22:00        0.247      -21.594       -5.522       12.110       13.362       12.992      146.662      178.552      168.794        0.050        0.025       21.596       10.074        0.218      332.153        0.631      862.300
11/27/2013  06:23:00       -9.291      -19.988        7.354        8.293        7.899       10.635       68.782       62.402      113.108        0.039        0.012       22.042        3.756        0.029      332.090        0.527      862.294
11/27/2013  06:24:00      -37.354      -18.654       -7.070       17.675       11.868        7.137      312.404      140.843       50.930        0.115        0.025       41.753        7.277        0.030      331.773        0.004      862.286
11/27/2013  06:25:00      -48.577       -9.919       -9.378       10.667        8.125       11.067      113.790       66.012      122.473        0.142        0.015       49.579        6.066        0.015      331.692       -0.127      862.292
11/27/2013  06:26:00      -29.478      -10.993       -3.829       13.875        5.854        8.386      192.512       34.269       70.319        0.065        0.015       31.462        8.116        0.067      331.853        0.136      862.299
11/27/2013  06:27:00        8.465        5.880       -3.173        9.528        8.619        5.100       90.777       74.281       26.012        0.015        0.010       10.307        4.231        0.169      332.022        0.414      862.295
11/27/2013  06:28:00       19.578       28.444        3.326        8.285        8.951        5.628       68.647       80.118       31.678        0.069        0.009       34.531        3.445        0.010      332.235        0.766      862.287
11/27/2013  06:29:00       13.846       24.758        5.269       13.917        6.814        8.887      193.690       46.430       78.972        0.058        0.016       28.367        3.365        0.014      332.207        0.720      862.284
11/27/2013  06:30:00       32.951       10.446        1.727        8.451        6.451        7.830       71.426       41.618       61.305        0.069        0.009       34.567        4.552        0.017      332.199        0.709      862.280
11/27/2013  06:31:00        7.495        5.058        0.093       11.434       21.086        8.004      130.737      444.599       64.057        0.036        0.032        9.042        7.665        0.719      332.165        0.650      862.284
11/27/2013  06:32:00       14.400        5.269        1.758        8.772        8.965        9.285       76.946       80.371       86.215        0.024        0.012       15.334        7.164        0.218      332.202        0.712      862.290
11/27/2013  06:33:00        8.223       -4.940        1.590        4.586        5.975        5.359       21.028       35.704       28.715        0.009        0.004        9.593        1.806        0.035      332.226        0.749      862.285
11/27/2013  06:34:00       -5.986        5.549        0.539        8.578        9.292        4.318       73.577       86.332       18.644        0.012        0.009        8.162        3.540        0.188      332.168        0.654      862.297
11/27/2013  06:35:00      -10.087       10.243       -1.948        9.886        8.060        3.422       97.741       64.965       11.708        0.019        0.009       14.376        1.767        0.015      332.082        0.514      862.315
11/27/2013  06:36:00        9.845        0.813        4.442       15.681        9.229        6.622      245.887       85.167       43.853        0.025        0.019        9.878        5.953        0.363      332.086        0.521      862.332
11/27/2013  06:37:00       14.844        6.295       11.607        7.516        6.274        6.705       56.486       39.363       44.957        0.027        0.007       16.124        5.761        0.128      331.976        0.339      862.343
11/27/2013  06:38:00       20.417       -0.220        4.867       13.534        8.527        5.951      183.163       72.711       35.411        0.037        0.015       20.418        3.208        0.025      332.049        0.458      862.340
11/27/2013  06:39:00       19.268       11.667       15.464       11.528       11.921        8.921      132.898      142.120       79.586        0.055        0.018       22.525        8.188        0.132      332.054        0.469      862.338
11/27/2013  06:40:00        3.692       -0.006        8.620       10.461        6.477        6.938      109.429       41.953       48.131        0.014        0.010        3.692        6.360        2.967      332.025        0.420      862.344
11/27/2013  06:41:00        1.124        4.295        4.989       10.223        8.527        5.194      104.515       72.705       26.975        0.012        0.010        4.439        4.774        1.156      332.039        0.444      862.344
11/27/2013  06:42:00      -12.095        6.405        1.816       17.498        7.305        5.587      306.180       53.368       31.214        0.029        0.020       13.686        4.114        0.090      332.023        0.416      862.337
11/27/2013  06:43:00      -24.260      -15.266       -4.626       15.830        9.977        8.853      250.580       99.550       78.377        0.064        0.021       28.663        9.729        0.115      331.866        0.156      862.353
11/27/2013  06:44:00       -9.269      -16.582        4.489        7.701        8.871       11.292       59.301       78.700      127.507        0.032        0.013       18.997        6.360        0.112      331.868        0.161      862.357
11/27/2013  06:45:00       -7.105       -7.430       -7.893        6.512        8.656        3.912       42.403       74.933       15.304        0.015        0.007       10.280        2.916        0.080      331.924        0.252      862.355
11/27/2013  06:46:00       -7.644       -1.068       -4.434        5.908        2.822        3.571       34.905        7.961       12.749        0.007        0.003        7.718        1.471        0.036      331.906        0.224      862.354
11/27/2013  06:47:00      -35.503        0.149       -7.163       13.508        4.713        3.507      182.462       22.208       12.301        0.076        0.011       35.504        4.751        0.018      332.020        0.411      862.355
11/27/2013  06:48:00      -57.399       -4.448       -6.699        8.237        9.418        5.875       67.845       88.692       34.513        0.178        0.010       57.571        4.653        0.007      331.971        0.330      862.360
11/27/2013  06:49:00      -61.962        0.851       -4.236       13.679       11.991        6.433      187.109      143.775       41.379        0.212        0.019       61.968        2.663        0.002      331.879        0.179      862.348
11/27/2013  06:50:00      -39.302       -2.692       -9.190       15.004       12.199        7.902      225.123      148.812       62.446        0.104        0.022       39.394        8.953        0.052      331.924        0.253      862.330
11/27/2013  06:51:00      -44.536       -3.790       -7.625       13.856        8.754        9.516      192.001       76.634       90.547        0.121        0.018       44.697        7.655        0.029      331.900        0.215      862.330
11/27/2013  06:52:00      -44.312       -8.754      -12.777        9.639       12.399       11.863       92.912      153.731      140.737        0.130        0.019       45.168       10.015        0.049      331.969        0.327      862.326
11/27/2013  06:53:00      -73.751       -3.343       -5.222       11.546       12.068       10.432      133.313      145.641      108.821        0.293        0.019       73.827        7.515        0.010      331.946        0.287      862.320
11/27/2013  06:54:00      -95.130       -6.459       -9.993       20.812       10.633       13.063      433.124      113.062      170.643        0.495        0.036       95.349        5.080        0.003      331.942        0.282      862.311
11/27/2013  06:55:00      -72.181       -6.088       -7.008       14.955       10.776        7.588      223.644      116.127       57.577        0.285        0.020       72.437        6.026        0.007      331.888        0.194      862.321
11/27/2013  06:56:00      -48.183        4.428       -8.817       15.182        6.312        7.157      230.492       39.845       51.222        0.137        0.016       48.386        6.854        0.020      331.854        0.137      862.336
11/27/2013  06:57:00      -61.469       -3.305       -8.515       10.008        5.312        4.971      100.151       28.218       24.715        0.201        0.008       61.558        2.320        0.001      331.899        0.212      862.342
11/27/2013  06:58:00      -92.619       -9.888      -14.321       11.548        7.148        9.095      133.350       51.095       82.720        0.457        0.013       93.145        2.002        0.000      331.931        0.264      862.333
11/27/2013  06:59:00      -92.244      -12.315       -9.997       22.550       14.930       12.464      508.504      222.901      155.356        0.482        0.044       93.063       11.075        0.014      331.891        0.199      862.319
11/27/2013  07:00:00      -79.528      -12.218       -6.127       23.346       16.107       12.638      545.020      259.422      159.729        0.374        0.048       80.461       11.247        0.020      331.787        0.028      862.311
11/27/2013  07:01:00      -41.169      -11.810       -3.302       24.810       17.260       14.151      615.543      297.894      200.257        0.148        0.056       42.829       13.891        0.105      331.748       -0.036      862.321
11/27/2013  07:02:00      -41.958       -8.122       -7.103       16.157       19.621        9.817      261.060      384.971       96.371        0.131        0.037       42.737        6.351        0.022      331.771        0.002      862.326
11/27/2013  07:03:00      -59.066        6.300       -7.061       16.577       15.196       11.342      274.802      230.916      128.633        0.211        0.032       59.401        8.168        0.019      331.783        0.021      862.320
11/27/2013  07:04:00      -60.950        6.883      -16.893       15.512       12.869        9.770      240.636      165.623       95.455        0.227        0.025       61.338        8.086        0.017      331.773        0.005      862.303
11/27/2013  07:05:00      -46.562        2.053      -16.143       10.949       10.067        7.686      119.876      101.343       59.075        0.136        0.014       46.607        4.498        0.009      331.743       -0.045      862.288
11/27/2013  07:06:00      -43.389        5.078      -11.173       13.087       13.626       12.616      171.280      185.667      159.159        0.127        0.026       43.685        6.580        0.023      331.831        0.100      862.277
11/27/2013  07:07:00      -50.171        2.317      -10.679       10.597       11.643        7.088      112.291      135.550       50.243        0.147        0.015       50.225        5.026        0.010      331.912        0.234      862.262
11/27/2013  07:08:00      -49.257       -1.875       -6.051       11.406       10.780        8.189      130.092      116.206       67.057        0.139        0.016       49.293        7.288        0.022      331.943        0.285      862.255
11/27/2013  07:09:00      -14.437        2.273      -10.563       15.862       13.095        6.345      251.610      171.478       40.254        0.039        0.023       14.615        5.030        0.118      332.032        0.431      862.251
11/27/2013  07:10:00        7.427       24.706       -7.047       19.512       17.468       10.187      380.706      305.122      103.773        0.075        0.039       25.798        8.617        0.112      332.317        0.901      862.246
11/27/2013  07:11:00      -35.849       -1.507       -6.302       11.561       10.735        7.773      133.667      115.241       60.416        0.082        0.015       35.880        4.571        0.016      332.080        0.511      862.244
11/27/2013  07:12:00      -54.897        4.143       -6.276        9.960       10.867        6.766       99.194      118.093       45.785        0.167        0.013       55.053        5.207        0.009      331.895        0.205      862.235
11/27/2013  07:13:00      -63.091        9.022       -7.619       10.487        8.429        7.791      109.972       71.050       60.703        0.218        0.012       63.733        4.607        0.005      331.900        0.214      862.235
11/27/2013  07:14:00      -47.303      -17.690       -7.938        6.291       10.898        7.041       39.580      118.773       49.576        0.141        0.010       50.503        1.735        0.001      331.878        0.179      862.244
11/27/2013  07:15:00      -47.701      -17.385       -8.793       13.743       11.423        7.568      188.860      130.489       57.282        0.152        0.019       50.771        4.295        0.007      331.783        0.022      862.255
11/27/2013  07:16:00      -34.810      -14.031       -8.659        6.922        6.567        4.409       47.909       43.132       19.442        0.080        0.006       37.531        1.749        0.002      331.816        0.075      862.266
11/27/2013  07:17:00      -41.845      -11.059       -5.134       19.943        8.715        8.209      397.718       75.944       67.380        0.122        0.027       43.281       10.437        0.058      331.791        0.034      862.265
11/27/2013  07:18:00      -79.220       -9.270      -14.365       14.458       12.073        9.536      209.042      145.764       90.943        0.351        0.022       79.761        7.317        0.008      331.804        0.055      862.257
11/27/2013  07:19:00      -66.780       -4.925       -5.179       23.382       23.442       15.951      546.714      549.550      254.437        0.293        0.068       66.961       14.001        0.044      331.774        0.006      862.249
11/27/2013  07:20:00      -50.563      -13.920        1.701       31.906       27.501       17.168     1017.992      756.285      294.741        0.241        0.103       52.444       11.215        0.046      331.798        0.045      862.247
11/27/2013  07:21:00     -108.994       11.255      -10.699       52.801       29.844       22.149     2787.971      890.637      490.596        0.814        0.208      109.574       22.525        0.042      331.808        0.061      862.238
11/27/2013  07:22:00     -145.944        1.734      -11.010       35.079       31.702       17.445     1230.557     1005.042      304.332        1.198        0.127      145.954       11.707        0.006      331.788        0.028      862.239
11/27/2013  07:23:00     -125.991       19.351      -11.656       38.277       35.771       19.508     1465.133     1279.556      380.578        0.975        0.156      127.469       13.419        0.011      331.815        0.072      862.244
11/27/2013  07:24:00     -124.999       25.025       -9.394       29.367       24.103       15.029      862.394      580.955      225.872        0.900        0.083      127.479        7.008        0.003      331.828        0.094      862.248
11/27/2013  07:25:00     -115.509       15.247      -13.362       30.580       29.743       15.522      935.136      884.634      240.931        0.791        0.103      116.511        7.932        0.005      331.918        0.243      862.247
11/27/2013  07:26:00      -89.181        1.062       -6.285       33.375       25.704       19.789     1113.873      660.721      391.617        0.508        0.108       89.187       11.499        0.017      331.899        0.213      862.246
11/27/2013  07:27:00     -119.098       13.616      -14.542       33.400       30.426       22.016     1115.561      925.716      484.700        0.855        0.126      119.874       15.979        0.018      331.854        0.137      862.252
11/27/2013  07:28:00      -91.699        1.649      -10.302       43.771       24.738       16.723     1915.887      611.974      279.658        0.566        0.140       91.714       17.386        0.036      331.820        0.082      862.255
11/27/2013  07:29:00      -61.240        0.871      -11.289       27.933       22.247       13.819      780.252      494.926      190.976        0.267        0.073       61.246       11.677        0.036      331.841        0.117      862.242
11/27/2013  07:30:00      -20.372       -2.006       -3.348       17.036       14.622       13.137      290.212      213.804      172.591        0.055        0.034       20.471       10.697        0.273      332.014        0.402      862.239
11/27/2013  07:31:00      -55.118      -13.234       -6.827       14.249       23.311       12.649      203.043      543.421      160.006        0.208        0.045       56.685       10.202        0.032      332.054        0.468      862.249
11/27/2013  07:32:00      -51.783      -18.857       -8.995       13.964       12.741       11.776      194.997      162.321      138.670        0.181        0.025       55.110        4.780        0.008      331.998        0.376      862.254
11/27/2013  07:33:00      -47.230      -18.937      -16.593       15.281       12.054       12.651      233.515      145.295      160.053        0.170        0.027       50.885        6.963        0.019      332.097        0.539      862.242
11/27/2013  07:34:00      -46.506      -24.550      -12.468       12.197       17.254        9.126      148.777      297.711       83.287        0.173        0.026       52.589        6.406        0.015      332.138        0.606      862.237
11/27/2013  07:35:00      -51.936       -7.058      -17.061       16.464       10.552       11.429      271.073      111.334      130.612        0.178        0.026       52.414        7.000        0.018      332.125        0.585      862.238
11/27/2013  07:36:00      -56.476      -21.551       -8.992       11.361       11.439        7.393      129.063      130.857       54.658        0.202        0.016       60.448        2.827        0.002      332.073        0.500      862.233
11/27/2013  07:37:00      -54.344      -16.458       -8.133       11.967       10.183        8.032      143.206      103.703       64.515        0.180        0.016       56.782        4.250        0.006      332.109        0.557      862.252
11/27/2013  07:38:00      -57.241      -17.740       -8.578       10.774       10.679        9.185      116.078      114.048       84.372        0.199        0.016       59.927        6.530        0.012      332.119        0.574      862.266
11/27/2013  07:39:00      -54.443       -5.901       -6.769        9.809        8.445        8.039       96.223       71.313       64.627        0.164        0.012       54.761        4.940        0.008      332.166        0.652      862.278
11/27/2013  07:40:00      -43.473      -21.444       -6.001       11.268       12.054        8.947      126.971      145.290       80.043        0.137        0.018       48.474        5.318        0.012      332.262        0.812      862.301
11/27/2013  07:41:00      -39.900      -19.842       -2.595        8.307        8.716        7.252       69.007       75.960       52.585        0.109        0.010       44.562        3.105        0.005      332.325        0.913      862.308
11/27/2013  07:42:00      -39.711      -22.893       -3.066       12.527       11.730        9.036      156.927      137.594       81.646        0.124        0.019       45.837        6.087        0.018      332.356        0.964      862.321
11/27/2013  07:43:00      -53.100      -32.629       -3.481       11.431        8.922        8.992      130.668       79.602       80.861        0.209        0.015       62.324        7.411        0.014      332.413        1.059      862.319
11/27/2013  07:44:00      -42.873      -22.190       -5.512        7.127        5.665        5.042       50.788       32.093       25.426        0.123        0.005       48.275        3.337        0.005      332.536        1.261      862.320
11/27/2013  07:45:00      -16.122       -3.623       -2.360       12.038       10.183        5.780      144.902      103.693       33.412        0.028        0.014       16.524        4.285        0.067      332.611        1.385      862.313
11/27/2013  07:46:00        2.640       10.465       10.136        8.047       11.724       12.993       64.756      137.449      168.811        0.030        0.019       10.793        6.987        0.419      332.878        1.826      862.321
11/27/2013  07:47:00       14.417       16.547        9.162       14.478       11.558       11.347      209.623      133.581      128.760        0.052        0.024       21.947        8.506        0.150      332.938        1.927      862.325
11/27/2013  07:48:00       26.834       19.533        3.570       11.060       10.039       12.108      122.323      100.787      146.600        0.074        0.018       33.190        5.878        0.031      332.892        1.850      862.327
11/27/2013  07:49:00        9.707       10.732       -3.653       10.054       14.059       10.904      101.083      197.642      118.892        0.032        0.021       14.471        6.996        0.234      333.017        2.056      862.337
11/27/2013  07:50:00       -1.686        1.418       15.149        6.521        6.072        5.874       42.519       36.865       34.501        0.017        0.006        2.203        2.864        1.690      333.498        2.852      862.345
11/27/2013  07:51:00       -1.898       -3.136        7.220       15.915        7.756        7.714      253.282       60.158       59.507        0.022        0.019        3.666        4.652        1.610      333.180        2.326      862.352
11/27/2013  07:52:00       -5.644        2.915       16.781        6.709        8.591        6.841       45.017       73.800       46.804        0.024        0.008        6.352        4.238        0.445      333.492        2.842      862.356
11/27/2013  07:53:00        7.218       13.380       14.422       17.804       14.494       10.737      316.982      210.071      115.285        0.054        0.032       15.203        8.582        0.319      333.279        2.489      862.349
11/27/2013  07:54:00       52.924       30.779       13.949       20.230       14.673       18.315      409.238      215.296      335.454        0.245        0.048       61.224       13.789        0.051      333.103        2.199      862.350
11/27/2013  07:55:00       63.466       40.932        1.023       20.979       23.145       18.198      440.106      535.673      331.160        0.351        0.065       75.521       12.031        0.025      333.105        2.202      862.341
11/27/2013  07:56:00       59.745       56.229       28.206       27.812       18.522       22.819      773.497      343.064      520.705        0.458        0.082       82.044       13.646        0.028      333.185        2.335      862.344
11/27/2013  07:57:00       20.648       39.551       50.271       27.292       35.566       24.980      744.828     1264.937      624.024        0.358        0.132       44.616        9.469        0.045      333.343        2.597      862.334
11/27/2013  07:58:00       37.662       64.742        6.039       30.483       27.200       27.058      929.214      739.816      732.144        0.402        0.120       74.899       20.201        0.073      333.146        2.270      862.321
11/27/2013  07:59:00       56.186       49.486        6.643       30.774       22.140       20.327      947.062      490.170      413.167        0.375        0.093       74.871        6.178        0.007      333.094        2.183      862.291
11/27/2013  08:00:00       73.708       45.073        2.606       24.594       17.423       19.069      604.884      303.573      363.637        0.437        0.064       86.397       13.997        0.026      333.005        2.038      862.283
11/27/2013  08:01:00       57.567       43.324        5.434       22.703       16.869       19.749      515.428      284.549      390.022        0.320        0.059       72.048       16.747        0.054      332.940        1.930      862.283
11/27/2013  08:02:00       62.049       46.140        8.000       13.526       14.050       16.672      182.965      197.391      277.942        0.335        0.033       77.324        8.895        0.013      332.908        1.877      862.281
11/27/2013  08:03:00       42.067       40.232        9.777       16.797       19.632       17.417      282.153      385.407      303.340        0.223        0.049       58.208       11.271        0.037      333.033        2.084      862.279
11/27/2013  08:04:00       28.740       35.236       20.026       23.632       19.546       18.037      558.484      382.060      325.350        0.187        0.063       45.470       17.336        0.145      333.253        2.446      862.286
11/27/2013  08:05:00       17.253       55.851       52.458       28.297       28.039       33.299      800.707      786.197     1108.851        0.443        0.135       58.455       23.812        0.166      333.276        2.485      862.295
11/27/2013  08:06:00       28.390       86.445       80.525       38.612       45.942       22.869     1490.880     2110.647      523.008        0.944        0.206       90.987       15.600        0.029      333.137        2.255      862.321
11/27/2013  08:07:00       32.216       85.081       83.878       51.919       36.425       34.456     2695.592     1326.765     1187.192        1.026        0.260       90.976       34.209        0.141      333.089        2.176      862.330
11/27/2013  08:08:00       94.370      117.291       64.937       44.992       29.268       41.255     2024.268      856.615     1701.998        1.573        0.229      150.542       33.995        0.051      332.961        1.964      862.334
11/27/2013  08:09:00      114.135       95.078       58.333       22.122       16.234       28.945      489.400      263.532      837.818        1.353        0.080      148.549       17.298        0.014      332.884        1.838      862.339
11/27/2013  08:10:00      114.624       91.093       50.091       41.961       31.234       41.892     1760.730      975.554     1754.949        1.422        0.225      146.412       31.951        0.048      332.846        1.775      862.338
11/27/2013  08:11:00      108.387       69.645       55.853       53.113       38.603       27.297     2820.971     1490.154      745.113        1.239        0.253      128.834       18.515        0.021      332.855        1.790      862.340
11/27/2013  08:12:00      109.416       81.107       48.002       29.813       24.467       31.610      888.801      598.656      999.212        1.167        0.124      136.199       23.239        0.029      332.802        1.701      862.338
11/27/2013  08:13:00      121.160       84.222       37.703       33.826       23.399       31.672     1144.210      547.517     1003.085        1.294        0.135      147.557       18.627        0.016      332.821        1.733      862.320
11/27/2013  08:14:00      108.062       76.214       36.757       39.563       31.595       31.857     1565.209      998.237     1014.886        1.121        0.179      132.234       13.188        0.010      332.832        1.751      862.311
11/27/2013  08:15:00       97.031       72.553       38.999       41.411       33.542       36.480     1714.860     1125.067     1330.815        1.018        0.209      121.157       29.685        0.060      332.877        1.826      862.304
11/27/2013  08:16:00       88.407       75.847       47.827       35.945       26.146       23.627     1292.060      683.613      558.238        0.919        0.127      116.484       18.088        0.024      332.946        1.940      862.327
11/27/2013  08:17:00       66.806       45.142       45.706       34.822       34.022       25.349     1212.540     1157.516      642.568        0.580        0.151       80.628       13.212        0.027      333.032        2.082      862.354
11/27/2013  08:18:00       15.448       36.750       40.592       50.040       41.640       23.960     2503.981     1733.877      574.059        0.402        0.241       39.865       11.442        0.082      333.181        2.327      862.377
11/27/2013  08:19:00       24.685       39.843       50.478       44.046       33.762       24.022     1940.049     1139.891      577.052        0.420        0.183       46.870       13.367        0.081      333.237        2.420      862.406
11/27/2013  08:20:00       47.883       38.279       48.808       25.465       26.706       25.629      648.453      713.193      656.863        0.408        0.101       61.303       11.928        0.038      333.214        2.381      862.428
11/27/2013  08:21:00       36.367       33.039       39.482       35.869       35.412       23.150     1286.553     1254.007      535.942        0.352        0.154       49.134       14.690        0.089      333.194        2.347      862.431
11/27/2013  08:22:00       38.095       10.946       29.130       22.643       40.754       25.780      512.725     1660.919      664.633        0.263        0.142       39.637       27.117        0.468      333.269        2.473      862.438
11/27/2013  08:23:00       50.284       55.051       40.021       28.891       16.060       19.520      834.704      257.922      381.030        0.432        0.074       74.559       15.985        0.046      333.120        2.228      862.444
11/27/2013  08:24:00        6.437       16.026       17.364       24.655       16.897       13.207      607.846      285.503      174.437        0.083        0.053       17.271        7.783        0.203      333.274        2.481      862.436
11/27/2013  08:25:00        7.743      -33.705       13.776       32.641       36.488       22.274     1065.457     1331.370      496.146        0.214        0.145       34.583       12.077        0.122      333.424        2.729      862.429
11/27/2013  08:26:00        6.883      -51.818       12.334       25.154       31.914       23.904      632.707     1018.494      571.424        0.255        0.111       52.273       15.272        0.085      333.398        2.687      862.431
11/27/2013  08:27:00       -6.917      -26.538       18.659       19.923       31.726       19.282      396.938     1006.514      371.784        0.144        0.089       27.425       10.290        0.141      333.431        2.741      862.434
11/27/2013  08:28:00      -23.104       28.764       14.882       28.408       29.945       23.607      807.009      896.691      557.271        0.192        0.113       36.894       15.315        0.172      333.296        2.518      862.431
11/27/2013  08:29:00      -64.842      -43.922        6.862       65.679       45.764       25.471     4313.737     2094.299      648.761        0.662        0.353       78.317       23.491        0.090      333.258        2.455      862.429
11/27/2013  08:30:00      -94.121      -66.090      -14.753       35.990       33.907       20.969     1295.271     1149.668      439.694        0.816        0.144      115.007       15.454        0.018      333.138        2.257      862.434
11/27/2013  08:31:00      -56.216      -48.605       -1.306       37.400       36.462       22.019     1398.755     1329.512      484.838        0.437        0.161       74.315       10.627        0.020      333.175        2.318      862.417
11/27/2013  08:32:00      -91.263      -75.202       -6.583       39.900       31.828       17.722     1592.030     1012.998      314.084        0.847        0.146      118.255       13.200        0.012      333.141        2.262      862.397
11/27/2013  08:33:00     -107.828      -84.252      -10.641       23.167       27.776       15.455      536.717      771.509      238.851        1.019        0.077      136.840        7.447        0.003      333.112        2.215      862.379
11/27/2013  08:34:00      -78.430      -58.034       -0.199       21.508       27.803       17.082      462.591      772.992      291.786        0.552        0.076       97.566       14.761        0.023      333.209        2.373      862.358
11/27/2013  08:35:00      -57.351      -62.342       -3.631       32.857       20.355       15.975     1079.614      414.330      255.206        0.447        0.087       84.709       13.618        0.026      333.254        2.448      862.356
11/27/2013  08:36:00      -11.355      -56.807        0.496       10.993       24.559        8.855      120.854      603.156       78.413        0.208        0.040       57.930        2.264        0.002      333.253        2.445      862.368
11/27/2013  08:37:00      -38.602      -56.091       -4.672       13.815       13.913        6.694      190.846      193.561       44.809        0.254        0.021       68.090        5.858        0.007      333.287        2.503      862.384
11/27/2013  08:38:00      -58.115      -70.669       -5.324       27.371       18.707       13.294      749.156      349.935      176.739        0.484        0.064       91.496        7.580        0.007      333.355        2.615      862.393
11/27/2013  08:39:00      -78.582      -34.846       -4.275       39.633       27.091       14.825     1570.799      733.932      219.768        0.497        0.126       85.962        8.088        0.009      333.439        2.753      862.379
11/27/2013  08:40:00      -73.956      -32.615        1.412       37.437       23.757       18.401     1401.542      564.377      338.580        0.442        0.115       80.829       11.753        0.021      333.458        2.785      862.389
11/27/2013  08:41:00       -3.727      -24.745       26.168       30.463       27.313       26.804      927.990      746.005      718.471        0.185        0.120       25.025       17.556        0.492      333.764        3.293      862.388
11/27/2013  08:42:00       -6.009      -10.951       19.052       22.488       19.830       19.195      505.729      393.248      368.456        0.089        0.063       12.491       17.230        1.903      334.029        3.732      862.420
11/27/2013  08:43:00      -35.507      -38.114        6.286       34.917       30.787       20.441     1219.228      947.853      417.831        0.267        0.129       52.090       20.068        0.148      333.667        3.131      862.434
11/27/2013  08:44:00      -44.970      -29.295        7.249       37.319       21.589       17.505     1392.683      466.085      306.417        0.255        0.108       53.671       17.073        0.101      333.604        3.027      862.440
11/27/2013  08:45:00      -72.473      -63.577        0.071       46.587       35.575       19.997     2170.348     1265.605      399.869        0.656        0.192       96.407       12.181        0.016      333.513        2.876      862.414
11/27/2013  08:46:00      -83.285      -50.906        0.401       42.835       29.773       19.986     1834.877      886.411      399.456        0.632        0.156       97.610       15.092        0.024      333.545        2.928      862.383
11/27/2013  08:47:00      -65.678       -3.575       -5.995       43.194       34.479       22.868     1865.708     1188.776      522.943        0.397        0.179       65.775       25.247        0.147      333.605        3.029      862.367
11/27/2013  08:48:00      -42.017       29.275       -6.747       31.610       13.694       18.454      999.180      187.518      340.543        0.210        0.076       51.210       19.714        0.148      333.689        3.168      862.344
11/27/2013  08:49:00       17.245       14.983        1.547       15.573       22.744       19.615      242.523      517.302      384.736        0.083        0.057       22.845       10.023        0.192      333.878        3.480      862.331
11/27/2013  08:50:00       19.339       44.228       -5.603       30.285       24.841       16.519      917.182      617.090      272.866        0.208        0.090       48.271       12.587        0.068      334.025        3.726      862.315
11/27/2013  08:51:00      -22.360       41.702        2.228       47.171       36.780       19.280     2225.115     1352.761      371.716        0.310        0.197       47.318       16.898        0.128      334.137        3.911      862.304
11/27/2013  08:52:00      -25.244       70.208       -9.563       29.054       32.273       26.041      844.143     1041.578      678.142        0.411        0.128       74.608       16.976        0.052      334.050        3.766      862.321
11/27/2013  08:53:00       17.875        2.228       10.936       32.071       24.078       21.022     1028.560      579.727      441.931        0.125        0.103       18.013       19.223        1.139      334.035        3.742      862.337
11/27/2013  08:54:00       36.372       26.289       27.232       17.710       14.281       20.269      313.641      203.934      410.832        0.184        0.046       44.878        6.267        0.020      333.880        3.486      862.358
11/27/2013  08:55:00       -9.780        2.878        9.000       37.610       17.240       22.211     1414.546      297.224      493.343        0.119        0.110       10.195       24.285        5.675      334.075        3.808      862.384
11/27/2013  08:56:00      -35.254        9.120        4.747       15.176       14.123       14.372      230.326      199.454      206.559        0.099        0.032       36.415       12.620        0.120      333.903        3.525      862.398
11/27/2013  08:57:00      -26.871        2.260       -4.177       19.429       20.563       15.847      377.476      422.850      251.137        0.090        0.053       26.966       13.814        0.262      334.085        3.826      862.401
11/27/2013  08:58:00       26.972       70.796       -1.916       25.641       36.405       26.763      657.457     1325.327      716.284        0.422        0.135       75.760       24.891        0.108      334.185        3.991      862.404
11/27/2013  08:59:00       11.777       39.947       11.787       15.271       31.007       22.737      233.196      961.438      516.985        0.179        0.086       41.647       19.323        0.215      334.285        4.158      862.405
11/27/2013  09:00:00       13.272       11.719       19.153       15.146       18.575       12.136      229.411      345.015      147.276        0.070        0.036       17.706        8.877        0.251      334.545        4.589      862.410
11/27/2013  09:01:00      -14.625       18.168        7.442       24.527       11.458       13.573      601.556      131.288      184.231        0.076        0.046       23.323       11.574        0.246      334.279        4.148      862.421
11/27/2013  09:02:00      -36.947      -35.288       -2.276       18.303       18.566       15.163      335.013      344.704      229.922        0.176        0.045       51.091       13.895        0.074      334.015        3.708      862.429
11/27/2013  09:03:00      -59.980      -46.812        2.200       28.550       26.060       18.425      815.095      679.131      339.474        0.381        0.092       76.085       15.765        0.043      333.985        3.659      862.425
11/27/2013  09:04:00      -75.438       -7.994       -5.545       24.542       21.921       13.903      602.323      480.538      193.302        0.353        0.064       75.860       10.309        0.018      333.949        3.600      862.394
11/27/2013  09:05:00      -66.546      -25.532       -4.326       24.701       28.163       20.235      610.144      793.143      409.459        0.346        0.091       71.276       16.566        0.054      334.081        3.817      862.353
11/27/2013  09:06:00      -52.917       -2.823       -6.373       23.538       17.476       14.801      554.016      305.427      219.061        0.196        0.054       52.992        6.012        0.013      334.117        3.879      862.315
11/27/2013  09:07:00      -17.042      -16.959       -4.745       32.535       19.722       15.809     1058.526      388.954      249.917        0.115        0.085       24.043       14.330        0.355      334.293        4.172      862.306
11/27/2013  09:08:00        1.394      -39.148        3.425       16.079       14.287       15.186      258.542      204.123      230.610        0.112        0.035       39.173        5.538        0.020      334.324        4.222      862.320
11/27/2013  09:09:00      -18.925      -15.351       -5.365       15.534       13.245       14.536      241.318      175.425      211.291        0.063        0.031       24.368        9.928        0.166      334.484        4.487      862.339
11/27/2013  09:10:00      -19.528       10.433       -1.269       12.679       12.914       10.913      160.747      166.766      119.100        0.047        0.022       22.140        7.249        0.107      334.357        4.277      862.351
11/27/2013  09:11:00      -39.160        7.897       -8.215        7.273       11.432        7.599       52.897      130.683       57.746        0.095        0.012       39.948        3.013        0.006      334.311        4.202      862.346
11/27/2013  09:12:00      -35.988       -8.306      -10.957       14.838       11.526        9.588      220.174      132.841       91.925        0.096        0.022       36.934        4.052        0.012      334.279        4.147      862.332
11/27/2013  09:13:00        2.047      -13.663        7.627       28.738       39.504       25.706      825.891     1560.576      660.775        0.165        0.152       13.815        9.412        0.464      334.641        4.747      862.335
11/27/2013  09:14:00       67.397       61.734       53.998       35.496       48.311       28.630     1260.001     2333.972      819.690        0.784        0.221       91.397       18.908        0.043      334.767        4.957      862.322
11/27/2013  09:15:00       59.869       80.637       66.810       68.189       42.426       38.238     4649.675     1799.980     1462.114        1.123        0.396      100.432       41.550        0.171      334.754        4.936      862.314
11/27/2013  09:16:00      108.342       77.809       25.065       36.655       30.276       25.290     1343.622      916.627      639.570        1.066        0.145      133.387       17.374        0.017      334.358        4.278      862.299
11/27/2013  09:17:00      107.065       45.015       35.800       65.078       50.206       43.661     4235.194     2520.612     1906.317        1.171        0.433      116.143       31.794        0.075      334.666        4.789      862.262
11/27/2013  09:18:00       76.991       58.814       16.960       50.176       44.630       32.655     2517.667     1991.867     1066.359        0.762        0.279       96.885       27.835        0.083      334.577        4.642      862.229
11/27/2013  09:19:00       43.946       43.696       41.569       53.831       38.588       31.133     2897.821     1489.060      969.234        0.546        0.268       61.973       15.472        0.062      334.949        5.259      862.218
11/27/2013  09:20:00      120.530       87.348       15.639       33.920       36.450       35.323     1150.572     1328.580     1247.739        1.306        0.186      148.853       19.675        0.017      334.568        4.627      862.209
11/27/2013  09:21:00        9.810       34.633       72.548       34.092       55.711       29.580     1162.296     3103.688      875.004        0.585        0.257       35.995       21.913        0.371      335.091        5.496      862.206
11/27/2013  09:22:00      -15.402       35.274       56.635       24.025       38.745       30.826      577.184     1501.200      950.255        0.386        0.151       38.490       19.939        0.268      335.095        5.502      862.195
11/27/2013  09:23:00       25.145       44.007       38.692       44.144       24.197       31.017     1948.665      585.481      962.052        0.378        0.175       50.684       19.830        0.153      335.152        5.597      862.184
11/27/2013  09:24:00       34.240       50.972       24.629       25.116       29.909       32.344      630.821      894.553     1046.133        0.347        0.129       61.404       19.086        0.097      334.926        5.222      862.176
11/27/2013  09:25:00       63.233       79.084        4.242       30.658       24.162       39.270      939.901      583.806     1542.143        0.667        0.153      101.255       18.597        0.034      334.797        5.007      862.177
11/27/2013  09:26:00       11.093       19.317       18.410       18.181       21.888       21.732      330.546      479.105      472.281        0.106        0.064       22.276       14.928        0.449      335.133        5.566      862.193
11/27/2013  09:27:00       30.975       73.623        1.187       50.819       41.444       32.426     2582.573     1717.591     1051.449        0.587        0.268       79.873       29.224        0.134      334.860        5.112      862.205
11/27/2013  09:28:00       71.500       39.914       16.174       25.687       23.435       22.862      659.839      549.202      522.687        0.435        0.087       81.886        9.769        0.014      334.686        4.823      862.218
11/27/2013  09:29:00       46.755       67.137       54.802       45.241       33.792       34.755     2046.735     1141.880     1207.907        0.705        0.220       81.813       27.863        0.116      334.878        5.141      862.228
11/27/2013  09:30:00       34.063       45.891       58.635       55.264       42.245       30.947     3054.067     1784.633      957.723        0.625        0.290       57.151       26.931        0.222      335.009        5.359      862.232
11/27/2013  09:31:00       55.318       64.027       53.610       44.542       29.882       33.411     1984.024      892.920     1116.294        0.701        0.200       84.614       27.454        0.105      334.884        5.152      862.221
11/27/2013  09:32:00       51.977       67.582       46.640       37.703       31.534       32.740     1421.485      994.370     1071.897        0.647        0.174       85.258       21.221        0.062      334.989        5.326      862.206
11/27/2013  09:33:00       98.537       98.579       59.478       28.256       25.417       35.089      798.421      646.042     1231.223        1.282        0.134      139.382       22.945        0.027      334.695        4.837      862.200
11/27/2013  09:34:00       67.250       80.479       51.063       34.468       21.644       25.996     1188.072      468.472      675.787        0.797        0.117      104.878       22.984        0.048      334.797        5.007      862.208
11/27/2013  09:35:00       54.625       26.481       34.437       37.965       48.285       33.622     1441.350     2331.439     1130.426        0.489        0.245       60.705       31.707        0.273      335.054        5.433      862.210
11/27/2013  09:36:00       21.094        5.043       37.250       34.695       60.559       30.345     1203.719     3667.403      920.830        0.382        0.290       21.689       36.000        2.755      335.406        6.018      862.217
11/27/2013  09:37:00       63.407      -86.686       13.020       43.144       46.330       48.593     1861.415     2146.473     2361.282        0.904        0.318      107.400       21.311        0.039      335.213        5.698      862.209
11/27/2013  09:38:00       56.215       22.530       48.557       57.068       82.551       41.830     3256.788     6814.690     1749.775        0.892        0.591       60.561       30.877        0.260      335.211        5.695      862.198
11/27/2013  09:39:00       80.694       33.133       28.137       45.036       37.375       32.806     2028.250     1396.896     1076.227        0.645        0.225       87.231       23.359        0.072      334.941        5.247      862.191
11/27/2013  09:40:00       26.313       20.679       35.820       37.925       35.231       32.493     1438.280     1241.201     1055.770        0.307        0.187       33.466       22.555        0.454      335.447        6.087      862.182
11/27/2013  09:41:00       91.000       61.177        9.785       52.760       42.492       39.003     2783.632     1805.590     1521.224        0.911        0.306      109.652       11.621        0.011      335.199        5.673      862.169
11/27/2013  09:42:00      100.460       75.716       -1.419       39.988       25.354       24.665     1599.074      642.846      608.359        0.934        0.143      125.798       13.586        0.012      335.052        5.432      862.144
11/27/2013  09:43:00       63.556       29.409       12.009       44.949       37.881       32.319     2020.411     1434.939     1044.531        0.477        0.225       70.030       14.065        0.040      335.163        5.615      862.105
11/27/2013  09:44:00       97.935       68.513        4.405       58.370       32.347       33.147     3407.003     1046.326     1098.721        0.993        0.278      119.521       17.855        0.022      335.018        5.374      862.073
11/27/2013  09:45:00       82.075       85.933       15.576       41.391       35.024       34.684     1713.192     1226.713     1202.966        0.925        0.207      118.831       21.517        0.033      335.005        5.351      862.035
11/27/2013  09:46:00       -0.043       28.170       80.161       44.269       49.325       34.844     1959.785     2433.001     1214.085        0.641        0.280       28.170       30.241        1.152      335.506        6.186      862.032
11/27/2013  09:47:00       43.845       49.316       25.693       39.900       35.026       39.664     1592.047     1226.800     1573.208        0.470        0.220       65.989       32.700        0.246      335.051        5.428      862.038
11/27/2013  09:48:00       -7.539      -48.040        0.100       22.319       24.767       19.663      498.136      613.396      386.620        0.193        0.075       48.628       16.956        0.122      335.093        5.498      862.025
11/27/2013  09:49:00      -54.712      -55.766       -3.492       32.452       20.070       19.226     1053.161      402.808      369.643        0.397        0.091       78.124       18.013        0.053      335.001        5.346      862.011
11/27/2013  09:50:00      -62.743       -1.955       -3.070       28.894       25.848       15.052      834.836      668.120      226.565        0.284        0.086       62.773        7.546        0.014      335.019        5.376      861.987
11/27/2013  09:51:00      -49.805        4.855        1.744       30.572       21.169       14.445      934.677      448.107      208.655        0.205        0.080       50.041       11.994        0.057      335.127        5.556      861.947
11/27/2013  09:52:00      -55.068       43.847       -3.515       26.015       29.521       18.674      676.782      871.461      348.733        0.343        0.095       70.392       16.955        0.058      335.284        5.815      861.917
11/27/2013  09:53:00      -53.860       15.152       -5.284       19.597       18.625       14.175      384.028      346.887      200.932        0.204        0.047       55.951        5.923        0.011      335.314        5.866      861.904
11/27/2013  09:54:00      -27.244       -1.674       17.679       20.449       21.953       21.981      418.170      481.917      483.148        0.122        0.069       27.296       18.398        0.454      335.697        6.504      861.911
11/27/2013  09:55:00       15.909      -40.127       49.171       34.398       51.871       27.510     1183.215     2690.554      756.820        0.445        0.232       43.166       14.389        0.111      335.773        6.630      861.923
11/27/2013  09:56:00       31.457       18.288       42.292       44.891       36.358       36.606     2015.229     1321.873     1340.010        0.389        0.234       36.387       25.639        0.497      335.606        6.351      861.920
11/27/2013  09:57:00      -21.600      -34.507       29.683       23.731       51.125       30.529      563.152     2613.723      932.002        0.332        0.205       40.710       33.758        0.688      335.663        6.446      861.911
11/27/2013  09:58:00      -14.975      -21.816       17.248       27.523       31.827       24.385      757.539     1012.967      594.627        0.168        0.118       26.461       21.219        0.643      335.607        6.352      861.913
11/27/2013  09:59:00       -8.469       -1.522       29.024       23.053       24.206       18.831      531.423      585.930      354.594        0.119        0.074        8.605       13.181        2.346      336.053        7.096      861.896
11/27/2013  10:00:00      -14.659        2.511       14.399       26.803       34.619       20.922      718.390     1198.465      437.747        0.139        0.118       14.872       21.737        2.136      335.681        6.477      861.873
11/27/2013  10:01:00        6.938        3.607       14.803       31.461       38.269       21.698      989.823     1464.518      470.788        0.160        0.146        7.819       13.014        2.770      335.649        6.423      861.858
11/27/2013  10:02:00        2.811       11.695       24.582       20.528       22.470       16.771      421.416      504.909      281.254        0.098        0.060       12.028       11.980        0.992      335.736        6.569      861.848
11/27/2013  10:03:00       13.884       33.875       27.894       42.310       37.050       22.765     1790.124     1372.680      518.261        0.290        0.184       36.610       26.541        0.526      335.476        6.135      861.832
11/27/2013  10:04:00      -77.215      -52.205       -3.481       36.849       40.037       23.437     1357.867     1602.981      549.290        0.610        0.176       93.206       13.699        0.022      335.436        6.068      861.826
11/27/2013  10:05:00      -75.907      -83.247       -0.719       40.693       31.736       24.800     1655.915     1007.184      615.029        0.798        0.164      112.658       20.143        0.032      335.207        5.687      861.797
11/27/2013  10:06:00      -36.903      -38.200        0.210       24.698       38.641       14.304      609.990     1493.139      204.599        0.256        0.115       53.114       14.628        0.076      335.193        5.663      861.760
11/27/2013  10:07:00      -72.399       -9.167        5.173       17.058       21.175       16.865      290.988      448.387      284.420        0.319        0.051       72.977        9.061        0.015      335.213        5.696      861.730
11/27/2013  10:08:00      -43.428      -79.161      -10.205       35.300       29.537       20.891     1246.070      872.451      436.445        0.541        0.128       90.291        8.086        0.008      335.250        5.760      861.715
11/27/2013  10:09:00      -37.895      -36.054       10.971       34.635       34.196       25.535     1199.589     1169.398      652.039        0.294        0.151       52.306       23.057        0.194      335.431        6.059      861.716
11/27/2013  10:10:00      -25.547      -36.906       10.832       47.102       26.791       22.643     2218.634      717.765      512.689        0.279        0.172       44.886       24.090        0.288      335.487        6.154      861.713
11/27/2013  10:11:00     -107.078      -29.214       -4.351       61.915       40.969       24.441     3833.479     1678.467      597.367        0.922        0.305      110.992       16.994        0.023      335.373        5.963      861.724
11/27/2013  10:12:00      -93.990      -34.427       -7.740       43.921       18.875       21.202     1929.058      356.257      449.539        0.641        0.137      100.097       21.962        0.048      335.315        5.865      861.745
11/27/2013  10:13:00      -69.394      -75.603       -3.983       21.764       26.917       15.674      473.690      724.500      245.662        0.600        0.072      102.623       12.396        0.015      335.300        5.841      861.752
11/27/2013  10:14:00      -27.505      -24.564        4.460       38.177       23.701       17.793     1457.488      561.746      316.592        0.186        0.117       36.877       19.563        0.281      335.456        6.102      861.748
11/27/2013  10:15:00      -51.061        0.885        1.557       23.559       10.180       10.624      555.047      103.630      112.876        0.169        0.039       51.069        8.399        0.027      335.362        5.945      861.722
11/27/2013  10:16:00      -37.987      -13.534        4.564       19.407       31.137       13.901      376.626      969.537      193.250        0.159        0.077       40.326       11.191        0.077      335.502        6.177      861.689
11/27/2013  10:17:00      -23.479      -48.576       -3.141       29.427       41.856       16.214      865.921     1751.955      262.883        0.290        0.144       53.953        9.691        0.032      335.422        6.043      861.641
11/27/2013  10:18:00      -54.157      -19.135      -11.585       40.643       48.811       20.342     1651.867     2382.481      413.790        0.394        0.222       57.438       19.265        0.113      335.433        6.064      861.588
11/27/2013  10:19:00      -51.196      -40.862        4.053       26.670       16.993       18.999      711.285      288.767      360.963        0.283        0.068       65.504       11.850        0.033      335.464        6.116      861.563
11/27/2013  10:20:00      -31.238      -53.751       -0.991       24.705       24.069       18.067      610.356      579.305      326.410        0.269        0.076       62.169       11.602        0.035      335.451        6.093      861.529
11/27/2013  10:21:00      -21.998      -47.593        4.518       14.432       19.053       21.014      208.272      363.031      441.569        0.189        0.051       52.431       12.143        0.054      335.523        6.213      861.517
11/27/2013  10:22:00      -21.927      -71.613      -16.397       30.956       28.460       22.924      958.282      809.955      525.498        0.409        0.115       74.894       12.942        0.030      335.538        6.239      861.504
11/27/2013  10:23:00      -42.559      -45.640        7.215       22.014       27.605       17.285      484.598      762.034      298.764        0.275        0.077       62.404        8.551        0.019      335.599        6.341      861.519
11/27/2013  10:24:00      -17.538       -7.522        2.566       22.992       15.590       12.703      528.625      243.045      161.375        0.065        0.047       19.083       14.119        0.547      335.889        6.825      861.555
11/27/2013  10:25:00      -36.539       -3.544        7.277       19.950       25.375       22.658      398.009      643.885      513.408        0.148        0.078       36.711       17.605        0.230      336.015        7.034      861.587
11/27/2013  10:26:00        9.605      -75.327       -0.030       48.309       62.630       42.851     2333.757     3922.497     1836.250        0.693        0.405       75.937       44.465        0.343      336.090        7.159      861.620
11/27/2013  10:27:00       -1.550       40.827       72.672       23.638       44.226       26.347      558.735     1955.929      694.185        0.508        0.160       40.856       24.136        0.349      336.545        7.918      861.651
11/27/2013  10:28:00       45.758       60.974       42.594       31.643       30.347       28.225     1001.254      920.966      796.625        0.517        0.136       76.234       21.231        0.078      335.857        6.771      861.655
11/27/2013  10:29:00       17.733      -65.186       -5.679       42.376       41.717       21.167     1795.757     1740.296      448.058        0.429        0.199       67.555       23.216        0.118      335.970        6.958      861.637
11/27/2013  10:30:00       20.395      -98.581      -14.006       51.358       26.868       30.038     2637.689      721.894      902.308        0.730        0.213      100.668       16.467        0.027      335.869        6.791      861.629
11/27/2013  10:31:00       10.939      -57.749        7.945       52.045       41.742       40.159     2708.710     1742.387     1612.745        0.479        0.303       58.776       31.203        0.282      336.010        7.024      861.613
11/27/2013  10:32:00      -33.647      -14.321       25.008       38.933       30.777       18.576     1515.781      947.235      345.049        0.238        0.140       36.568       19.497        0.284      336.040        7.075      861.624
11/27/2013  10:33:00      -17.120      -16.880       10.901       34.514       36.548       31.581     1191.209     1335.726      997.350        0.211        0.176       24.043       32.460        1.823      336.099        7.175      861.635
11/27/2013  10:34:00       29.522      -26.365       11.769       29.297       40.999       28.290      858.297     1680.945      800.296        0.252        0.167       39.581       29.631        0.560      336.195        7.333      861.617
11/27/2013  10:35:00       19.200      -14.547       16.194       31.335       34.389       30.666      981.883     1182.636      940.409        0.197        0.155       24.088       29.125        1.462      336.266        7.451      861.599
11/27/2013  10:36:00      -13.896       17.607       29.193       19.851       15.780       20.400      394.069      249.019      416.154        0.121        0.053       22.430       12.171        0.294      336.398        7.673      861.583
11/27/2013  10:37:00      -33.286       21.050       15.716       28.460       19.824       15.081      809.976      393.003      227.449        0.161        0.072       39.384       13.965        0.126      336.190        7.325      861.557
11/27/2013  10:38:00      -16.659      -17.161       -2.040       18.814       22.143       12.277      353.948      490.295      150.718        0.079        0.050       23.917        5.316        0.049      335.983        6.980      861.536
11/27/2013  10:39:00       -3.057      -33.833        1.971       32.172       26.334       16.799     1035.041      693.500      282.191        0.158        0.101       33.971       15.886        0.219      336.014        7.032      861.525
11/27/2013  10:40:00      -83.040      -90.427       -2.562       35.607       22.724       25.651     1267.885      516.389      657.989        0.876        0.122      122.771       19.462        0.025      335.699        6.507      861.517
11/27/2013  10:41:00      -67.017      -59.928       -5.410       17.818       22.169       12.905      317.489      491.456      166.543        0.454        0.049       89.903        9.592        0.011      335.604        6.347      861.498
11/27/2013  10:42:00      -46.156      -44.798        3.314       27.220       21.296       19.803      740.907      453.517      392.147        0.287        0.079       64.322       14.900        0.054      335.726        6.553      861.498
11/27/2013  10:43:00      -24.523      -55.597        2.368       17.385       22.837       13.485      302.251      521.520      181.853        0.235        0.050       60.765       10.858        0.032      335.687        6.488      861.503
11/27/2013  10:44:00      -11.982      -44.327       -2.195        8.893       10.667        7.669       79.084      113.785       58.819        0.118        0.013       45.918        5.780        0.016      335.590        6.327      861.524
11/27/2013  10:45:00      -26.303      -24.558       -1.821       16.511       15.780        9.539      272.625      249.001       91.001        0.096        0.031       35.985        6.559        0.033      335.730        6.559      861.533
11/27/2013  10:46:00       20.452       21.864       -7.858       23.562       17.090       16.564      555.152      292.060      274.355        0.104        0.056       29.939       11.066        0.137      335.825        6.717      861.557
11/27/2013  10:47:00      -33.869      -13.128        1.954       28.940       29.866       24.475      837.510      891.953      599.004        0.183        0.116       36.324       15.722        0.187      335.975        6.968      861.589
11/27/2013  10:48:00       -4.077       -9.659       19.989       29.617       41.507       20.392      877.147     1722.828      415.844        0.176        0.151       10.484       13.618        1.687      336.144        7.249      861.607
11/27/2013  10:49:00       26.836      -49.636        8.365       38.202       58.794       37.139     1459.392     3456.746     1379.315        0.477        0.315       56.426       23.301        0.171      336.054        7.098      861.606
11/27/2013  10:50:00       37.345       10.555       51.562       40.870       85.511       44.786     1670.371     7312.067     2005.824        0.757        0.549       38.808       55.224        2.025      336.079        7.140      861.584
11/27/2013  10:51:00       65.918       51.355       32.518       50.192       31.378       33.747     2519.204      984.560     1138.837        0.634        0.232       83.562       20.735        0.062      335.897        6.838      861.552
11/27/2013  10:52:00       12.602       31.025       44.934       34.955       40.653       24.112     1221.838     1652.639      581.411        0.330        0.173       33.487       27.065        0.653      336.070        7.124      861.521
11/27/2013  10:53:00       23.465      -57.496        2.498       34.833       49.715       26.359     1213.349     2471.541      694.821        0.412        0.219       62.100       29.525        0.226      336.095        7.167      861.494
11/27/2013  10:54:00       59.694       59.978       55.373       38.639       37.546       30.975     1492.970     1409.686      959.472        0.704        0.193       84.621       20.652        0.060      336.099        7.173      861.471
11/27/2013  10:55:00       94.288       56.136       43.891       39.143       38.696       29.238     1532.207     1497.348      854.886        0.893        0.194      109.733       19.743        0.032      335.753        6.598      861.456
11/27/2013  10:56:00       66.378       68.962       51.918       35.526       27.662       37.327     1262.080      765.213     1393.328        0.764        0.171       95.717       23.595        0.061      335.924        6.882      861.448
11/27/2013  10:57:00       86.079       91.288       56.972       45.669       34.564       35.240     2085.667     1194.701     1241.872        1.175        0.226      125.471       24.943        0.040      335.931        6.892      861.443
11/27/2013  10:58:00       98.781      101.592       63.163       39.960       33.175       36.139     1596.786     1100.552     1305.994        1.403        0.200      141.699       23.688        0.028      335.788        6.655      861.428
11/27/2013  10:59:00       68.316       69.631       87.464       49.790       48.771       29.660     2479.060     2378.577      879.702        1.145        0.287       97.547       30.442        0.097      335.933        6.895      861.438
11/27/2013  11:00:00      104.644       93.219       71.564       55.063       49.106       37.137     3031.988     2411.409     1379.132        1.579        0.341      140.144       37.435        0.071      335.852        6.762      861.448
11/27/2013  11:01:00       89.929       87.496       83.652       52.547       39.128       36.268     2761.230     1530.969     1315.368        1.417        0.280      125.471       28.356        0.051      335.897        6.836      861.467
11/27/2013  11:02:00      117.643       93.763       54.265       36.570       37.396       41.849     1337.330     1398.471     1751.344        1.503        0.224      150.437       26.850        0.032      335.859        6.774      861.489
11/27/2013  11:03:00      105.977      106.804       78.459       48.044       32.573       41.373     2308.270     1060.987     1711.744        1.694        0.254      150.460       34.722        0.053      335.900        6.841      861.503
11/27/2013  11:04:00       19.679      -16.106       22.235       67.691       74.008       33.802     4582.105     5477.153     1142.601        0.617        0.560       25.430       23.279        0.838      336.093        7.162      861.515
11/27/2013  11:05:00       60.086      -70.967       19.885       61.355       89.362       57.465     3764.470     7985.593     3302.267        1.204        0.753       92.987       65.038        0.489      336.267        7.454      861.517
11/27/2013  11:06:00       14.701       16.676       47.741       27.844       38.284       37.804      775.268     1465.694     1429.134        0.322        0.184       22.230       11.378        0.262      336.451        7.761      861.515
11/27/2013  11:07:00        2.522       26.165       67.258       43.350       58.405       31.101     1879.218     3411.122      967.273        0.573        0.313       26.286       20.201        0.591      336.350        7.592      861.487
11/27/2013  11:08:00       11.700        5.952       43.232       54.453       56.253       25.164     2965.170     3164.405      633.206        0.440        0.338       13.127       24.076        3.364      336.458        7.773      861.449
11/27/2013  11:09:00        4.007       -4.468       41.817       25.753       45.517       23.205      663.234     2071.794      538.461        0.253        0.164        6.002       23.792       15.714      336.525        7.886      861.406
11/27/2013  11:10:00       60.507       36.041       19.290       48.300       39.570       31.427     2332.928     1565.772      987.677        0.511        0.244       70.428       24.976        0.126      336.151        7.260      861.363
11/27/2013  11:11:00        4.062       20.793       29.378       31.699       37.835       19.541     1004.826     1431.509      381.850        0.206        0.141       21.187       12.410        0.343      336.330        7.559      861.317
11/27/2013  11:12:00       23.813      -21.284       26.220       23.404       26.679       22.148      547.758      711.780      490.526        0.173        0.088       31.938       19.377        0.368      336.192        7.328      861.287
11/27/2013  11:13:00      -62.008      -20.942       -4.353       22.239       25.469       22.393      494.570      648.676      501.458        0.297        0.082       65.449       15.074        0.053      335.992        6.993      861.250
11/27/2013  11:14:00      -75.227        5.202       -3.538       25.973       15.208       16.919      674.585      231.293      286.259        0.345        0.060       75.407       15.281        0.041      335.907        6.853      861.231
11/27/2013  11:15:00       -0.381       15.490       17.379       24.674       17.793       16.833      608.802      316.602      283.343        0.088        0.060       15.494       13.234        0.729      336.568        7.957      861.212
11/27/2013  11:16:00       25.700       26.332        2.235       16.897       24.230       24.840      285.500      587.097      617.026        0.142        0.074       36.795       14.779        0.161      336.208        7.357      861.184
11/27/2013  11:17:00        9.245       69.416       -5.407       22.853       56.954       27.741      522.271     3243.782      769.570        0.473        0.227       70.029       33.555        0.230      336.292        7.496      861.125
11/27/2013  11:18:00      -25.154      138.793      -17.226       38.308       48.634       21.772     1467.535     2365.263      474.004        1.225        0.215      141.053       22.738        0.026      336.261        7.443      861.046
11/27/2013  11:19:00      -23.293      117.333      -16.517       24.851       27.240       18.219      617.558      742.022      331.948        0.814        0.085      119.623       10.912        0.008      336.023        7.045      860.978
11/27/2013  11:20:00       24.557       98.015      -13.644       28.241       36.790       29.350      797.559     1353.484      861.450        0.670        0.151      101.044       17.101        0.029      336.344        7.583      860.906
11/27/2013  11:21:00       37.559       68.531        3.697       42.173       32.848       31.521     1778.553     1078.992      993.584        0.499        0.193       78.149       24.542        0.099      336.380        7.643      860.848
11/27/2013  11:22:00      -46.340       43.004        9.163       24.409       39.001       27.384      595.794     1521.086      749.891        0.347        0.143       63.219       23.560        0.139      336.548        7.925      860.815
11/27/2013  11:23:00      -58.452       95.008      -19.845       34.759       43.446       31.033     1208.210     1887.558      963.021        0.845        0.203      111.548       27.233        0.060      336.386        7.653      860.802
11/27/2013  11:24:00       -0.462       91.298       -4.423       41.648       69.967       23.303     1734.516     4895.386      543.021        0.776        0.359       91.299       26.959        0.087      336.527        7.888      860.796
11/27/2013  11:25:00       27.516       89.046       -6.929       31.731       36.952       30.305     1006.851     1365.471      918.376        0.601        0.165       93.201       26.758        0.082      336.388        7.656      860.820
11/27/2013  11:26:00       79.691       31.841        3.729       12.805       21.575       27.275      163.963      465.464      743.939        0.438        0.069       85.817        7.385        0.007      336.192        7.328      860.835
11/27/2013  11:27:00       43.919       52.350       11.246       33.529       27.327       15.697     1124.224      746.777      246.386        0.346        0.106       68.333        8.318        0.015      336.278        7.471      860.832
11/27/2013  11:28:00       57.468       51.186       23.883       43.292       35.133       32.567     1874.169     1234.345     1060.599        0.533        0.208       76.958       23.877        0.096      336.713        8.199      860.832
11/27/2013  11:29:00       52.917       40.718       20.776       48.585       39.070       29.655     2360.461     1526.438      879.429        0.483        0.238       66.770       27.375        0.168      336.862        8.449      860.812
11/27/2013  11:30:00       77.091       80.913        1.094       32.699       46.346       40.433     1069.215     2147.944     1634.817        0.867        0.243      111.758       34.503        0.095      336.603        8.016      860.784
11/27/2013  11:31:00       59.010       84.441      -18.945       27.397       34.868       20.554      750.573     1215.764      422.478        0.668        0.119      103.017       20.378        0.039      336.441        7.744      860.760
11/27/2013  11:32:00       39.839       -5.340       -3.492       18.235       12.760       11.372      332.523      162.824      129.318        0.113        0.031       40.195        5.355        0.018      336.433        7.731      860.750
11/27/2013  11:33:00       19.891       31.973       -4.365       19.660       21.706       23.896      386.512      471.133      571.036        0.143        0.071       37.655       14.265        0.144      336.789        8.326      860.739
11/27/2013  11:34:00       11.339       46.057        8.227       25.738       43.043       22.515      662.458     1852.698      506.915        0.267        0.151       47.433       21.786        0.211      336.998        8.676      860.732
11/27/2013  11:35:00      -12.600       58.963       62.033       29.216       61.951       70.897      853.583     3837.885     5026.450        0.860        0.486       60.294       56.862        0.889      337.216        9.040      860.717
11/27/2013  11:36:00      119.843      115.078       61.358       71.238       42.274       55.818     5074.860     1787.126     3115.630        2.067        0.499      166.149       55.397        0.111      336.615        8.034      860.707
11/27/2013  11:37:00       83.300       66.104       40.817       50.417       55.346       34.459     2541.841     3063.154     1187.432        0.988        0.340      106.342       27.934        0.069      336.837        8.406      860.679
11/27/2013  11:38:00      110.485       13.791       13.834       48.946       43.488       30.944     2395.740     1891.209      957.553        0.892        0.262      111.343       14.455        0.017      336.685        8.153      860.644
11/27/2013  11:39:00       63.868      -51.120        2.429       38.989       38.328       25.771     1520.167     1469.037      664.161        0.518        0.183       81.807       15.914        0.038      336.598        8.008      860.632
11/27/2013  11:40:00       70.674        0.952       17.855       55.563       47.155       38.771     3087.252     2223.587     1503.192        0.606        0.341       70.681       31.598        0.200      337.190        8.998      860.615
11/27/2013  11:41:00       31.812       21.083       19.283       38.889       28.070       36.740     1512.349      787.946     1349.796        0.274        0.183       38.164       21.579        0.320      337.285        9.154      860.625
11/27/2013  11:42:00       47.397       18.612       37.496       46.334       22.441       21.906     2146.819      503.607      479.879        0.356        0.157       50.920       19.086        0.140      337.355        9.273      860.623
11/27/2013  11:43:00       75.780      -98.219       -2.336       51.699       67.519       38.877     2672.735     4558.793     1511.460        1.207        0.437      124.054       50.104        0.163      337.003        8.686      860.632
11/27/2013  11:44:00       46.486      -94.531       -5.076       49.176       44.171       26.342     2418.231     1951.054      693.894        0.809        0.253      105.343       20.049        0.036      337.108        8.860      860.617
11/27/2013  11:45:00       51.856       82.409       90.550       74.344       66.385       61.933     5527.080     4406.948     3835.700        1.572        0.688       97.366       45.313        0.217      337.042        8.749      860.609
11/27/2013  11:46:00       82.121       75.801       59.770       67.376       50.698       46.903     4539.467     2570.280     2199.845        1.268        0.465      111.757       39.629        0.126      336.927        8.556      860.593
11/27/2013  11:47:00       67.602       73.860        1.241       57.935       44.147       38.441     3356.443     1948.930     1477.695        0.840        0.339      100.126       34.214        0.117      336.793        8.334      860.566
11/27/2013  11:48:00       79.857       58.311       17.399       58.802       35.989       54.515     3457.641     1295.176     2971.877        0.890        0.386       98.880       48.088        0.237      336.961        8.612      860.538
11/27/2013  11:49:00       86.277       81.456       65.627       70.285       41.457       52.313     4939.978     1718.707     2736.696        1.389        0.470      118.654       53.278        0.202      336.861        8.447      860.517
11/27/2013  11:50:00       97.600       62.178       18.824       41.570       28.843       32.839     1728.034      831.936     1078.421        0.869        0.182      115.723       29.967        0.067      336.748        8.258      860.511
11/27/2013  11:51:00       -7.337       44.057       65.287       32.139       36.437       34.952     1032.933     1327.640     1221.615        0.492        0.179       44.663       25.215        0.319      337.415        9.373      860.495
11/27/2013  11:52:00       34.033      121.590      124.795       71.729       59.708       47.136     5145.017     3565.028     2221.826        2.122        0.547      126.263       38.825        0.095      337.141        8.914      860.487
11/27/2013  11:53:00       56.721      109.412       99.017       52.417       45.220       43.649     2747.572     2044.886     1905.226        1.584        0.335      123.240       38.980        0.100      336.931        8.563      860.504
11/27/2013  11:54:00       85.693       83.626       78.184       66.871       40.565       40.955     4471.664     1645.532     1677.310        1.412        0.390      119.735       39.765        0.110      336.880        8.479      860.501
11/27/2013  11:55:00       83.270       68.265       30.162       24.784       21.115       35.921      614.224      445.835     1290.329        0.743        0.118      107.675       10.014        0.009      336.727        8.224      860.486
11/27/2013  11:56:00      -10.018       61.912        2.780       30.989       23.997       28.995      960.309      575.854      840.684        0.316        0.119       62.717       11.636        0.034      337.011        8.698      860.462
11/27/2013  11:57:00       -2.156       27.576       -2.226       19.709       27.926       15.303      388.446      779.857      234.181        0.109        0.070       27.661        5.800        0.044      337.101        8.848      860.437
11/27/2013  11:58:00       12.137      -21.985       -4.426       36.086       31.424       16.951     1302.230      987.447      287.326        0.161        0.129       25.113        7.350        0.086      336.914        8.535      860.424
11/27/2013  11:59:00       26.308       -2.203       25.239       37.104       48.287       31.252     1376.728     2331.604      976.712        0.301        0.234       26.400       31.366        1.412      337.274        9.138      860.387
11/27/2013  12:00:00        5.525       17.876       33.429       30.752       26.029       27.353      945.704      677.487      748.196        0.192        0.119       18.710       18.938        1.024      337.592        9.671      860.381
11/27/2013  12:01:00       15.981       21.803       43.243       47.775       27.651       24.164     2282.439      764.576      583.890        0.312        0.182       27.033       15.612        0.334      337.512        9.536      860.370
11/27/2013  12:02:00       17.054       30.227       46.131       32.589       35.493       25.433     1062.050     1259.742      646.822        0.315        0.148       34.706       19.516        0.316      337.546        9.593      860.370
11/27/2013  12:03:00       21.073       68.649       89.687       63.841       47.351       45.685     4075.618     2242.129     2087.152        1.080        0.420       71.811       37.344        0.270      337.351        9.267      860.379
11/27/2013  12:04:00       96.382       92.368       52.804       63.404       37.901       47.885     4020.046     1436.485     2292.932        1.418        0.387      133.496       47.307        0.126      336.901        8.514      860.374
11/27/2013  12:05:00       63.435       47.765       12.705       39.049       26.000       25.766     1524.849      675.993      663.895        0.467        0.143       79.407       19.658        0.061      336.926        8.556      860.374
11/27/2013  12:06:00       41.243       47.116       16.724       46.140       44.349       39.940     2128.871     1966.853     1595.173        0.494        0.285       62.617       32.543        0.270      337.256        9.108      860.367
11/27/2013  12:07:00       11.323       14.914       19.440       22.682       20.250       21.814      514.457      410.046      475.846        0.106        0.070       18.725       14.500        0.600      337.609        9.698      860.352
11/27/2013  12:08:00        5.211       13.980       30.449       18.405       25.871       20.645      338.757      669.327      426.231        0.129        0.072       14.919       12.051        0.652      337.778        9.982      860.327
11/27/2013  12:09:00       24.298      -52.149       14.031       23.158       40.850       23.317      536.272     1668.744      543.685        0.313        0.137       57.532       15.515        0.073      337.301        9.183      860.319
11/27/2013  12:10:00       -5.055       35.337        7.052       12.865       40.029       15.721      165.505     1602.336      247.146        0.167        0.101       35.697       18.894        0.280      337.506        9.528      860.284
11/27/2013  12:11:00       17.231       25.133       16.124       19.942       23.143       15.184      397.690      535.583      230.568        0.118        0.058       30.473       14.341        0.221      337.752        9.938      860.254
11/27/2013  12:12:00      -52.204       72.968       -1.309       39.514       57.248       26.265     1561.382     3277.322      689.855        0.679        0.276       89.720       28.954        0.104      337.311        9.199      860.240
11/27/2013  12:13:00     -111.520        9.811       -9.879       33.439       24.319       25.905     1118.155      591.390      671.071        0.751        0.119      111.951       18.406        0.027      337.040        8.746      860.212
11/27/2013  12:14:00      -91.090      -18.419        1.350       32.651       37.216       22.988     1066.093     1385.048      528.437        0.581        0.149       92.934       14.980        0.026      337.155        8.940      860.191
11/27/2013  12:15:00      -68.237      -24.063        1.156       43.123       39.397       25.000     1859.594     1552.117      625.023        0.464        0.202       72.356       21.212        0.086      337.325        9.223      860.185
11/27/2013  12:16:00       28.650      -37.880       22.904       25.984       25.663       23.301      675.146      658.564      542.950        0.233        0.094       47.494       14.682        0.096      337.463        9.453      860.164
11/27/2013  12:17:00        6.675        9.169       18.125       19.030       26.430       19.565      362.138      698.535      382.784        0.095        0.072       11.341        8.230        0.527      338.176       10.650      860.154
11/27/2013  12:18:00       19.716       81.603        3.815       42.208       55.806       37.346     1781.540     3114.255     1394.723        0.668        0.315       83.951       32.902        0.154      337.561        9.618      860.150
11/27/2013  12:19:00       25.895       72.716       -6.819       32.318       40.925       24.860     1044.452     1674.876      617.995        0.467        0.167       77.189       21.394        0.077      337.619        9.716      860.131
11/27/2013  12:20:00       51.572       52.256       43.151       75.055       41.475       46.670     5633.325     1720.186     2178.119        0.839        0.477       73.419       31.448        0.183      337.629        9.733      860.119
11/27/2013  12:21:00       30.109       44.162       11.767       43.270       46.815       28.819     1872.319     2191.633      830.525        0.394        0.245       53.449       16.954        0.101      337.767        9.962      860.106
11/27/2013  12:22:00       24.753       97.542        2.621       44.882       47.435       34.434     2014.377     2250.086     1185.668        0.779        0.273      100.634       28.103        0.078      337.603        9.690      860.088
11/27/2013  12:23:00       13.118       22.185       28.815       35.167       35.689       20.873     1236.739     1273.673      435.700        0.222        0.147       25.773       22.462        0.760      337.892       10.173      860.074
11/27/2013  12:24:00        7.089       25.442        5.876       33.926       23.847       20.322     1150.956      568.662      412.981        0.143        0.107       26.411       12.603        0.228      337.623        9.722      860.057
11/27/2013  12:25:00      -10.586       36.232        3.076       26.273       25.178       18.722      690.265      633.927      350.495        0.155        0.084       37.747       10.715        0.081      337.803       10.023      860.046
11/27/2013  12:26:00        0.802        1.724       12.237       23.828       36.327       18.201      567.766     1319.624      331.264        0.119        0.111        1.901       14.532       58.434      338.167       10.634      860.034
11/27/2013  12:27:00        5.447       11.041       16.657       25.647       24.676       23.232      657.753      608.917      539.725        0.112        0.090       12.311       14.040        1.301      337.972       10.308      860.013
11/27/2013  12:28:00        5.223       18.252       24.684       18.866       22.058       25.620      355.942      486.540      656.373        0.123        0.075       18.985       16.556        0.761      338.044       10.429      860.002
11/27/2013  12:29:00        5.615        2.912       16.132       18.353       22.185       18.318      336.844      492.178      335.552        0.073        0.058        6.325       13.415        4.498      337.981       10.322      859.978
11/27/2013  12:30:00       30.372       33.875       32.772       23.433       20.272       17.092      549.106      410.957      292.141        0.220        0.063       45.497        8.632        0.036      337.779        9.983      859.958
11/27/2013  12:31:00       14.201        5.583       29.012       16.136       24.064       12.433      260.379      579.074      154.575        0.103        0.050       15.259        7.441        0.238      338.188       10.670      859.937
11/27/2013  12:32:00       10.843       38.937      -11.267       21.455       24.011       24.912      460.308      576.541      620.631        0.171        0.083       40.418       12.839        0.101      337.794       10.010      859.929
11/27/2013  12:33:00       -4.434      109.375      -21.438       22.297       62.475       13.813      497.138     3903.131      190.799        0.852        0.230      109.465        5.680        0.003      337.534        9.572      859.909
11/27/2013  12:34:00       60.001       82.910       -9.482       50.706       37.629       30.643     2571.069     1415.968      938.998        0.774        0.246      102.343       28.975        0.080      337.596        9.677      859.906
11/27/2013  12:35:00       54.118       64.855        2.303       47.072       35.968       26.318     2215.805     1293.718      692.640        0.567        0.210       84.468       16.335        0.037      337.439        9.412      859.907
11/27/2013  12:36:00       67.677       60.917       -0.090       31.717       21.346       29.000     1005.965      455.638      841.020        0.530        0.115       91.055       15.385        0.029      337.540        9.584      859.899
11/27/2013  12:37:00       26.523       19.448        2.329       36.129       22.366       19.286     1305.329      500.235      371.953        0.163        0.109       32.890       18.553        0.318      337.568        9.630      859.881
11/27/2013  12:38:00       30.076       63.040        1.487       28.612       50.471       25.657      818.637     2547.281      658.290        0.445        0.201       69.847       27.922        0.160      337.909       10.201      859.868
11/27/2013  12:39:00       -7.347       62.430       -1.094       35.318       45.832       31.619     1247.363     2100.598      999.781        0.415        0.217       62.861       32.069        0.260      337.845       10.094      859.850
11/27/2013  12:40:00       37.689       87.550      -14.580       27.201       33.809       30.526      739.903     1143.055      931.840        0.606        0.141       95.318       21.321        0.050      337.666        9.794      859.832
11/27/2013  12:41:00       64.823       48.169        1.499       21.724       13.057       23.246      471.945      170.488      540.370        0.385        0.059       80.761       13.231        0.027      337.570        9.633      859.817
11/27/2013  12:42:00       10.197       20.058        5.356       26.046       12.812       10.898      678.375      164.136      118.776        0.075        0.048       22.501       10.863        0.233      337.932       10.241      859.799
11/27/2013  12:43:00       27.842       32.183        9.490       31.259       33.490       30.331      977.148     1121.596      919.949        0.246        0.151       42.555       22.045        0.268      337.924       10.227      859.792
11/27/2013  12:44:00       28.238       57.680       -1.232       28.032       35.575       30.133      785.780     1265.598      908.014        0.354        0.148       64.222       21.611        0.113      337.939       10.252      859.765
11/27/2013  12:45:00       48.185       44.272        3.737       27.114       29.905       29.646      735.186      894.325      878.865        0.340        0.125       65.435       23.193        0.126      337.914       10.210      859.749
11/27/2013  12:46:00       49.851       85.010        5.454       49.009       63.735       34.843     2401.889     4062.214     1214.051        0.871        0.384       98.549       30.981        0.099      337.834       10.076      859.722
11/27/2013  12:47:00       -2.091      153.033      -24.440       33.841       52.629       23.241     1145.192     2769.859      540.158        1.424        0.223      153.047       20.941        0.019      337.621        9.720      859.707
11/27/2013  12:48:00      -12.006       97.806      -12.386       29.438       58.434       24.626      866.617     3414.546      606.429        0.737        0.244       98.540       24.015        0.059      337.720        9.885      859.686
11/27/2013  12:49:00      -22.881      105.903      -17.344       25.652       40.453       28.067      658.031     1636.482      787.735        0.756        0.154      108.347       16.185        0.022      337.768        9.964      859.665
11/27/2013  12:50:00       -4.615       82.001        0.805       22.293       45.166       25.607      496.973     2039.968      655.731        0.497        0.160       82.131       24.929        0.092      337.956       10.282      859.655
11/27/2013  12:51:00      129.041       74.810       19.920       55.765       46.912       35.476     3109.723     2200.742     1258.530        1.461        0.328      149.158       27.257        0.033      337.887       10.164      859.648
11/27/2013  12:52:00      131.966       95.615       10.437       40.256       31.663       37.148     1620.524     1002.566     1379.969        1.533        0.200      162.964       20.434        0.016      337.717        9.880      859.649
11/27/2013  12:53:00       97.816       50.417       48.876       50.447       44.233       35.818     2544.942     1956.575     1282.905        1.014        0.289      110.045       25.936        0.056      337.943       10.259      859.634
11/27/2013  12:54:00       14.702       63.685       66.339       27.649       43.523       32.811      764.460     1894.286     1076.575        0.620        0.187       65.360       23.282        0.127      338.175       10.648      859.628
11/27/2013  12:55:00       57.347       53.971        7.259       45.778       34.240       25.892     2095.625     1172.345      670.389        0.510        0.197       78.750       18.896        0.058      338.093       10.509      859.615
11/27/2013  12:56:00       26.730       63.287       11.924       51.973       55.176       26.608     2701.225     3044.352      707.994        0.566        0.323       68.700       24.670        0.129      338.245       10.765      859.599
11/27/2013  12:57:00       86.284       51.659       10.089       33.842       43.947       27.498     1145.305     1931.322      756.147        0.702        0.192      100.567       18.642        0.034      337.840       10.086      859.588
11/27/2013  12:58:00      -20.120      -34.984      -11.797       25.473       40.636       23.492      648.889     1651.271      551.853        0.231        0.143       40.357       18.020        0.199      338.042       10.427      859.562
11/27/2013  12:59:00      -17.369       20.114        1.947       16.039       21.060       17.772      257.249      443.515      315.860        0.086        0.051       26.575       10.517        0.157      338.541       11.263      859.542
11/27/2013  13:00:00      -12.225       44.612      -15.909       21.476       19.632       13.675      461.232      385.418      187.016        0.171        0.052       46.256       10.475        0.051      338.421       11.062      859.524
11/27/2013  13:01:00       12.118       98.213       -9.748       38.874       35.902       26.559     1511.175     1288.931      705.397        0.670        0.175       98.958       19.561        0.039      338.246       10.766      859.525
11/27/2013  13:02:00       53.210      124.344       -9.612       44.726       72.899       46.609     2000.384     5314.218     2172.354        1.393        0.474      135.251       45.328        0.112      338.063       10.460      859.523
11/27/2013  13:03:00       -0.280      111.880      -17.769       34.941       41.663       20.569     1220.886     1735.840      423.075        0.811        0.169      111.880       17.193        0.024      337.981       10.321      859.518
11/27/2013  13:04:00       -1.134      118.639      -19.457       33.714       59.793       30.572     1136.649     3575.246      934.670        1.005        0.282      118.645       32.246        0.074      338.119       10.555      859.519
11/27/2013  13:05:00        2.985      165.325      -25.900       23.845       51.821       23.364      568.574     2685.402      545.864        1.591        0.190      165.352       21.817        0.017      337.921       10.222      859.510
11/27/2013  13:06:00       20.054       48.267       -5.956       37.956       29.250       19.471     1440.651      855.547      379.119        0.272        0.134       52.267       16.300        0.097      338.183       10.662      859.505
11/27/2013  13:07:00       76.526       42.796        1.021       21.114       24.595       22.524      445.784      604.916      507.340        0.462        0.078       87.680       14.460        0.027      337.906       10.198      859.499
11/27/2013  13:08:00       47.838       47.099        5.733       32.582       20.808       18.190     1061.609      432.968      330.863        0.318        0.091       67.133        8.737        0.017      337.911       10.205      859.481
11/27/2013  13:09:00        6.507       18.877      -15.469       17.922       13.231       10.793      321.187      175.059      116.499        0.063        0.031       19.967        6.828        0.117      337.948       10.268      859.476
11/27/2013  13:10:00        1.441        0.951       -8.328        6.154       13.018        8.146       37.875      169.461       66.353        0.017        0.014        1.727        7.869       20.774      338.412       11.047      859.450
11/27/2013  13:11:00       34.113       -1.567        5.798       23.160       13.241       14.727      536.384      175.319      216.873        0.106        0.046       34.149        8.306        0.059      338.052       10.440      859.425
11/27/2013  13:12:00       31.897        6.828       14.107       19.186       16.434       31.282      368.121      270.088      978.537        0.144        0.081       32.620       17.043        0.273      338.120       10.556      859.394
11/27/2013  13:13:00       87.981       64.542       61.067       38.942       33.011       39.267     1516.505     1089.727     1541.915        0.989        0.207      109.116       21.191        0.038      338.077       10.485      859.355
11/27/2013  13:14:00       88.123       65.039       18.701       20.338       16.169       26.895      413.637      261.444      723.325        0.687        0.070      109.525       13.645        0.016      337.927       10.231      859.334
11/27/2013  13:15:00       49.490       56.522       40.321       36.510       34.144       28.420     1332.978     1165.839      807.716        0.529        0.165       75.126       21.542        0.082      338.233       10.745      859.313
11/27/2013  13:16:00       25.328       21.861       39.180       38.049       31.066       29.051     1447.691      965.070      843.948        0.295        0.163       33.458       21.350        0.407      338.439       11.092      859.288
11/27/2013  13:17:00       32.431       10.221       35.659       43.209       35.958       42.898     1866.996     1292.982     1840.202        0.371        0.250       34.004       39.951        1.380      338.368       10.973      859.278
11/27/2013  13:18:00        3.851       57.690       79.329       29.342       39.565       32.431      860.945     1565.389     1051.753        0.656        0.174       57.819       25.993        0.202      338.409       11.042      859.266
11/27/2013  13:19:00       28.788       13.713       48.923       32.735       36.980       27.481     1071.587     1367.497      755.225        0.330        0.160       31.887       26.623        0.697      338.410       11.042      859.251
11/27/2013  13:20:00       12.900       31.256       60.976       16.748       26.496       13.935      280.480      702.034      194.184        0.302        0.059       33.813       15.730        0.216      338.505       11.200      859.239
11/27/2013  13:21:00       33.649        6.313       33.304       14.647       25.991       17.453      214.536      675.516      304.596        0.174        0.060       34.236       15.873        0.215      338.367       10.969      859.230
11/27/2013  13:22:00       16.927       40.364       25.028       24.158       16.077       20.065      583.595      258.458      402.616        0.189        0.062       43.769        3.096        0.005      338.393       11.014      859.216
11/27/2013  13:23:00      -18.216       38.042        8.010       29.456       27.730       24.476      867.667      768.956      599.052        0.204        0.112       42.178       18.562        0.194      338.500       11.194      859.209
11/27/2013  13:24:00      -74.907        0.455      -20.154       33.214       29.293       16.701     1103.186      858.102      278.925        0.413        0.112       74.908       14.276        0.036      338.195       10.681      859.186
11/27/2013  13:25:00      -55.239       12.294      -22.298       17.866       17.179       18.572      319.207      295.121      344.917        0.233        0.048       56.591       11.970        0.045      338.167       10.634      859.171
11/27/2013  13:26:00      -41.902      -13.783       -2.804       28.249       22.498       13.539      797.979      506.152      183.312        0.172        0.074       44.111        5.058        0.013      338.506       11.205      859.168
11/27/2013  13:27:00       -5.532      -17.720       -0.533       24.592       21.504       17.082      604.758      462.417      291.797        0.085        0.068       18.563       12.327        0.441      338.725       11.572      859.158
11/27/2013  13:28:00        2.970       12.930       14.172       15.218       22.973       11.284      231.584      527.756      127.328        0.063        0.044       13.266        7.513        0.321      338.948       11.947      859.150
11/27/2013  13:29:00       42.284      -40.692       10.482       35.607       33.756       24.584     1267.891     1139.472      604.375        0.328        0.151       58.684       24.159        0.169      338.771       11.649      859.136
11/27/2013  13:30:00       58.496       26.721       57.775       55.130       75.445       50.757     3039.318     5691.876     2576.233        0.939        0.565       64.310       52.152        0.658      338.581       11.330      859.110
11/27/2013  13:31:00       36.431       -1.736       60.264       57.617       69.918       43.463     3319.747     4888.563     1889.023        0.753        0.505       36.472       47.479        1.695      338.808       11.711      859.072
11/27/2013  13:32:00       51.846      -11.783       29.758       61.791       66.786       42.734     3818.155     4460.430     1826.159        0.691        0.505       53.168       48.173        0.821      338.595       11.354      859.069
11/27/2013  13:33:00       34.834       -2.733       15.281       50.728       41.326       34.545     2573.356     1707.809     1193.333        0.346        0.274       34.941       35.224        1.016      338.775       11.655      859.053
11/27/2013  13:34:00        0.295       -0.693       21.356       37.012       43.997       31.450     1369.870     1935.714      989.076        0.237        0.215        0.753       33.913     2028.444      338.918       11.895      859.038
11/27/2013  13:35:00       34.540      -87.609        3.143       67.880       72.068       46.003     4607.676     5193.771     2116.271        1.040        0.596       94.172       48.692        0.267      338.776       11.657      859.022
11/27/2013  13:36:00       36.288       13.112       61.249       49.299      111.033       62.446     2430.413    12328.251     3899.467        1.195        0.933       38.584       74.148        3.693      338.622       11.397      859.027
11/27/2013  13:37:00       77.002       58.309       82.074       34.949       42.046       35.044     1221.467     1767.895     1228.095        1.014        0.211       96.588       26.700        0.076      338.425       11.067      859.019
11/27/2013  13:38:00       49.870       40.361       18.381       55.047       23.197       35.170     3030.151      538.105     1236.962        0.463        0.240       64.156       20.045        0.098      338.329       10.906      859.013
11/27/2013  13:39:00      -36.394       12.611      -26.792       29.254       22.280       20.238      855.790      496.389      409.576        0.198        0.088       38.517        6.830        0.031      338.485       11.169      859.001
11/27/2013  13:40:00      -10.010       16.815       -3.848       32.406       19.515       19.510     1050.146      380.849      380.642        0.110        0.091       19.569       19.306        0.973      338.648       11.442      858.987
11/27/2013  13:41:00       37.032       50.502       67.414       36.570       41.025       33.929     1337.386     1683.059     1151.196        0.632        0.209       62.624       27.013        0.186      338.640       11.429      858.977
11/27/2013  13:42:00       31.205      -12.267       40.043       33.997       55.921       33.316     1155.823     3127.173     1109.934        0.406        0.270       33.530       31.164        0.864      338.820       11.731      858.968
11/27/2013  13:43:00       78.588       81.037       70.989       61.562       49.318       34.244     3789.827     2432.295     1172.624        1.259        0.370      112.885       24.329        0.046      338.549       11.274      858.960
11/27/2013  13:44:00       82.898       77.085       72.355       68.717       53.013       53.268     4722.089     2810.429     2837.472        1.421        0.518      113.199       56.014        0.245      338.514       11.216      858.956
11/27/2013  13:45:00      122.729       77.338       34.619       44.639       35.759       45.682     1992.638     1278.680     2086.827        1.380        0.268      145.064       29.453        0.041      338.428       11.073      858.935
11/27/2013  13:46:00       69.870       24.559       34.680       62.149       64.758       36.966     3862.499     4193.620     1366.506        0.805        0.471       74.061       32.008        0.187      338.702       11.532      858.932
11/27/2013  13:47:00       71.262     -101.568      -13.156       43.373       38.005       27.413     1881.222     1444.386      751.465        0.982        0.204      124.074       22.934        0.034      338.597       11.356      858.931
11/27/2013  13:48:00       87.721     -106.310      -14.105       30.942       43.974       22.370      957.380     1933.726      500.428        1.129        0.170      137.829       15.466        0.013      338.461       11.129      858.918
11/27/2013  13:49:00       72.262     -110.751       -2.949       38.541       29.194       25.278     1485.388      852.278      638.969        1.024        0.149      132.241       16.383        0.015      338.450       11.110      858.907
11/27/2013  13:50:00       25.084       49.758       66.625       45.892       42.776       37.931     2106.059     1829.782     1438.742        0.646        0.269       55.723       35.590        0.408      338.733       11.584      858.907
11/27/2013  13:51:00      -12.508       66.359       88.237       24.504       47.938       30.699      600.440     2298.092      942.438        0.809        0.192       67.527       30.243        0.201      338.809       11.713      858.916
11/27/2013  13:52:00       11.637       35.391       77.133       38.132       48.558       25.741     1454.075     2357.837      662.607        0.591        0.224       37.255       20.935        0.316      338.812       11.717      858.919
11/27/2013  13:53:00       38.477       -6.134       19.387       25.006       31.169       26.953      625.279      971.512      726.490        0.211        0.116       38.963       24.400        0.392      338.576       11.321      858.915
11/27/2013  13:54:00       22.666        8.058        3.274       26.545       30.846       25.436      704.638      951.472      646.966        0.145        0.115       24.056       12.384        0.265      338.588       11.341      858.892
11/27/2013  13:55:00       65.642      -42.523       -6.063       28.776       34.952       23.843      828.056     1221.618      568.492        0.439        0.131       78.212       23.543        0.091      338.652       11.450      858.862
11/27/2013  13:56:00       28.907       -4.911       14.271       19.554       31.562       27.699      382.353      996.173      767.233        0.160        0.107       29.322       23.073        0.619      338.824       11.739      858.842
11/27/2013  13:57:00      -14.586      -74.748       -7.222       29.499       38.745       23.699      870.195     1501.140      561.635        0.439        0.147       76.158       15.487        0.041      338.989       12.015      858.814
11/27/2013  13:58:00       60.523      -97.407      -20.296       43.483       48.461       31.029     1890.735     2348.473      962.773        0.938        0.260      114.678       28.544        0.062      338.753       11.618      858.781
11/27/2013  13:59:00      -32.723      -16.760        0.526       32.516       26.806       24.522     1057.265      718.569      601.328        0.186        0.119       36.766       18.944        0.266      339.150       12.286      858.760
11/27/2013  14:00:00       31.230      -24.324        4.377       40.315       43.675       23.844     1625.328     1907.469      568.545        0.284        0.205       39.585       27.006        0.465      338.870       11.815      858.750
11/27/2013  14:01:00       27.015       32.678       29.162       17.037       14.738       17.476      290.246      217.213      305.394        0.173        0.041       42.399        5.098        0.014      338.756       11.624      858.734
11/27/2013  14:02:00        9.544       52.192       -1.665       15.816       18.511       14.606      250.161      342.671      213.334        0.181        0.040       53.058        9.529        0.032      338.867       11.810      858.736
11/27/2013  14:03:00       33.944       60.206       -9.208       23.496       32.487       26.785      552.060     1055.428      717.456        0.359        0.116       69.116       19.769        0.082      338.745       11.605      858.735
11/27/2013  14:04:00       38.672       32.512        8.273       26.564       12.767       16.692      705.621      163.004      278.635        0.188        0.057       50.522        8.311        0.027      338.750       11.614      858.720
11/27/2013  14:05:00       53.342       72.697       57.741       46.122       42.837       54.994     2127.213     1835.010     3024.388        0.922        0.349       90.168       36.422        0.163      338.738       11.592      858.699
11/27/2013  14:06:00      107.203      123.072      103.910       70.337       61.450       47.668     4947.316     3776.138     2272.194        2.421        0.550      163.215       33.158        0.041      338.627       11.404      858.678
11/27/2013  14:07:00       48.745       83.804       85.815       41.311       45.878       45.482     1706.623     2104.824     2068.620        1.132        0.294       96.949       34.881        0.129      338.734       11.586      858.673
11/27/2013  14:08:00       95.200      139.861      129.402      110.544       60.284       76.642    12219.903     3634.117     5873.984        3.354        1.086      169.186       82.853        0.240      338.679       11.490      858.659
11/27/2013  14:09:00       95.676      105.284       36.231       42.571       37.457       47.945     1812.307     1403.059     2298.676        1.353        0.276      142.262       17.110        0.014      338.615       11.387      858.664
11/27/2013  14:10:00       70.721       58.230       61.434       65.957       71.907       46.074     4350.285     5170.577     2122.827        1.190        0.582       91.609       41.406        0.204      338.915       11.891      858.650
11/27/2013  14:11:00       38.222       21.307       19.173       31.051       40.141       37.915      964.193     1611.298     1437.564        0.315        0.201       43.760       31.639        0.523      338.774       11.653      858.652
11/27/2013  14:12:00       72.844       69.528       78.397       85.605       54.726       55.000     7328.143     2994.902     3024.954        1.481        0.667      100.699       55.004        0.298      338.888       11.846      858.643
11/27/2013  14:13:00       18.476       15.734       47.521       72.101       57.661       44.006     5198.614     3324.760     1936.495        0.665        0.523       24.268       42.472        3.063      339.084       12.175      858.633
11/27/2013  14:14:00       38.836       98.663      102.008       41.937       69.916       54.118     1758.744     4888.220     2928.722        1.561        0.479      106.031       54.011        0.259      338.949       11.947      858.640
11/27/2013  14:15:00       57.155       66.889       78.588       58.156       64.788       55.563     3382.137     4197.543     3087.218        1.229        0.533       87.982       55.906        0.404      338.777       11.659      858.646
11/27/2013  14:16:00       55.215        5.481       34.984       54.614       40.058       36.743     2982.702     1604.654     1350.044        0.512        0.297       55.486       26.200        0.223      338.820       11.730      858.642
11/27/2013  14:17:00       84.528     -123.221       20.972       55.504       82.874       37.917     3080.738     6868.157     1437.684        1.708        0.569      149.426       41.733        0.078      338.847       11.775      858.634
11/27/2013  14:18:00       44.691       42.777       86.838       70.087      106.489       69.954     4912.132    11339.914     4893.565        1.625        1.057       61.864       75.796        1.501      339.016       12.060      858.628
11/27/2013  14:19:00      134.804       97.844       57.393       57.268       40.723       43.642     3279.620     1658.374     1904.646        1.894        0.342      166.570       29.113        0.031      338.871       11.818      858.629
11/27/2013  14:20:00      117.075       47.675       60.002       79.514       45.115       55.958     6322.415     2035.332     3131.348        1.553        0.574      126.410       46.261        0.134      338.864       11.806      858.627
11/27/2013  14:21:00      107.961       49.470       23.425       51.205       43.353       35.186     2621.963     1879.446     1238.065        1.019        0.287      118.755       12.254        0.011      338.872       11.819      858.629
11/27/2013  14:22:00       41.922       46.785       42.413       50.035       55.025       52.555     2503.480     3027.758     2762.032        0.702        0.415       62.820       45.467        0.524      338.997       12.029      858.635
11/27/2013  14:23:00       46.453      116.101      109.620       56.921       44.939       32.547     3239.981     2019.486     1059.322        1.699        0.316      125.049       27.769        0.049      338.796       11.691      858.649
11/27/2013  14:24:00       44.280       43.311       58.488       46.479       37.274       22.796     2160.296     1389.380      519.666        0.566        0.203       61.940       23.672        0.146      338.850       11.781      858.661
11/27/2013  14:25:00       46.620       54.636       72.027       51.591       46.307       44.619     2661.596     2144.324     1990.866        0.857        0.340       71.823       42.002        0.342      338.930       11.916      858.664
11/27/2013  14:26:00       64.623       72.543       71.133       47.673       41.555       34.747     2272.701     1726.793     1207.380        0.985        0.260       97.152       32.416        0.111      338.851       11.785      858.660
11/27/2013  14:27:00       19.939       65.836       81.195       37.093       44.008       24.871     1375.875     1936.712      618.568        0.763        0.197       68.789       21.810        0.101      338.919       11.898      858.657
11/27/2013  14:28:00       41.697       75.028       72.376       68.291       44.474       39.214     4663.634     1977.902     1537.740        1.039        0.409       85.836       40.471        0.222      338.872       11.819      858.662
11/27/2013  14:29:00       46.634       26.391       56.768       44.258       56.820       39.064     1958.757     3228.493     1526.020        0.640        0.336       53.584       40.972        0.585      338.846       11.775      858.666
11/27/2013  14:30:00       86.677       35.927       29.389       46.661       38.630       40.247     2177.241     1492.260     1619.792        0.748        0.264       93.828       28.095        0.090      338.719       11.563      858.673
11/27/2013  14:31:00       63.120       35.378       -3.264       41.592       25.849       23.263     1729.889      668.194      541.188        0.409        0.147       72.358       16.639        0.053      338.786       11.673      858.674
11/27/2013  14:32:00       28.725        3.478       -3.632       19.524       14.468       22.726      381.205      209.335      516.463        0.098        0.055       28.934       10.181        0.124      338.969       11.981      858.663
11/27/2013  14:33:00       39.463       21.086       10.677       17.308       19.393       16.001      299.561      376.107      256.041        0.152        0.047       44.744       14.661        0.107      338.929       11.915      858.648
11/27/2013  14:34:00       21.519       58.459       56.830       36.010       39.313       41.114     1296.689     1545.533     1690.388        0.582        0.227       62.293       31.388        0.254      339.058       12.131      858.635
11/27/2013  14:35:00       36.170       53.200       68.047       33.403       34.635       21.317     1115.754     1199.604      454.406        0.577        0.138       64.331        8.441        0.017      339.054       12.126      858.613
11/27/2013  14:36:00       29.559       33.902        8.939       23.131       24.595       30.117      535.039      604.921      907.026        0.207        0.102       44.979       22.261        0.245      338.912       11.885      858.599
11/27/2013  14:37:00       30.536       -0.828        8.127       39.832       29.623       17.835     1586.571      877.530      318.078        0.189        0.139       30.548       25.591        0.702      338.903       11.870      858.576
11/27/2013  14:38:00      162.820      103.707       24.442       37.757       28.433       29.943     1425.591      808.447      896.585        2.050        0.157      193.043       13.872        0.005      338.806       11.707      858.561
11/27/2013  14:39:00       85.623       64.247       48.978       58.940       46.222       46.618     3473.922     2136.481     2173.197        1.082        0.389      107.046       37.095        0.120      338.923       11.905      858.549
11/27/2013  14:40:00      112.157       92.921       25.658       57.751       44.528       35.271     3335.201     1982.732     1244.016        1.422        0.328      145.649       32.956        0.051      338.973       11.988      858.545
11/27/2013  14:41:00       85.471       67.131       51.265       56.214       38.310       40.159     3160.014     1467.642     1612.769        1.034        0.312      108.682       22.194        0.042      338.974       11.990      858.542
11/27/2013  14:42:00       59.695       71.544       89.849       57.898       60.469       45.714     3352.166     3656.498     2089.770        1.292        0.455       93.177       46.413        0.248      338.904       11.871      858.549
11/27/2013  14:43:00       77.491       71.704       68.140       68.452       43.665       43.375     4685.639     1906.616     1881.357        1.213        0.424      105.576       29.726        0.079      338.914       11.889      858.544
11/27/2013  14:44:00        8.828       21.195       69.146       25.846       82.607       54.037      668.007     6823.959     2919.982        0.786        0.521       22.960       64.109        7.797      339.085       12.175      858.546
11/27/2013  14:45:00       51.281      -68.824       18.213       44.948       60.705       41.223     2020.362     3685.040     1699.354        0.755        0.370       85.828       40.359        0.221      339.283       12.511      858.534
11/27/2013  14:46:00       32.707      -34.323       22.132       48.897       60.987       32.486     2390.883     3719.425     1055.317        0.495        0.358       47.411       37.414        0.623      339.226       12.415      858.537
11/27/2013  14:47:00       39.315      -52.385       26.011       51.186       90.713       45.506     2619.976     8228.839     2070.840        0.894        0.646       65.497       51.801        0.626      339.330       12.588      858.535
11/27/2013  14:48:00       51.063       72.928       62.274       42.659       31.541       30.375     1819.826      994.816      922.630        0.777        0.187       89.027       20.603        0.054      339.018       12.064      858.543
11/27/2013  14:49:00       17.349       17.067       24.967       31.048       35.353       22.812      964.006     1249.860      520.399        0.197        0.137       24.336       17.354        0.508      339.202       12.373      858.549
11/27/2013  14:50:00       49.114       -0.445       28.952       40.537       69.760       48.459     1643.222     4866.476     2348.257        0.605        0.443       49.116       52.883        1.159      339.097       12.196      858.544
11/27/2013  14:51:00       61.142       10.965       30.095       55.721       37.726       30.318     3104.856     1423.272      919.167        0.510        0.272       62.117       29.792        0.230      338.945       11.941      858.540
11/27/2013  14:52:00       92.971       71.898       55.514       74.203       49.995       47.594     5506.055     2499.496     2265.227        1.358        0.514      117.528       46.125        0.154      338.975       11.991      858.527
11/27/2013  14:53:00      100.465       60.537       36.259       64.100       43.566       43.070     4108.810     1898.034     1855.022        1.147        0.393      117.294       34.422        0.086      339.019       12.067      858.519
11/27/2013  14:54:00       42.037       70.485       68.044       40.395       37.715       35.790     1631.769     1422.436     1280.951        0.785        0.217       82.069       29.477        0.129      339.093       12.191      858.513
11/27/2013  14:55:00      175.049      111.368       62.976       83.492       52.952       55.824     6970.923     2803.862     3116.305        2.995        0.645      207.473       39.961        0.037      339.042       12.102      858.505
11/27/2013  14:56:00      125.607       71.886        6.214       73.637       42.866       32.316     5422.413     1837.474     1044.299        1.464        0.415      144.723       29.582        0.042      338.989       12.013      858.506
11/27/2013  14:57:00       85.471       54.680       18.691       46.115       35.820       24.594     2126.632     1283.068      604.882        0.733        0.201      101.465       14.544        0.021      338.974       11.991      858.510
11/27/2013  14:58:00       73.755       89.985       -7.680       62.079       55.095       45.798     3853.745     3035.466     2097.485        1.129        0.449      116.349       36.612        0.099      339.032       12.087      858.504
11/27/2013  14:59:00       96.393       89.575       13.443       76.026       85.566       34.828     5779.951     7321.575     1213.017        1.590        0.716      131.587       30.293        0.053      339.028       12.079      858.503
11/27/2013  15:00:00       87.956       48.915        8.281       54.901       37.342       29.501     3014.080     1394.395      870.317        0.774        0.264      100.643       22.864        0.052      339.133       12.257      858.499
11/27/2013  15:01:00       86.628       73.537        6.650       28.029       24.129       28.311      785.625      582.199      801.498        0.756        0.108      113.632       15.498        0.019      338.987       12.013      858.500
11/27/2013  15:02:00       34.888       55.814       -3.613       50.041       32.695       27.781     2504.057     1068.937      771.770        0.434        0.217       65.821       20.495        0.097      339.041       12.103      858.493
11/27/2013  15:03:00       60.538       69.699        2.214       51.915       51.514       37.399     2695.176     2653.676     1398.650        0.764        0.337       92.318       36.122        0.153      339.032       12.088      858.488
11/27/2013  15:04:00       55.308       68.396       -3.607       57.622       23.032       25.523     3320.283      530.472      651.448        0.613        0.225       87.960       26.538        0.091      338.994       12.023      858.474
11/27/2013  15:05:00      -34.982       33.108       -8.922       40.502       26.836       31.664     1640.408      720.146     1002.622        0.288        0.168       48.165       26.104        0.294      339.277       12.501      858.465
11/27/2013  15:06:00       40.246       95.025       -9.998       32.991       44.791       30.109     1088.406     2006.263      906.528        0.737        0.200      103.196       26.656        0.067      339.118       12.232      858.461
11/27/2013  15:07:00       65.221       72.598       -1.147       37.915       38.768       36.882     1437.534     1502.958     1360.267        0.691        0.215       97.592       28.498        0.085      339.096       12.196      858.457
11/27/2013  15:08:00       78.118       38.947       26.713       55.758       37.482       29.584     3108.945     1404.899      875.189        0.686        0.269       87.289       28.319        0.105      339.169       12.319      858.447
11/27/2013  15:09:00       71.101       37.899       10.597       44.913       38.524       28.232     2017.196     1484.088      797.048        0.545        0.215       80.571       23.152        0.083      339.179       12.335      858.437
11/27/2013  15:10:00      115.803       97.911       15.063       74.387       64.647       39.701     5533.495     4179.175     1576.160        1.725        0.564      151.648       24.812        0.027      339.114       12.225      858.423
11/27/2013  15:11:00      185.531      117.665       22.452       83.668       60.109       53.587     7000.254     3613.129     2871.533        3.113        0.674      219.697       25.498        0.013      339.093       12.187      858.409
11/27/2013  15:12:00      109.700       96.299       10.779       68.300       63.298       68.538     4664.920     4006.581     4697.467        1.739        0.668      145.971       50.460        0.119      339.177       12.330      858.397
11/27/2013  15:13:00       84.597       76.092        4.009       54.932       37.877       36.306     3017.530     1434.646     1318.118        0.937        0.289      113.783       24.132        0.045      339.133       12.258      858.390
11/27/2013  15:14:00       99.874       64.702       28.481       95.304       52.403       49.804     9082.789     2746.100     2480.431        1.464        0.715      119.000       17.539        0.022      339.124       12.242      858.379
11/27/2013  15:15:00      100.111       72.459       64.760       80.945       55.740       59.400     6552.144     3106.969     3528.360        1.632        0.659      123.582       39.832        0.104      339.093       12.190      858.373
11/27/2013  15:16:00      135.052       62.270       21.718       57.271       52.686       49.212     3279.938     2775.830     2421.861        1.553        0.424      148.716       31.443        0.045      339.050       12.120      858.379
11/27/2013  15:17:00       76.064       61.221       12.243       49.020       46.285       37.466     2402.923     2142.258     1403.721        0.782        0.297       97.641       18.017        0.034      339.046       12.111      858.375
11/27/2013  15:18:00       41.395       64.497       -0.535       41.439       49.208       36.639     1717.202     2421.439     1342.380        0.568        0.274       76.639       26.170        0.117      339.047       12.112      858.370
11/27/2013  15:19:00       52.979       44.935       21.461       30.043       27.007       29.193      902.604      729.379      852.203        0.388        0.124       69.469       19.088        0.076      339.038       12.096      858.369
11/27/2013  15:20:00      139.619       58.572       35.257       73.457       53.384       39.848     5395.969     2849.798     1587.851        1.700        0.492      151.407       26.471        0.031      339.148       12.282      858.370
11/27/2013  15:21:00       57.678      114.995      121.882       72.300       64.692       53.631     5227.244     4185.083     2876.292        2.184        0.614      128.650       47.049        0.134      339.119       12.234      858.365
11/27/2013  15:22:00       66.966       99.145      102.559       96.879       66.218       73.192     9385.484     4384.841     5357.132        2.198        0.956      119.642       71.694        0.359      339.089       12.182      858.374
11/27/2013  15:23:00       46.769       18.446       42.683       55.521       49.013       33.890     3082.630     2402.272     1148.509        0.549        0.332       50.275       33.368        0.441      339.159       12.301      858.379
11/27/2013  15:24:00       27.892       34.678       54.066       48.329       57.879       35.805     2335.712     3349.922     1282.006        0.593        0.348       44.503       38.617        0.753      339.171       12.321      858.378
11/27/2013  15:25:00       22.140       70.794       70.641       34.682       29.829       32.358     1202.870      889.798     1047.057        0.682        0.157       74.175       24.687        0.111      339.158       12.299      858.381
11/27/2013  15:26:00       27.560       27.658       47.766       44.894       38.221       32.373     2015.495     1460.839     1048.022        0.416        0.226       39.045       36.534        0.875      339.266       12.481      858.378
11/27/2013  15:27:00       48.194       12.625       22.008       33.402       25.011       22.549     1115.662      625.558      508.461        0.261        0.112       49.820       24.815        0.248      339.220       12.404      858.378
11/27/2013  15:28:00       30.388       41.351       10.397       29.768       19.987       19.203      886.116      399.491      368.743        0.220        0.083       51.316       14.108        0.076      339.154       12.292      858.380
11/27/2013  15:29:00       66.373       47.132       11.382       44.102       26.889       25.971     1944.956      723.031      674.514        0.505        0.167       81.405       11.577        0.020      339.111       12.222      858.395
11/27/2013  15:30:00       83.678       59.090        9.948       54.235       30.274       22.438     2941.426      916.544      503.463        0.748        0.218      102.438        8.659        0.007      339.011       12.053      858.395
11/27/2013  15:31:00       24.886       39.113        3.114       25.450       26.470       20.476      647.722      700.644      419.279        0.196        0.088       46.359       14.963        0.104      339.025       12.077      858.403
11/27/2013  15:32:00       69.844       31.116        8.765       33.051       34.311       22.806     1092.354     1177.259      520.131        0.436        0.139       76.461        9.706        0.016      339.030       12.084      858.400
11/27/2013  15:33:00      148.225       61.931       10.637       55.693       48.855       33.038     3101.708     2386.822     1091.530        1.625        0.329      160.643        7.249        0.002      339.003       12.036      858.400
11/27/2013  15:34:00      130.702       63.699       20.762       63.942       38.456       29.031     4088.639     1478.859      842.821        1.399        0.321      145.398       25.685        0.031      338.949       11.948      858.406
11/27/2013  15:35:00      114.577       43.286        7.483       45.119       37.913       28.094     2035.719     1437.412      789.301        0.966        0.213      122.481       17.181        0.020      338.966       11.977      858.410
11/27/2013  15:36:00       79.560       37.476        4.237       29.872       29.784       16.719      892.353      887.082      279.521        0.491        0.103       87.944        9.248        0.011      338.994       12.023      858.420
11/27/2013  15:37:00       70.296       39.311        0.237       33.219       26.501       19.479     1103.512      702.327      379.440        0.434        0.109       80.541       11.945        0.022      338.988       12.013      858.432
11/27/2013  15:38:00       56.868       50.430        8.260       38.228       39.625       32.143     1461.364     1570.174     1033.193        0.495        0.203       76.008       26.068        0.118      339.008       12.047      858.449
11/27/2013  15:39:00       54.073       44.296        8.948       32.893       22.339       19.752     1081.944      499.051      390.156        0.347        0.099       69.900       13.865        0.039      338.992       12.021      858.464
11/27/2013  15:40:00       81.508       78.288        0.594       59.354       38.200       40.914     3522.886     1459.234     1673.916        0.971        0.333      113.016       29.465        0.068      339.011       12.054      858.475
11/27/2013  15:41:00       31.990       89.907       -0.053       25.408       70.064       34.000      645.567     4908.923     1156.032        0.791        0.336       95.429       40.572        0.181      339.015       12.059      858.482
11/27/2013  15:42:00       46.902       94.162       -7.163       41.770       44.938       31.116     1744.727     2019.398      968.209        0.792        0.237      105.197       28.832        0.075      339.024       12.076      858.479
11/27/2013  15:43:00       44.344       59.537        1.934       47.409       39.322       33.474     2247.611     1546.194     1120.532        0.521        0.246       74.237       25.060        0.114      339.007       12.045      858.481
11/27/2013  15:44:00       52.052       58.701       -5.832       31.773       39.774       24.778     1009.510     1581.977      613.959        0.470        0.160       78.455       24.897        0.101      338.995       12.026      858.474
11/27/2013  15:45:00       32.807       33.700       -8.909       16.129       20.492       13.965      260.135      419.933      195.009        0.158        0.044       47.032       11.315        0.058      339.009       12.051      858.476
11/27/2013  15:46:00       21.934       57.458       -6.716       16.472       42.830       15.178      271.338     1834.412      230.360        0.308        0.117       61.502       20.749        0.114      339.072       12.155      858.480
11/27/2013  15:47:00       -8.448       75.907      -11.250       19.004       21.197       13.795      361.138      449.295      190.298        0.348        0.050       76.375        8.735        0.013      339.120       12.235      858.476
11/27/2013  15:48:00       48.700      112.144      -10.626       36.598       66.086       34.573     1339.447     4367.357     1195.318        1.098        0.345      122.262       29.843        0.060      339.060       12.134      858.480
11/27/2013  15:49:00       67.471       60.073        2.246       53.521       34.739       34.673     2864.470     1206.782     1202.244        0.672        0.264       90.339       25.225        0.078      339.019       12.066      858.477
11/27/2013  15:50:00      103.431       66.681        9.311       33.523       32.091       26.658     1123.810     1029.849      710.671        0.905        0.143      123.062       19.885        0.026      339.013       12.056      858.478
11/27/2013  15:51:00       97.599       71.134       11.219       37.005       21.688       24.025     1369.368      470.359      577.201        0.856        0.121      120.771       21.329        0.031      338.995       12.026      858.476
11/27/2013  15:52:00       80.436       57.087       12.860       30.329       41.072       17.769      919.821     1686.948      315.748        0.641        0.146       98.635       17.616        0.032      339.014       12.058      858.475
11/27/2013  15:53:00       44.671       29.419       18.950       33.409       23.520       19.516     1116.161      553.186      380.893        0.263        0.103       53.488       12.646        0.056      339.002       12.038      858.476
11/27/2013  15:54:00       51.699       50.645       35.802       17.517       16.034       15.322      306.841      257.078      234.752        0.366        0.040       72.372        8.603        0.014      339.101       12.203      858.472
11/27/2013  15:55:00       61.955       52.633       12.593       16.548       16.558       17.670      273.827      274.181      312.237        0.381        0.043       81.293       11.720        0.021      339.082       12.171      858.475
11/27/2013  15:56:00       80.259       44.312       21.597       28.185       37.256       23.374      794.368     1388.021      546.351        0.580        0.136       91.679       16.927        0.034      339.031       12.085      858.479
11/27/2013  15:57:00       69.811       16.717       13.996       31.296       29.043       18.116      979.417      843.506      328.186        0.375        0.108       71.784       13.419        0.035      339.096       12.193      858.478
11/27/2013  15:58:00       24.943       26.245       16.537       21.998       20.211       24.011      483.927      408.486      576.526        0.153        0.073       36.207       16.265        0.202      339.020       12.067      858.472
11/27/2013  15:59:00       67.944       46.075        8.456       16.103       19.590       18.921      259.321      383.771      358.003        0.391        0.050       82.093       12.560        0.023      339.013       12.054      858.469
11/27/2013  16:00:00       55.712       49.129        6.146       22.404       23.531       16.670      501.949      553.689      277.882        0.344        0.067       74.280        7.820        0.011      339.041       12.103      858.462
11/27/2013  16:01:00       47.806       26.675        8.039       14.881       16.649       11.065      221.437      277.173      122.437        0.184        0.031       54.744        8.221        0.023      339.041       12.101      858.459
11/27/2013  16:02:00       42.131       16.522        5.058       32.558       16.202       16.442     1059.996      262.505      270.348        0.183        0.080       45.255       15.101        0.111      339.058       12.132      858.451
11/27/2013  16:03:00       20.027       42.760       -3.531       20.123       15.735       10.593      404.928      247.575      112.207        0.150        0.038       47.217       11.239        0.057      339.055       12.126      858.441
11/27/2013  16:04:00       39.323       27.751       -0.875       23.236       16.657       16.630      539.889      277.471      276.550        0.171        0.055       48.129       12.178        0.064      339.063       12.138      858.439
11/27/2013  16:05:00       61.602       56.154       -2.101       33.052       22.899       21.027     1092.420      524.387      442.148        0.451        0.103       83.355       19.503        0.055      339.044       12.108      858.439
11/27/2013  16:06:00       63.350       24.226        6.589       14.432       19.059       13.887      208.288      363.260      192.841        0.270        0.038       67.824        6.532        0.009      339.006       12.045      858.447
11/27/2013  16:07:00       45.797       17.178       25.457       26.141       25.236       21.192      683.354      636.857      449.088        0.240        0.088       48.913       13.259        0.073      338.936       11.927      858.455
11/27/2013  16:08:00       40.379       38.263       45.876       31.144       22.560       16.113      969.946      508.960      259.630        0.347        0.087       55.628       11.249        0.041      339.024       12.075      858.462
11/27/2013  16:09:00       48.857       43.927       41.314       37.911       27.148       23.963     1437.237      737.003      574.232        0.439        0.137       65.700       23.334        0.126      339.015       12.059      858.465
11/27/2013  16:10:00       35.510       45.999       39.293       39.192       18.684       25.354     1535.980      349.083      642.816        0.372        0.126       58.111       27.483        0.224      339.016       12.061      858.465
11/27/2013  16:11:00       62.225       47.541       29.442       49.777       32.809       35.073     2477.716     1076.428     1230.114        0.589        0.239       78.308       22.339        0.081      338.920       11.899      858.468
11/27/2013  16:12:00      150.143       76.094       18.875       30.019       31.463       28.551      901.142      989.947      815.137        1.570        0.135      168.324       17.055        0.010      338.906       11.876      858.469
11/27/2013  16:13:00      105.361       49.748       23.207       56.494       45.053       24.583     3191.580     2029.759      604.301        0.997        0.291      116.515       17.268        0.022      338.863       11.803      858.463
11/27/2013  16:14:00       90.410       47.410       41.933       54.742       47.368       41.095     2996.679     2243.697     1688.825        0.955        0.346      102.086       34.628        0.115      338.819       11.730      858.459
11/27/2013  16:15:00      133.973       58.332       30.977       60.218       46.530       39.837     3626.228     2165.027     1586.979        1.484        0.369      146.121       21.588        0.022      338.800       11.697      858.459
11/27/2013  16:16:00      146.603       83.318       18.379       59.935       57.612       39.825     3592.204     3319.085     1586.060        1.863        0.425      168.625       17.148        0.010      338.759       11.627      858.452
11/27/2013  16:17:00      158.737       66.225       -0.985       54.446       52.737       30.939     2964.419     2781.147      957.203        1.814        0.335      171.998       20.729        0.015      338.704       11.535      858.458
11/27/2013  16:18:00      117.770       36.190       11.893       60.422       36.456       37.123     3650.780     1329.038     1378.110        1.084        0.318      123.205       29.299        0.057      338.667       11.474      858.470
11/27/2013  16:19:00      115.942       24.483       11.741       48.507       36.159       27.969     2352.922     1307.455      782.260        0.931        0.222      118.499       23.374        0.039      338.716       11.555      858.485
11/27/2013  16:20:00       84.936       27.524        9.637       41.600       27.390       29.056     1730.532      750.231      844.265        0.569        0.166       89.285       21.631        0.059      338.772       11.650      858.504
11/27/2013  16:21:00       61.639       27.337        0.146       22.421       23.684       16.224      502.716      560.915      263.225        0.294        0.066       67.429        8.104        0.014      338.759       11.628      858.519
11/27/2013  16:22:00       33.427       17.527       19.023       21.331       19.221       12.543      454.998      369.444      157.318        0.138        0.049       37.744        3.842        0.010      338.686       11.506      858.532
11/27/2013  16:23:00       27.851       11.555       11.895       23.470       28.802       18.728      550.836      829.555      350.735        0.139        0.087       30.153       18.280        0.368      338.712       11.550      858.535
11/27/2013  16:24:00       81.414       61.937        4.515       47.864       39.242       28.871     2290.998     1539.950      833.555        0.757        0.233      102.296       22.788        0.050      338.708       11.542      858.543
11/27/2013  16:25:00       75.889       68.883       20.066       61.251       38.312       33.941     3751.746     1467.835     1151.998        0.864        0.319      102.489       27.857        0.074      338.657       11.457      858.536
11/27/2013  16:26:00       41.447       36.396       10.349       41.823       29.439       21.051     1749.164      866.670      443.127        0.310        0.153       55.159        8.640        0.025      338.534       11.250      858.542
11/27/2013  16:27:00       84.759       59.672       10.726       54.798       34.024       17.133     3002.806     1157.613      293.541        0.766        0.223      103.657        8.857        0.007      338.556       11.288      858.533
11/27/2013  16:28:00       96.691       34.394       17.138       32.471       30.124       25.849     1054.377      907.449      668.185        0.673        0.132      102.626       16.318        0.025      338.564       11.301      858.541
11/27/2013  16:29:00       27.987       -9.168       19.995       38.389       28.089       23.190     1473.700      788.971      537.779        0.203        0.140       29.450       15.515        0.278      338.591       11.346      858.546
11/27/2013  16:30:00       -5.569      -14.277        8.711       16.371       17.933       17.131      268.004      321.610      293.466        0.060        0.044       15.325        9.255        0.365      338.601       11.362      858.557
11/27/2013  16:31:00       28.499      -63.559       11.673       38.214       31.683       20.881     1460.279     1003.787      436.036        0.394        0.145       69.656       16.515        0.056      338.719       11.560      858.569
11/27/2013  16:32:00      -55.950      -34.169       14.616       58.532       30.487       26.378     3425.985      929.485      695.801        0.478        0.253       65.559       34.698        0.280      338.569       11.309      858.567
11/27/2013  16:33:00      -94.270      -28.095       -5.863       25.925       32.723       19.268      672.106     1070.815      371.271        0.591        0.106       98.368       13.345        0.018      338.703       11.535      858.570
11/27/2013  16:34:00      -71.768      -31.913       -4.753       41.362       27.661       18.073     1710.778      765.122      326.636        0.450        0.140       78.543       19.852        0.064      338.731       11.582      858.575
11/27/2013  16:35:00      -84.833      -46.342       -0.443       39.889       22.871       20.729     1591.128      523.084      429.679        0.594        0.127       96.666       20.886        0.047      338.727       11.575      858.573
11/27/2013  16:36:00      -52.798      -47.851        4.982       34.206       34.079       20.669     1170.057     1161.387      427.221        0.393        0.138       71.256       19.783        0.077      338.691       11.516      858.574
11/27/2013  16:37:00      -75.991      -74.274        2.903       40.432       26.159       24.802     1634.738      684.269      615.145        0.712        0.147      106.260       27.175        0.065      338.699       11.528      858.578
11/27/2013  16:38:00      -72.978      -71.056      -10.238       30.618       29.722       18.354      937.481      883.425      336.872        0.632        0.108      101.856       13.410        0.017      338.693       11.516      858.582
11/27/2013  16:39:00      -78.053      -72.599       -6.361       29.028       26.772       20.580      842.597      716.762      423.527        0.669        0.099      106.596       14.792        0.019      338.639       11.427      858.587
11/27/2013  16:40:00      -68.477      -27.295       -8.017       39.995       15.938       13.974     1599.609      254.024      195.276        0.377        0.102       73.717       18.150        0.061      338.617       11.391      858.581
11/27/2013  16:41:00       12.466      -13.434       -1.797       16.550       27.641       14.191      273.907      764.011      201.371        0.079        0.062       18.327       10.638        0.337      338.585       11.337      858.591
11/27/2013  16:42:00        2.364       12.276       18.387       14.776       15.196       15.805      218.332      230.916      249.803        0.060        0.035       12.502        9.153        0.536      338.402       11.029      858.590
11/27/2013  16:43:00       62.381       24.956        2.827       12.769       20.976       10.972      163.046      439.988      120.390        0.262        0.036       67.187        3.857        0.003      338.497       11.188      858.585
11/27/2013  16:44:00       23.783        0.364       20.319       17.369       25.993       18.845      301.667      675.660      355.137        0.116        0.067       23.786       16.194        0.464      338.469       11.142      858.587
11/27/2013  16:45:00       41.523      -25.320       25.076       44.561       70.398       37.348     1985.691     4955.849     1394.883        0.566        0.417       48.634       42.445        0.762      338.486       11.170      858.589
11/27/2013  16:46:00       66.970      -57.032        9.601       61.162       57.357       40.367     3740.779     3289.818     1629.523        0.824        0.433       87.963       50.626        0.331      338.471       11.143      858.596
11/27/2013  16:47:00       31.288        5.799       26.446       22.811       27.670       28.879      520.343      765.608      833.978        0.192        0.106       31.821       23.683        0.554      338.381       10.993      858.611
11/27/2013  16:48:00       60.051      -60.852       -0.827       43.334       42.285       29.893     1877.816     1788.033      893.593        0.593        0.228       85.493       34.022        0.158      338.487       11.171      858.628
11/27/2013  16:49:00       30.454       -3.143       13.073       19.743       42.482       16.905      389.789     1804.749      285.779        0.179        0.124       30.616        9.607        0.098      338.374       10.981      858.646
11/27/2013  16:50:00       58.016       22.514        2.563       14.740       20.888       15.944      217.254      436.316      254.198        0.239        0.045       62.231        9.489        0.023      338.354       10.951      858.667
11/27/2013  16:51:00       58.294       54.138        6.664       29.201       32.293       28.918      852.716     1042.819      836.254        0.455        0.137       79.556       20.267        0.065      338.214       10.714      858.675
11/27/2013  16:52:00       41.603       65.386       -1.695       35.777       46.749       25.717     1280.008     2185.509      661.340        0.507        0.206       77.499       27.874        0.129      338.207       10.700      858.688
11/27/2013  16:53:00       52.430       49.105       19.350       52.337       29.172       28.597     2739.190      851.018      817.806        0.497        0.220       71.835       12.205        0.029      338.180       10.657      858.691
11/27/2013  16:54:00       71.728       65.044       13.527       41.121       27.111       22.126     1690.941      734.992      489.567        0.624        0.146       96.828       11.859        0.015      338.183       10.661      858.699
11/27/2013  16:55:00       56.358       63.805       -3.105       38.484       28.491       24.922     1480.995      811.719      621.118        0.508        0.146       85.130       16.317        0.037      338.140       10.588      858.701
11/27/2013  16:56:00       39.028       13.996        7.102       30.240       25.132       18.744      914.467      631.642      351.327        0.183        0.095       41.462       13.371        0.104      338.068       10.469      858.696
11/27/2013  16:57:00       77.958       43.023        8.944       22.627       14.017       15.160      511.969      196.485      229.820        0.447        0.047       89.041        8.110        0.008      338.080       10.489      858.707
11/27/2013  16:58:00       98.663       63.219       40.039       52.318       33.777       34.983     2737.166     1140.917     1223.787        1.022        0.255      117.179       34.588        0.087      338.092       10.509      858.713
11/27/2013  16:59:00      110.851       54.431       20.697       66.886       40.586       35.933     4473.758     1647.220     1291.154        1.154        0.371      123.493       27.189        0.048      338.161       10.623      858.724
11/27/2013  17:00:00      127.607      100.726       18.897       49.374       35.950       28.375     2437.762     1292.417      805.164        1.566        0.227      162.571       20.631        0.016      338.116       10.549      858.744
11/27/2013  17:01:00      102.375       40.905       14.222       51.203       34.198       25.893     2621.734     1169.505      670.440        0.841        0.223      110.244       21.594        0.038      338.049       10.436      858.748
11/27/2013  17:02:00       57.248       30.129        3.877       27.520       31.431       18.728      757.342      987.902      350.726        0.315        0.105       64.693       12.660        0.038      338.028       10.402      858.753
11/27/2013  17:03:00       72.960       41.599       12.464       25.934       17.954       20.306      672.555      322.340      412.314        0.431        0.070       83.986        6.882        0.007      338.004       10.361      858.741
11/27/2013  17:04:00      111.868       62.732       19.200       25.678       20.527       24.226      659.340      421.346      586.919        0.924        0.083      128.257       15.442        0.014      338.062       10.458      858.745
11/27/2013  17:05:00       88.775       39.406        7.776       19.384       20.412       17.805      375.731      416.634      317.023        0.530        0.055       97.128        9.350        0.009      338.043       10.425      858.759
11/27/2013  17:06:00       77.408       38.615        8.978       30.469       17.469       20.286      928.339      305.152      411.530        0.460        0.082       86.505       16.982        0.039      338.017       10.382      858.764
11/27/2013  17:07:00       90.889       43.328        6.187       27.078       19.050       18.918      733.207      362.914      357.898        0.581        0.073      100.688       16.636        0.027      338.001       10.357      858.769
11/27/2013  17:08:00       75.926       45.964       12.065       18.672       17.244       14.707      348.649      297.356      216.287        0.444        0.043       88.755        8.390        0.009      337.958       10.284      858.777
11/27/2013  17:09:00       69.021       37.398        2.020       25.047       19.110       15.174      627.358      365.183      230.251        0.369        0.061       78.502       13.156        0.028      337.930       10.236      858.782
11/27/2013  17:10:00       67.514       36.895        4.738       26.385       21.465       12.368      696.158      460.767      152.970        0.363        0.065       76.937       12.333        0.026      337.899       10.185      858.793
11/27/2013  17:11:00       64.151       46.014       12.656       36.569       25.021       25.046     1337.292      626.031      627.289        0.449        0.130       78.947       14.660        0.034      337.922       10.224      858.800
11/27/2013  17:12:00       48.237       35.258        4.575       25.545       21.435       16.660      652.543      459.460      277.553        0.249        0.069       59.749        7.101        0.014      337.859       10.116      858.812
11/27/2013  17:13:00       42.996       26.889        3.988       19.124       16.079       18.280      365.736      258.520      334.163        0.177        0.048       50.712       11.491        0.051      337.866       10.131      858.823
11/27/2013  17:14:00       19.755       13.667        3.905       15.068       13.569       10.338      227.030      184.109      106.877        0.056        0.026       24.022        7.861        0.107      337.737        9.913      858.822
11/27/2013  17:15:00       39.451       24.868        7.246       21.719       15.332       13.890      471.720      235.075      192.931        0.156        0.045       46.635        9.104        0.038      337.770        9.968      858.834
11/27/2013  17:16:00       21.576       37.117       -7.204       19.934       18.145       13.315      397.375      329.240      177.280        0.140        0.045       42.933        8.799        0.042      337.755        9.944      858.839
11/27/2013  17:17:00       26.511       47.891       -7.929       20.278       29.209       18.652      411.212      853.180      347.912        0.234        0.081       54.740       19.550        0.128      337.710        9.868      858.857
11/27/2013  17:18:00       39.690       63.095       -7.046       28.304       38.701       24.893      801.141     1497.761      619.674        0.426        0.146       74.540       21.632        0.084      337.684        9.825      858.863
11/27/2013  17:19:00       46.303       53.200       -1.311       29.245       36.394       24.455      855.248     1324.549      598.027        0.388        0.139       70.528       23.395        0.110      337.675        9.810      858.868
11/27/2013  17:20:00       51.504       67.294        0.128       31.497       43.621       26.527      992.051     1902.833      703.690        0.539        0.180       84.742       21.854        0.067      337.621        9.718      858.871
11/27/2013  17:21:00       51.368       54.439       -1.276       24.715       25.535       18.785      610.844      652.060      352.858        0.361        0.081       74.849       13.073        0.031      337.574        9.639      858.883
11/27/2013  17:22:00       47.612      111.536      -15.876       27.709       56.739       27.002      767.803     3219.294      729.094        0.984        0.236      121.273       21.149        0.030      337.580        9.650      858.893
11/27/2013  17:23:00       34.360       93.686       -7.981       28.198       45.727       27.257      795.134     2090.969      742.961        0.682        0.181       99.789       25.865        0.067      337.507        9.527      858.908
11/27/2013  17:24:00       31.194       93.726      -14.266       27.560       40.541       19.814      759.534     1643.561      392.604        0.638        0.140       98.781       21.630        0.048      337.515        9.542      858.915
11/27/2013  17:25:00       28.024       91.467      -17.357       25.862       40.114       18.906      668.852     1609.155      357.442        0.604        0.132       95.664       17.379        0.033      337.511        9.534      858.922
11/27/2013  17:26:00       29.662       85.438       -7.994       30.370       34.270       20.006      922.324     1174.400      400.250        0.537        0.125       90.441       19.449        0.046      337.507        9.527      858.923
11/27/2013  17:27:00       23.188      106.436      -12.526       34.339       31.322       14.811     1179.192      981.044      219.359        0.720        0.119      108.933       12.864        0.014      337.540        9.583      858.933
11/27/2013  17:28:00       18.423      106.157      -15.308       22.571       29.588       19.175      509.444      875.460      367.694        0.680        0.088      107.744       17.012        0.025      337.538        9.579      858.930
11/27/2013  17:29:00       19.032       96.768       -7.836       28.387       35.442       25.913      805.795     1256.156      671.500        0.626        0.137       98.622       19.392        0.039      337.496        9.510      858.928
11/27/2013  17:30:00       -2.017      125.264      -22.001       24.427       27.588       13.590      596.664      761.124      184.688        0.886        0.077      125.280       13.923        0.012      337.556        9.610      858.915
11/27/2013  17:31:00      -20.195       90.422      -14.069       25.838       42.337       21.186      667.618     1792.414      448.865        0.584        0.145       92.649       25.261        0.074      337.618        9.714      858.904
11/27/2013  17:32:00      -10.260       68.539       -2.735       30.146       34.530       16.432      908.791     1192.348      270.023        0.359        0.119       69.302       14.571        0.044      337.542        9.587      858.903
11/27/2013  17:33:00      -12.403       61.551       -6.348       19.550       24.467       17.473      382.206      598.623      305.316        0.263        0.064       62.789       15.511        0.061      337.585        9.658      858.905
11/27/2013  17:34:00        8.729      110.972      -11.302       37.027       44.448       23.420     1371.011     1975.665      548.489        0.821        0.195      111.315       18.562        0.028      337.490        9.499      858.920
11/27/2013  17:35:00        7.313       93.898      -15.580       36.970       26.766       16.419     1366.759      716.443      269.579        0.573        0.118       94.182       10.110        0.012      337.457        9.443      858.921
11/27/2013  17:36:00      -10.713       40.683      -13.440       23.455       17.440       12.784      550.117      304.145      163.429        0.148        0.051       42.070       10.617        0.064      337.366        9.291      858.927
11/27/2013  17:37:00      -14.093      -12.577       -6.262       27.614       25.286       11.495      762.555      639.362      132.127        0.096        0.077       18.889       10.749        0.324      337.310        9.197      858.942
11/27/2013  17:38:00      -48.237       -6.026       -9.330       22.755       11.280       14.708      517.795      127.244      216.313        0.166        0.043       48.612       15.553        0.102      337.255        9.108      858.940
11/27/2013  17:39:00      -57.761      -10.824      -12.673       19.484       12.377       15.213      379.614      153.198      231.429        0.219        0.038       58.767       12.327        0.044      337.291        9.166      858.943
11/27/2013  17:40:00      -51.875       -2.150       -6.273       25.226       18.367       10.933      636.346      337.349      119.533        0.191        0.055       51.920       11.241        0.047      337.215        9.041      858.945
11/27/2013  17:41:00      -59.677       -6.636      -10.081       23.957        9.522       12.124      573.935       90.659      146.987        0.226        0.041       60.044       14.077        0.055      337.185        8.987      858.944
11/27/2013  17:42:00      -55.128      -10.875       -7.278       22.209       20.260       12.654      493.242      410.467      160.123        0.214        0.053       56.190       12.653        0.051      337.164        8.954      858.946
11/27/2013  17:43:00      -71.848      -11.463       -6.501       16.740       14.099       12.858      280.238      198.783      165.331        0.299        0.032       72.757        7.842        0.012      337.102        8.850      858.949
11/27/2013  17:44:00      -30.052      -10.517        0.763       22.320       15.754       12.971      498.177      248.176      168.240        0.096        0.046       31.839       12.893        0.164      337.039        8.743      858.957
11/27/2013  17:45:00      -45.209      -12.161       -3.052       32.786       17.993       10.910     1074.927      323.764      119.019        0.186        0.076       46.816       10.581        0.051      337.014        8.702      858.962
11/27/2013  17:46:00      -63.815       21.956      -13.982       24.522       23.359       16.399      601.315      545.661      268.934        0.308        0.071       67.486        9.719        0.021      337.122        8.884      858.964
11/27/2013  17:47:00      -29.173       67.077      -10.337       22.288       26.703       15.680      496.770      713.076      245.860        0.346        0.073       73.147       10.651        0.021      337.326        9.223      858.977
11/27/2013  17:48:00       16.115        9.107       -6.870       20.184       15.464        9.473      407.380      239.126       89.740        0.056        0.037       18.510        8.543        0.213      337.218        9.044      858.974
11/27/2013  17:49:00      -36.359       -7.906       -8.198       21.268       10.680       10.543      452.309      114.056      111.165        0.106        0.034       37.208       10.120        0.074      337.081        8.814      858.981
11/27/2013  17:50:00      -29.669      -19.570       -6.861       16.833       12.114        7.524      283.366      146.746       56.606        0.090        0.024       35.542        8.306        0.055      337.044        8.751      858.979
11/27/2013  17:51:00      -57.865      -16.145      -11.812       12.543       12.408        7.288      157.324      153.971       53.121        0.206        0.018       60.075        4.335        0.005      336.961        8.612      858.989
11/27/2013  17:52:00      -63.151      -20.412      -11.205       17.097       14.045       12.443      292.304      197.264      154.831        0.259        0.032       66.368       13.176        0.039      336.883        8.482      858.993
11/27/2013  17:53:00      -93.336      -18.267      -12.881       14.643       14.067        9.913      214.410      197.894       98.262        0.486        0.026       95.107        4.559        0.002      336.850        8.430      859.002
11/27/2013  17:54:00      -80.135      -20.003       -4.443       20.125       15.594       14.077      405.006      243.162      198.173        0.384        0.042       82.594       11.625        0.020      336.757        8.274      859.011
11/27/2013  17:55:00      -89.973       -5.036       -1.303       29.229       26.756       18.392      854.324      715.864      338.251        0.501        0.095       90.114       15.164        0.028      336.750        8.261      859.022
11/27/2013  17:56:00      -78.692      -19.599       -5.440       25.804       18.518       14.812      665.829      342.926      219.407        0.392        0.061       81.095       15.379        0.036      336.826        8.389      859.034
11/27/2013  17:57:00      -66.964      -20.611      -14.205       12.374       13.508        9.122      153.104      182.478       83.207        0.276        0.021       70.064        2.676        0.001      336.810        8.363      859.036
11/27/2013  17:58:00      -92.405      -14.531      -21.664       13.219       13.060        9.141      174.732      170.573       83.550        0.482        0.021       93.540        2.436        0.001      336.605        8.020      859.048
11/27/2013  17:59:00      -73.005      -18.644       -8.095       18.796       20.842       14.091      353.301      434.381      198.545        0.336        0.049       75.348       10.711        0.020      336.633        8.065      859.050
11/27/2013  18:00:00      -74.039      -21.394       -7.716       20.240       13.298       11.380      409.649      176.827      129.496        0.336        0.036       77.068        9.845        0.016      336.686        8.156      859.050
11/27/2013  18:01:00      -73.607       -3.738       -2.109       37.942       25.624       17.454     1439.599      656.611      304.642        0.392        0.120       73.702       16.710        0.051      336.655        8.104      859.059
11/27/2013  18:02:00      -64.277        3.208       -7.654       41.751       21.473       15.011     1743.160      461.105      225.337        0.331        0.121       64.356        9.008        0.020      336.642        8.083      859.066
11/27/2013  18:03:00      -90.657      -18.906       -5.915       19.386       20.712       13.365      375.799      428.996      178.611        0.480        0.049       92.608        9.282        0.010      336.586        7.987      859.074
11/27/2013  18:04:00     -104.312       -5.487       -9.624       35.718       23.581       20.184     1275.756      556.070      407.404        0.662        0.112      104.456       21.805        0.044      336.490        7.827      859.081
11/27/2013  18:05:00      -93.419      -16.880       -8.221       27.267       25.730       15.778      743.511      662.052      248.933        0.537        0.083       94.932       12.897        0.018      336.419        7.706      859.087
11/27/2013  18:06:00     -107.490      -21.949      -15.596       28.017       23.997       16.146      784.961      575.853      260.691        0.695        0.081      109.708       12.002        0.012      336.392        7.663      859.098
11/27/2013  18:07:00      -95.576       -5.917       -5.046       43.325       32.378       26.338     1877.097     1048.320      693.672        0.641        0.181       95.759       23.675        0.061      336.433        7.733      859.104
11/27/2013  18:08:00     -102.899       -3.450      -14.393       34.824       38.400       23.732     1212.711     1474.593      563.195        0.703        0.163      102.956       20.875        0.041      336.488        7.824      859.123
11/27/2013  18:09:00     -106.257       -7.344      -13.969       35.435       31.752       26.846     1255.622     1008.198      720.690        0.726        0.149      106.510       20.864        0.038      336.381        7.644      859.130
11/27/2013  18:10:00      -92.192      -10.764       -3.786       27.532       31.898       19.860      757.994     1017.496      394.404        0.540        0.108       92.818       12.569        0.018      336.316        7.535      859.132
11/27/2013  18:11:00      -86.863      -15.313       -5.138       24.155       24.951       14.508      583.474      622.574      210.491        0.461        0.071       88.202       12.403        0.020      336.256        7.437      859.138
11/27/2013  18:12:00      -99.348       -7.896      -13.207       35.719       27.582       20.253     1275.851      760.778      410.195        0.628        0.122       99.662       21.568        0.047      336.243        7.414      859.133
11/27/2013  18:13:00      -96.636      -10.275      -14.481       27.712       20.524       16.749      767.940      421.216      280.543        0.556        0.073       97.181        8.918        0.008      336.302        7.512      859.142
11/27/2013  18:14:00      -77.175       -8.042       -7.208       25.941       20.530       12.709      672.915      421.494      161.508        0.366        0.063       77.593       12.991        0.028      336.235        7.400      859.140
11/27/2013  18:15:00      -55.519       -7.633       -7.066       23.418       17.161       12.471      548.413      294.512      155.535        0.209        0.050       56.041       12.808        0.052      336.239        7.406      859.138
11/27/2013  18:16:00      -21.428       -6.592       -1.356       26.670       13.692       13.688      711.307      187.459      187.351        0.080        0.054       22.419       12.958        0.334      336.235        7.402      859.135
11/27/2013  18:17:00      -55.868       -5.271      -12.241       17.271       11.802       11.385      298.280      139.282      129.608        0.193        0.028       56.116        6.285        0.013      336.339        7.575      859.124
11/27/2013  18:18:00      -45.962        0.159       -4.715       14.724       13.129        7.605      216.787      172.382       57.836        0.129        0.022       45.963        3.769        0.007      336.380        7.644      859.121
11/27/2013  18:19:00      -72.179      -12.592      -13.195       18.380       12.243        8.530      337.840      149.884       72.769        0.305        0.028       73.269        8.844        0.015      336.298        7.504      859.115
11/27/2013  18:20:00      -40.635      -17.428        0.375       17.674       17.780       17.387      312.365      316.120      302.301        0.144        0.047       44.215       13.148        0.088      336.380        7.643      859.123
11/27/2013  18:21:00      -57.037       11.469      -13.249       22.704       31.036       12.161      515.454      963.263      147.896        0.259        0.081       58.179       11.728        0.041      336.475        7.802      859.131
11/27/2013  18:22:00      -45.434      -18.088       -4.433       14.808       16.936       13.373      219.262      286.825      178.844        0.155        0.034       48.903       11.753        0.058      336.209        7.356      859.123
11/27/2013  18:23:00      -53.042      -24.421       -6.232       11.517       14.187        9.367      132.635      201.273       87.738        0.194        0.021       58.393        7.476        0.016      336.193        7.329      859.117
11/27/2013  18:24:00      -73.934      -31.990      -10.204       13.407       13.946       11.486      179.755      194.490      131.920        0.355        0.025       80.559        5.830        0.005      336.166        7.285      859.115
11/27/2013  18:25:00      -79.039      -12.600       -8.386       28.170       17.114       12.410      793.552      292.889      154.016        0.386        0.062       80.037        8.662        0.012      336.064        7.114      859.113
11/27/2013  18:26:00      -71.046      -23.324       -5.091       33.003       16.340       10.578     1089.191      266.996      111.886        0.354        0.073       74.777       11.007        0.022      336.041        7.076      859.124
11/27/2013  18:27:00      -20.062       -2.082       -2.202       20.708       13.079        9.752      428.812      171.063       95.106        0.055        0.035       20.170        9.478        0.221      336.101        7.176      859.116
11/27/2013  18:28:00      -59.759      -14.434       -4.088       23.833       13.337       12.950      568.002      177.878      167.705        0.235        0.046       61.477       11.708        0.036      336.126        7.218      859.126
11/27/2013  18:29:00      -68.172      -13.901       -9.550       16.320       16.418       12.570      266.330      269.536      158.011        0.281        0.035       69.575        4.010        0.003      336.049        7.090      859.125
11/27/2013  18:30:00      -69.296       -4.103      -12.212       19.103       10.966       15.020      364.926      120.257      225.586        0.284        0.036       69.417       14.016        0.041      336.175        7.300      859.117
11/27/2013  18:31:00      -62.823       -5.166       -8.615       21.634       13.765       13.884      468.035      189.487      192.755        0.245        0.043       63.035        8.523        0.018      336.288        7.489      859.127
11/27/2013  18:32:00      -50.848      -26.634       -6.133        9.980       10.439        7.467       99.599      108.977       55.749        0.180        0.013       57.401        5.043        0.008      336.277        7.472      859.137
11/27/2013  18:33:00      -40.554      -15.420       -3.816       12.434       14.927       10.819      154.614      222.812      117.057        0.120        0.025       43.387        8.216        0.036      336.277        7.470      859.137
11/27/2013  18:34:00      -45.160      -27.188      -12.727        9.440        8.304        7.556       89.116       68.951       57.094        0.158        0.011       52.712        3.217        0.004      336.268        7.456      859.143
11/27/2013  18:35:00      -40.007      -25.771       -9.519       14.946        8.163        9.546      223.381       66.636       91.127        0.137        0.019       47.589        7.401        0.024      336.280        7.479      859.149
11/27/2013  18:36:00      -45.088      -24.682       -7.860       12.352        9.960        6.653      152.570       99.207       44.260        0.150        0.015       51.402        3.904        0.006      336.266        7.453      859.159
11/27/2013  18:37:00      -55.004      -26.137       -6.868        9.269       10.209        6.625       85.912      104.227       43.889        0.199        0.012       60.898        4.775        0.006      336.229        7.390      859.177
11/27/2013  18:38:00      -51.177      -34.173      -10.893       10.544       11.608       10.114      111.179      134.755      102.285        0.213        0.017       61.538        5.079        0.007      336.174        7.301      859.190
11/27/2013  18:39:00      -66.157      -31.255       -9.347       15.201       16.700       11.484      231.068      278.902      131.887        0.304        0.032       73.168        8.359        0.013      336.070        7.125      859.198
11/27/2013  18:40:00      -78.369      -12.053       -5.113       28.228       23.639       15.702      796.800      558.815      246.551        0.396        0.080       79.291       12.191        0.024      336.046        7.084      859.205
11/27/2013  18:41:00      -91.225      -13.315      -10.557       29.068       25.131       16.054      844.977      631.545      257.728        0.517        0.087       92.191       11.558        0.016      335.950        6.924      859.215
11/27/2013  18:42:00      -92.583      -19.348       -8.615       35.983       24.986       18.912     1294.743      624.308      357.649        0.565        0.114       94.583       18.577        0.039      335.889        6.824      859.214
11/27/2013  18:43:00      -53.155      -22.820        1.449       30.040       20.924       17.107      902.375      437.830      292.649        0.249        0.082       57.846       17.042        0.087      335.853        6.763      859.232
11/27/2013  18:44:00      -59.631      -19.799       -1.907       25.096       22.858       17.009      629.833      522.509      289.315        0.270        0.072       62.832       13.469        0.046      335.914        6.865      859.244
11/27/2013  18:45:00      -41.132      -24.181       -0.724       27.237       18.151       14.603      741.869      329.450      213.257        0.178        0.064       47.714       12.275        0.066      335.957        6.935      859.239
11/27/2013  18:46:00      -82.987      -19.774       -5.251       16.723       16.025       11.786      279.652      256.800      138.901        0.399        0.034       85.310        8.678        0.010      335.893        6.829      859.232
11/27/2013  18:47:00      -71.809      -31.713       -2.459       28.676       21.632       14.552      822.300      467.930      211.762        0.383        0.075       78.500       15.221        0.038      335.911        6.861      859.229
11/27/2013  18:48:00      -92.546       -7.785       -2.906       29.908       19.441       14.734      894.466      377.964      217.104        0.506        0.074       92.873       10.755        0.013      335.907        6.854      859.213
11/27/2013  18:49:00      -88.537       -7.603       -0.291       32.382       28.015       18.860     1048.611      784.814      355.714        0.504        0.109       88.863       16.019        0.032      335.910        6.858      859.209
11/27/2013  18:50:00     -108.160       -2.054       -6.665       28.713       26.930       18.746      824.432      725.215      351.405        0.682        0.095      108.179       13.483        0.016      335.835        6.733      859.216
11/27/2013  18:51:00      -73.486      -10.219        1.518       37.364       26.511       18.726     1396.101      702.835      350.649        0.398        0.122       74.194       21.654        0.085      335.784        6.648      859.212
11/27/2013  18:52:00     -100.249      -22.876       -7.655       24.513       22.666       16.543      600.892      513.739      273.669        0.601        0.069      102.826       13.187        0.016      335.783        6.646      859.210
11/27/2013  18:53:00      -68.015      -22.046       -2.926       32.885       24.064       13.867     1081.438      579.074      192.283        0.349        0.093       71.499       12.731        0.032      335.818        6.705      859.214
11/27/2013  18:54:00      -43.447      -14.757       -5.082       26.818       18.687       14.120      719.203      349.205      199.374        0.170        0.063       45.885       11.779        0.066      335.815        6.700      859.222
11/27/2013  18:55:00      -50.251       -6.823       -1.246       21.347       24.802       12.956      455.707      615.139      167.869        0.191        0.062       50.713       11.099        0.048      335.810        6.692      859.221
11/27/2013  18:56:00      -35.583      -25.093        3.595       33.559       22.069       17.990     1126.184      487.057      323.624        0.192        0.097       43.541       19.705        0.205      335.849        6.756      859.224
11/27/2013  18:57:00      -52.753      -10.009        1.781       37.330       24.563       19.084     1393.562      603.339      364.217        0.262        0.118       53.694       18.538        0.119      335.823        6.714      859.234
11/27/2013  18:58:00      -63.630      -12.090       -3.780       29.609       25.100       20.669      876.668      630.008      427.197        0.307        0.097       64.768       15.824        0.060      335.802        6.679      859.237
11/27/2013  18:59:00      -34.016      -13.024       -3.661       27.528       19.916       14.717      757.780      396.667      216.595        0.136        0.069       36.425       11.679        0.103      335.815        6.701      859.237
11/27/2013  19:00:00      -41.275       -7.492       -2.697       30.553       22.488       15.134      933.503      505.728      229.032        0.172        0.083       41.949       15.559        0.138      335.854        6.765      859.241
11/27/2013  19:01:00      -46.262       -7.571      -10.996       19.865       12.995        8.911      394.633      168.865       79.403        0.148        0.032       46.878        5.570        0.014      335.904        6.848      859.247
11/27/2013  19:02:00      -53.315      -11.252       -9.059       16.292       15.198       10.292      265.433      230.971      105.919        0.183        0.030       54.490        8.486        0.024      335.899        6.840      859.241
11/27/2013  19:03:00      -69.900       -9.242      -11.101       13.151       14.646       10.612      172.957      214.511      112.604        0.280        0.025       70.508        6.894        0.010      335.886        6.818      859.242
11/27/2013  19:04:00      -67.671      -15.356       -7.484       21.584       16.029       10.048      465.872      256.923      100.965        0.285        0.041       69.392        8.777        0.016      335.997        7.003      859.256
11/27/2013  19:05:00      -23.919       -2.946       -9.547       14.229       13.853       10.502      202.461      191.900      110.285        0.059        0.025       24.100        9.691        0.162      335.929        6.890      859.265
11/27/2013  19:06:00      -40.378       -4.601       -7.936       14.956       11.986        8.406      223.689      143.667       70.657        0.108        0.022       40.639        7.318        0.032      335.860        6.776      859.264
11/27/2013  19:07:00      -69.775      -10.155       -9.785       23.089       13.825       13.395      533.105      191.137      179.433        0.299        0.045       70.510       11.961        0.029      335.893        6.830      859.258
11/27/2013  19:08:00      -52.480      -13.498       -3.622       17.714       16.229       14.961      313.768      263.386      223.844        0.188        0.040       54.188       12.741        0.055      335.838        6.739      859.274
11/27/2013  19:09:00      -70.763       -2.949      -13.062       26.930       13.989       13.532      725.200      195.681      183.120        0.315        0.055       70.825        6.247        0.008      335.753        6.598      859.269
11/27/2013  19:10:00      -84.338       -5.149      -15.723       27.250       16.662       12.456      742.585      277.619      155.163        0.428        0.059       84.495       10.536        0.016      335.709        6.524      859.256
11/27/2013  19:11:00     -109.708       -2.239      -23.799       21.683       15.111       12.356      470.160      228.357      152.669        0.673        0.043      109.731        7.669        0.005      335.706        6.518      859.249
11/27/2013  19:12:00      -93.538       -9.472      -11.036       26.653       17.678       15.898      710.383      312.517      252.740        0.512        0.064       94.016       14.344        0.023      335.652        6.428      859.250
11/27/2013  19:13:00      -86.951      -27.045      -12.507       20.730       19.674       11.995      429.721      387.080      143.878        0.470        0.048       91.060        8.472        0.009      335.633        6.397      859.265
11/27/2013  19:14:00      -89.725      -19.627      -14.016       22.036       28.841       14.615      485.565      831.809      213.595        0.508        0.077       91.847       14.585        0.025      335.611        6.361      859.276
11/27/2013  19:15:00      -76.519       -6.918      -13.964       18.891       19.850       11.628      356.861      394.004      135.209        0.349        0.044       76.831        6.141        0.006      335.722        6.546      859.276
11/27/2013  19:16:00      -82.376        3.203      -15.511       26.831       16.330       17.102      719.898      266.660      292.469        0.416        0.064       82.438       14.917        0.033      335.671        6.462      859.282
11/27/2013  19:17:00      -82.919       21.201      -17.242       23.564       23.742       13.663      555.241      563.669      186.675        0.446        0.065       85.586       11.408        0.018      335.899        6.840      859.288
11/27/2013  19:18:00      -77.903        7.679      -22.765       16.316       12.822       14.388      266.222      164.396      207.004        0.364        0.032       78.281       10.691        0.019      335.787        6.655      859.309
11/27/2013  19:19:00      -79.935       10.598      -14.544       16.450       21.634       11.670      270.614      468.045      136.196        0.379        0.044       80.634        8.157        0.010      335.864        6.782      859.317
11/27/2013  19:20:00      -64.905       14.249      -14.953       15.684       18.563       12.575      245.982      344.590      158.119        0.269        0.037       66.451        9.275        0.019      335.890        6.826      859.330
11/27/2013  19:21:00      -76.857       20.300       -9.651       18.298       17.828       15.916      334.811      317.854      253.314        0.366        0.045       79.493       11.755        0.022      336.140        7.241      859.344
11/27/2013  19:22:00      -75.346        7.237      -14.051       12.719        9.629        9.230      161.762       92.713       85.197        0.313        0.017       75.693        5.104        0.005      335.815        6.701      859.361
11/27/2013  19:23:00      -83.774       14.682      -19.966       23.885       18.690       11.425      570.503      349.308      130.525        0.434        0.053       85.051        7.891        0.009      335.648        6.422      859.362
11/27/2013  19:24:00      -72.642        7.139      -20.384       13.698       15.521       12.886      187.628      240.889      166.062        0.317        0.030       72.992        8.995        0.015      335.695        6.501      859.363
11/27/2013  19:25:00      -51.550        1.447      -16.360       14.407       13.649        9.937      207.566      186.287       98.747        0.171        0.025       51.570        8.297        0.026      335.691        6.494      859.365
11/27/2013  19:26:00      -50.021        4.826      -10.882       11.510       16.440        7.822      132.474      270.266       61.189        0.155        0.023       50.253        4.984        0.010      335.800        6.676      859.378
11/27/2013  19:27:00      -53.980       19.171       -8.699       18.786       25.791       12.654      352.898      665.183      160.114        0.227        0.059       57.283       12.222        0.046      336.009        7.024      859.379
11/27/2013  19:28:00      -49.819       40.602       -9.695       14.138       24.413       12.428      199.876      596.013      154.458        0.259        0.048       64.268        9.960        0.024      336.181        7.310      859.393
11/27/2013  19:29:00      -40.828        5.357       -6.529       13.777       24.308        9.521      189.795      590.897       90.645        0.130        0.044       41.178        7.205        0.031      335.938        6.905      859.388
11/27/2013  19:30:00      -30.674       45.036       -9.006       31.178       34.235       19.340      972.071     1172.066      374.041        0.278        0.126       54.490       17.365        0.102      336.234        7.399      859.395
11/27/2013  19:31:00      -39.774        3.268       -7.960       15.748       17.132       13.263      248.013      293.512      175.906        0.119        0.036       39.908       11.587        0.084      335.886        6.819      859.405
11/27/2013  19:32:00      -52.351        0.997       -6.200       22.625       15.186       13.683      511.891      230.618      187.218        0.185        0.046       52.360       10.108        0.037      335.764        6.616      859.406
11/27/2013  19:33:00      -30.153       37.409       -7.042       23.601       30.110       14.645      556.991      906.626      214.488        0.202        0.084       48.049       15.599        0.105      336.100        7.176      859.401
11/27/2013  19:34:00      -23.978       36.845        1.733       27.507       23.343       14.964      756.636      544.895      223.929        0.173        0.076       43.960       10.254        0.054      336.207        7.353      859.400
11/27/2013  19:35:00      -21.215       14.171       -0.917       17.616       18.026       11.220      310.328      324.948      125.890        0.071        0.038       25.513       10.175        0.159      335.907        6.853      859.412
11/27/2013  19:36:00      -41.406       -4.682        0.934       17.471       10.969       10.474      305.232      120.328      109.696        0.114        0.027       41.670        6.324        0.023      335.682        6.479      859.422
11/27/2013  19:37:00      -52.508        5.944      -15.135       15.253       13.670        8.774      232.667      186.857       76.984        0.176        0.025       52.843        5.924        0.013      335.710        6.527      859.418
11/27/2013  19:38:00      -34.785       -3.886      -11.218       15.232       14.370       10.607      232.008      206.510      112.504        0.095        0.028       35.002        6.870        0.039      335.651        6.428      859.419
11/27/2013  19:39:00      -37.989       -5.799      -12.299       10.096       11.617        7.344      101.926      134.966       53.941        0.096        0.015       38.429        6.308        0.027      335.718        6.539      859.424
11/27/2013  19:40:00      -45.951       -2.881       -8.573       27.724       18.616       16.951      768.600      346.542      287.322        0.180        0.070       46.041       16.687        0.131      335.748        6.589      859.431
11/27/2013  19:41:00      -54.075       -7.534      -14.489       26.376       13.433       13.473      695.699      180.455      181.520        0.212        0.053       54.598       10.056        0.034      335.513        6.197      859.438
11/27/2013  19:42:00      -27.259       38.010       -8.871       27.833       36.557       13.120      774.655     1336.379      172.144        0.227        0.114       46.774       10.545        0.051      335.896        6.835      859.441
11/27/2013  19:43:00      -26.650       -3.347        0.811       31.146       28.006       18.400      970.104      784.335      338.561        0.141        0.105       26.860       15.689        0.341      335.644        6.414      859.440
11/27/2013  19:44:00      -95.892      -14.111      -16.065       15.433       14.248       10.554      238.168      203.003      111.395        0.510        0.028       96.925       10.751        0.012      335.357        5.935      859.424
11/27/2013  19:45:00      -62.406      -21.412       -5.206       17.058       16.598       11.925      290.972      275.492      142.208        0.254        0.035       65.977        8.766        0.018      335.262        5.778      859.432
11/27/2013  19:46:00      -68.828       -9.099       -2.306       25.428       16.375       16.834      646.582      268.127      283.390        0.301        0.060       69.426       13.762        0.039      335.255        5.768      859.446
11/27/2013  19:47:00     -115.600       -5.833      -15.889       23.208       17.088       15.278      538.602      292.012      233.428        0.736        0.053      115.747        9.179        0.006      335.200        5.675      859.458
11/27/2013  19:48:00      -54.639       -1.375       -3.310       33.241       20.343       14.979     1104.948      413.824      224.382        0.237        0.087       54.656       12.640        0.053      335.210        5.691      859.457
11/27/2013  19:49:00      -94.576      -17.270      -11.756       28.815       25.758       18.511      830.279      663.476      342.659        0.561        0.092       96.140       14.544        0.023      335.202        5.679      859.458
11/27/2013  19:50:00     -110.116       -5.819      -11.583       27.904       18.779       17.645      778.649      352.661      311.339        0.687        0.072      110.269       14.702        0.018      335.165        5.615      859.457
11/27/2013  19:51:00      -88.816       -2.311       -4.347       37.481       26.054       16.591     1404.800      678.816      275.258        0.514        0.118       88.847       14.994        0.028      335.180        5.643      859.457
11/27/2013  19:52:00      -40.176      -18.834       -3.199       24.509       25.002       12.528      600.697      625.092      156.951        0.168        0.069       44.372        7.966        0.032      335.082        5.481      859.447
11/27/2013  19:53:00      -94.888      -35.605       -9.270       23.534       17.640       12.291      553.866      311.183      151.073        0.569        0.051      101.348        9.146        0.008      335.050        5.428      859.442
11/27/2013  19:54:00      -99.118      -27.124       -7.741       23.146       24.475       14.751      535.730      599.017      217.585        0.599        0.068      102.763       13.091        0.016      335.067        5.454      859.438
11/27/2013  19:55:00     -106.093      -34.638       -4.282       24.671       26.907       14.293      608.657      724.010      204.292        0.701        0.077      111.604       10.879        0.010      335.038        5.406      859.447
11/27/2013  19:56:00      -68.784      -22.450        3.055       25.939       17.669       15.005      672.854      312.192      225.143        0.323        0.061       72.355       15.106        0.044      335.085        5.485      859.454
11/27/2013  19:57:00      -50.922      -50.289       -1.481       25.707       21.551       13.994      660.874      464.461      195.830        0.322        0.066       71.568       12.911        0.033      335.183        5.648      859.458
11/27/2013  19:58:00      -50.913      -44.668       -3.868       21.599       19.727       13.526      466.511      389.138      182.964        0.282        0.052       67.730       10.960        0.026      335.288        5.820      859.468
11/27/2013  19:59:00      -44.072      -45.407       -3.629       23.929       19.550       15.065      572.621      382.186      226.941        0.260        0.059       63.278       15.443        0.060      335.367        5.952      859.486
11/27/2013  20:00:00      -44.994      -69.836       -5.839       18.041       15.060        9.256      325.483      226.811       85.672        0.379        0.032       83.076        7.529        0.008      335.422        6.044      859.494
11/27/2013  20:01:00      -57.226      -52.451        1.406       24.154       20.710       14.356      583.416      428.900      206.103        0.362        0.061       77.627        6.898        0.008      335.344        5.914      859.492
11/27/2013  20:02:00     -107.983      -96.324       -2.648       41.715       39.611       21.970     1740.153     1568.995      482.682        1.237        0.190      144.702       17.624        0.015      335.205        5.684      859.496
11/27/2013  20:03:00     -135.065      -76.602      -10.746       52.008       43.209       30.385     2704.806     1867.001      923.261        1.486        0.275      155.275       18.780        0.015      335.152        5.595      859.495
11/27/2013  20:04:00     -139.878     -103.253       -1.589       57.658       45.497       32.059     3324.406     2069.983     1027.791        1.832        0.321      173.859       29.620        0.029      335.099        5.508      859.483
11/27/2013  20:05:00      -97.036      -71.065       -1.398       45.033       36.910       26.095     2027.963     1362.372      680.926        0.927        0.204      120.275       18.859        0.025      335.040        5.411      859.475
11/27/2013  20:06:00     -108.780      -70.506       -3.417       42.127       30.115       22.555     1774.695      906.912      508.706        1.000        0.160      129.631       21.098        0.026      335.114        5.533      859.471
11/27/2013  20:07:00      -59.919      -65.789       -3.020       49.205       30.287       22.740     2421.173      917.281      517.123        0.589        0.193       88.986       24.707        0.077      335.118        5.539      859.470
11/27/2013  20:08:00      -66.638      -52.999       -1.381       36.745       25.483       16.717     1350.188      649.379      279.466        0.476        0.114       85.144       18.184        0.046      335.123        5.548      859.462
11/27/2013  20:09:00      -46.169      -79.073       -7.764       32.240       23.849       15.381     1039.449      568.786      236.565        0.514        0.092       91.565       14.645        0.026      335.113        5.533      859.471
11/27/2013  20:10:00      -84.371      -89.056       -9.388       32.907       32.107       17.033     1082.875     1030.866      290.119        0.877        0.120      122.677       16.995        0.019      335.090        5.495      859.461
11/27/2013  20:11:00      -83.537      -63.641        5.516       46.121       31.839       25.279     2127.156     1013.750      639.031        0.742        0.189      105.017       21.994        0.044      335.058        5.441      859.461
11/27/2013  20:12:00     -124.203      -65.563       -0.416       62.439       27.249       21.918     3898.626      742.502      480.417        1.242        0.256      140.445       28.606        0.041      335.050        5.428      859.459
11/27/2013  20:13:00     -115.943      -58.940        9.264       42.910       31.395       24.300     1841.284      985.615      590.473        1.021        0.171      130.064       24.781        0.036      334.942        5.248      859.459
11/27/2013  20:14:00      -91.547      -54.807        0.984       38.431       29.626       20.367     1476.976      877.704      414.806        0.708        0.138      106.698       17.575        0.027      334.950        5.263      859.464
11/27/2013  20:15:00      -81.268      -50.544        1.561       42.276       28.370       25.063     1787.237      804.885      628.144        0.619        0.161       95.704       22.102        0.053      334.976        5.305      859.470
11/27/2013  20:16:00     -104.304      -51.164        5.868       44.070       32.868       23.653     1942.186     1080.333      559.456        0.856        0.179      116.177       23.403        0.041      334.934        5.234      859.471
11/27/2013  20:17:00      -94.293      -63.862        0.322       47.489       33.433       25.611     2255.250     1117.748      655.905        0.850        0.201      113.884       17.498        0.024      334.981        5.312      859.463
11/27/2013  20:18:00      -93.407      -63.355        4.475       46.424       29.254       24.005     2155.187      855.825      576.225        0.817        0.179      112.866       25.255        0.050      334.993        5.334      859.464
11/27/2013  20:19:00      -66.425      -44.780        7.228       46.840       35.349       25.364     2193.955     1249.561      643.316        0.528        0.204       80.110       22.829        0.081      334.989        5.326      859.454
11/27/2013  20:20:00     -107.126      -58.497        0.783       50.193       31.145       24.624     2519.387      969.985      606.328        0.950        0.205      122.057       27.189        0.050      335.003        5.349      859.449
11/27/2013  20:21:00      -68.561      -45.310        3.378       53.553       27.913       24.937     2867.939      779.117      621.866        0.552        0.213       82.180       18.426        0.050      334.967        5.289      859.446
11/27/2013  20:22:00     -140.370      -65.031       -6.524       28.988       34.663       19.411      840.287     1201.512      376.801        1.320        0.121      154.703       17.305        0.013      334.989        5.326      859.445
11/27/2013  20:23:00     -172.452      -44.117       -7.504       40.796       38.528       24.162     1664.297     1484.419      583.783        1.774        0.187      178.006       20.930        0.014      335.004        5.350      859.446
11/27/2013  20:24:00     -166.355      -69.885       -0.623       62.541       29.298       27.403     3911.322      858.370      750.922        1.904        0.276      180.438       32.614        0.033      334.932        5.231      859.444
11/27/2013  20:25:00     -150.194      -64.881       -0.225       55.401       34.819       29.689     3069.249     1212.371      881.443        1.596        0.258      163.609       30.773        0.035      334.873        5.131      859.444
11/27/2013  20:26:00     -158.176      -70.646       -7.971       38.052       35.511       22.740     1447.976     1261.056      517.112        1.665        0.161      173.235       19.603        0.013      334.901        5.180      859.452
11/27/2013  20:27:00     -122.328      -44.495        1.082       33.878       30.935       23.021     1147.746      956.985      529.948        0.979        0.132      130.168       19.078        0.021      334.888        5.158      859.450
11/27/2013  20:28:00     -146.797      -46.119      -10.039       21.576       26.273       22.835      465.520      690.295      521.432        1.273        0.084      153.871       18.238        0.014      334.866        5.120      859.446
11/27/2013  20:29:00     -126.420      -28.607      -13.800       24.211       26.206       15.516      586.178      686.774      240.759        0.925        0.076      129.616       10.236        0.006      334.756        4.939      859.432
11/27/2013  20:30:00     -113.134       -4.573       -1.113       44.684       31.041       24.453     1996.670      963.563      597.957        0.819        0.178      113.227       26.280        0.054      334.689        4.826      859.433
11/27/2013  20:31:00      -77.038      -11.422       -2.947       46.759       30.824       18.782     2186.390      950.138      352.751        0.478        0.174       77.880       20.312        0.068      334.649        4.761      859.425
11/27/2013  20:32:00      -91.346       -2.648       -1.018       45.662       34.353       24.884     2085.050     1180.119      619.224        0.612        0.194       91.384       26.492        0.084      334.703        4.850      859.422
11/27/2013  20:33:00     -108.830       22.894       -6.892       48.610       32.809       22.883     2362.958     1076.435      523.611        0.819        0.198      111.212       20.879        0.035      334.789        4.993      859.407
11/27/2013  20:34:00     -112.847        2.446      -13.980       52.214       37.330       21.853     2726.304     1393.557      477.560        0.877        0.230      112.873       18.315        0.026      334.751        4.931      859.395
11/27/2013  20:35:00      -91.653       -0.749       -8.214       47.631       30.238       21.674     2268.722      914.339      469.764        0.606        0.183       91.656       20.702        0.051      334.648        4.760      859.391
11/27/2013  20:36:00      -78.469       11.469       -8.849       48.699       29.031       22.314     2371.556      842.781      497.910        0.504        0.186       79.303       20.263        0.065      334.693        4.833      859.407
11/27/2013  20:37:00      -78.696       -5.808      -10.982       46.588       37.914       22.798     2170.421     1437.489      519.767        0.524        0.206       78.910       21.919        0.077      334.666        4.789      859.417
11/27/2013  20:38:00      -48.815      -36.584        4.511       32.644       31.062       17.294     1065.619      964.848      299.087        0.304        0.116       61.003       13.415        0.048      334.628        4.726      859.438
11/27/2013  20:39:00      -23.234      -24.984        5.935       40.435       22.740       18.257     1634.959      517.095      333.336        0.184        0.124       34.118       18.653        0.299      334.721        4.881      859.458
11/27/2013  20:40:00      -49.926      -12.208        4.006       33.344       33.791       21.322     1111.839     1141.837      454.648        0.268        0.135       51.397       17.184        0.112      334.610        4.695      859.474
11/27/2013  20:41:00      -65.178      -19.384        1.384       32.721       29.535       19.144     1070.640      872.305      366.499        0.347        0.115       68.000       16.749        0.061      334.590        4.662      859.495
11/27/2013  20:42:00      -92.775      -12.704       -9.154       40.892       38.895       19.248     1672.115     1512.787      370.502        0.620        0.178       93.641       17.491        0.035      334.613        4.702      859.496
11/27/2013  20:43:00     -115.845       -3.362       -3.779       53.120       41.957       31.174     2821.726     1760.384      971.827        0.950        0.278      115.894       29.703        0.066      334.562        4.617      859.508
11/27/2013  20:44:00     -137.928       10.924      -11.058       60.544       38.527       30.441     3665.554     1484.316      926.630        1.267        0.304      138.359       34.751        0.063      334.586        4.655      859.513
11/27/2013  20:45:00     -149.186       21.304       -6.356       41.254       33.926       22.904     1701.909     1150.981      524.607        1.306        0.169      150.699       20.806        0.019      334.655        4.771      859.532
11/27/2013  20:46:00     -175.992       40.190      -16.286       36.442       31.227       25.028     1328.036      975.153      626.383        1.789        0.146      180.523       14.814        0.007      334.682        4.814      859.545
11/27/2013  20:47:00     -144.753       30.338      -12.089       44.399       32.486       17.959     1971.259     1055.354      322.540        1.268        0.167      147.898       13.172        0.008      334.706        4.855      859.562
11/27/2013  20:48:00     -146.759       30.226      -15.541       34.816       31.225       19.117     1212.151      974.984      365.461        1.262        0.128      149.839       13.324        0.008      334.769        4.960      859.565
11/27/2013  20:49:00     -135.474       28.439      -13.669       46.204       34.744       23.682     2134.833     1207.135      560.849        1.163        0.195      138.427       17.920        0.017      334.771        4.963      859.564
11/27/2013  20:50:00     -110.968       39.506       -6.794       49.342       42.726       26.087     2434.608     1825.478      680.538        0.943        0.247      117.790       16.921        0.021      334.766        4.956      859.571
11/27/2013  20:51:00     -108.161       11.747      -12.747       36.368       35.022       22.891     1322.605     1226.561      523.998        0.754        0.154      108.797       22.274        0.042      334.823        5.050      859.561
11/27/2013  20:52:00      -82.900       -4.728       -1.004       53.956       30.821       27.452     2911.265      949.946      753.593        0.575        0.231       83.034       23.242        0.078      334.791        4.995      859.554
11/27/2013  20:53:00      -96.881      -13.640      -10.013       36.847       43.640       23.535     1357.729     1904.407      553.887        0.674        0.191       97.837       15.762        0.026      334.729        4.894      859.547
11/27/2013  20:54:00      -74.238       -1.042       -7.010       39.974       29.139       25.735     1597.952      849.106      662.299        0.433        0.155       74.245       23.914        0.104      334.705        4.854      859.545
11/27/2013  20:55:00      -80.820      -11.299       -0.540       53.421       34.931       24.862     2853.815     1220.191      618.103        0.567        0.235       81.606       26.733        0.107      334.647        4.757      859.553
11/27/2013  20:56:00      -57.786      -12.131        2.856       35.672       32.995       19.468     1272.493     1088.671      379.012        0.312        0.137       59.046       17.046        0.083      334.563        4.617      859.547
11/27/2013  20:57:00      -98.056      -21.122        0.586       37.138       34.184       19.265     1379.212     1168.541      371.122        0.649        0.146      100.305       14.676        0.021      334.607        4.689      859.550
11/27/2013  20:58:00     -113.654      -29.643       -7.158       41.770       37.360       25.471     1744.707     1395.762      648.783        0.882        0.189      117.456       25.638        0.048      334.573        4.634      859.544
11/27/2013  20:59:00      -90.235      -15.678        4.342       44.012       33.476       20.927     1937.068     1120.625      437.926        0.595        0.175       91.587       20.181        0.049      334.554        4.604      859.541
11/27/2013  21:00:00      -54.619      -15.271        3.309       44.683       21.181       17.986     1996.548      448.638      323.493        0.300        0.138       56.714       23.062        0.165      334.558        4.610      859.550
11/27/2013  21:01:00      -81.787      -37.676        2.994       28.350       32.288       18.683      803.736     1042.490      349.037        0.516        0.110       90.048       15.876        0.031      334.605        4.688      859.545
11/27/2013  21:02:00      -83.226       -7.475        0.238       33.787       29.514       19.983     1141.574      871.080      399.335        0.470        0.121       83.561       19.468        0.054      334.541        4.581      859.553
11/27/2013  21:03:00      -68.998      -13.459        5.060       39.849       28.080       21.099     1587.958      788.513      445.154        0.389        0.141       70.299       22.380        0.101      334.540        4.579      859.554
11/27/2013  21:04:00      -88.301      -15.313        0.860       33.729       39.458       17.446     1137.651     1556.923      304.370        0.552        0.150       89.619       16.066        0.032      334.554        4.602      859.540
11/27/2013  21:05:00     -101.734      -39.447       -6.265       21.027       24.661       13.173      442.123      608.164      173.535        0.658        0.061      109.114        8.622        0.006      334.579        4.644      859.536
11/27/2013  21:06:00      -75.746      -39.542      -10.320       24.436       27.012       15.533      597.125      729.651      241.274        0.449        0.078       85.446        6.128        0.005      334.548        4.592      859.530
11/27/2013  21:07:00      -67.926      -31.359      -11.129       30.377       23.083       17.473      922.755      532.812      305.319        0.374        0.088       74.815        7.199        0.009      334.573        4.635      859.539
11/27/2013  21:08:00     -105.888      -30.718      -10.449       24.448       35.477       18.709      597.681     1258.639      350.032        0.724        0.110      110.253       13.121        0.014      334.452        4.433      859.547
11/27/2013  21:09:00      -67.715      -14.904       -6.246       24.689       23.334       14.649      609.533      544.459      214.600        0.311        0.068       69.335        6.864        0.010      334.506        4.524      859.548
11/27/2013  21:10:00      -82.170      -14.525       -6.406       16.434       19.339       12.361      270.076      374.004      152.796        0.390        0.040       83.444        4.660        0.003      334.507        4.525      859.563
11/27/2013  21:11:00      -55.452      -39.564       -4.286       39.228       26.253       16.468     1538.857      689.230      271.198        0.358        0.125       68.119       14.121        0.043      334.410        4.363      859.575
11/27/2013  21:12:00      -96.001      -18.795      -15.777       30.493       23.783       16.870      929.849      565.614      284.603        0.580        0.089       97.823        5.184        0.003      334.363        4.288      859.565
11/27/2013  21:13:00     -102.486      -32.542      -15.563       23.815       28.674       18.285      567.171      822.208      334.352        0.676        0.086      107.528       15.436        0.021      334.321        4.217      859.550
11/27/2013  21:14:00     -126.289      -28.129      -16.054       33.058       27.786       16.515     1092.851      772.040      272.754        0.957        0.107      129.384        9.622        0.006      334.280        4.149      859.552
11/27/2013  21:15:00      -84.236      -29.279       -9.630       34.522       22.132       22.661     1191.784      489.829      513.538        0.512        0.110       89.179       17.961        0.041      334.341        4.251      859.560
11/27/2013  21:16:00     -136.424      -42.543      -10.985       33.427       29.072       18.527     1117.333      845.209      343.249        1.142        0.115      142.904       12.402        0.008      334.301        4.183      859.568
11/27/2013  21:17:00     -111.816      -50.522      -14.823       22.653       23.398       20.655      513.167      547.467      426.619        0.838        0.074      122.700       16.101        0.017      334.293        4.171      859.582
11/27/2013  21:18:00      -65.230      -16.953       -5.835       40.793       24.020       16.791     1664.106      576.956      281.939        0.355        0.126       67.397        8.215        0.015      334.341        4.251      859.595
11/27/2013  21:19:00      -64.757      -27.964      -12.701       34.251       27.983       14.411     1173.161      783.050      207.672        0.365        0.108       70.537       14.330        0.041      334.407        4.361      859.603
11/27/2013  21:20:00      -77.986      -23.235       -7.961       42.461       23.289       16.183     1802.937      542.375      261.877        0.465        0.130       81.373       18.029        0.049      334.374        4.306      859.607
11/27/2013  21:21:00     -113.718      -57.740      -10.330       27.188       17.014       13.203      739.188      289.463      174.314        0.879        0.060      127.537       11.510        0.008      334.371        4.301      859.615
11/27/2013  21:22:00     -119.726      -52.778       -5.005       23.921       20.095       16.633      572.200      403.798      276.672        0.920        0.063      130.843       12.143        0.009      334.327        4.227      859.611
11/27/2013  21:23:00     -115.094      -62.477       -1.148       32.178       23.762       17.582     1035.415      564.638      309.110        0.953        0.095      130.958       16.037        0.015      334.354        4.272      859.605
11/27/2013  21:24:00     -118.346      -49.977       -2.438       38.444       30.101       21.830     1477.955      906.048      476.566        0.968        0.143      128.466       19.044        0.022      334.357        4.276      859.604
11/27/2013  21:25:00     -116.526      -16.157       -1.707       40.442       30.828       21.803     1635.563      950.369      475.352        0.845        0.153      117.641       21.949        0.035      334.344        4.256      859.600
11/27/2013  21:26:00      -80.748      -37.449        1.215       32.024       25.328       16.004     1025.535      641.502      256.122        0.492        0.096       89.010       10.647        0.014      334.355        4.273      859.594
11/27/2013  21:27:00     -102.399      -39.184       -1.284       22.896       18.042       11.982      524.223      325.513      143.575        0.651        0.050      109.640        9.460        0.007      334.438        4.411      859.591
11/27/2013  21:28:00      -89.113      -36.488       -2.222       31.576       18.146       14.315      997.019      329.294      204.920        0.540        0.077       96.294       16.354        0.029      334.396        4.342      859.599
11/27/2013  21:29:00      -44.601      -40.145        2.883       37.163       17.649       16.951     1381.119      311.495      287.342        0.279        0.099       60.007       17.791        0.088      334.335        4.241      859.598
11/27/2013  21:30:00      -43.687      -37.234        3.817       28.618       23.230       17.911      818.965      539.647      320.801        0.249        0.084       57.402       10.433        0.033      334.350        4.266      859.609
11/27/2013  21:31:00      -40.212      -42.268        5.543       30.527       22.750       18.946      931.913      517.582      358.963        0.262        0.090       58.340       20.784        0.127      334.444        4.422      859.633
11/27/2013  21:32:00      -39.313      -40.082        0.143       31.948       27.015       17.981     1020.649      729.823      323.314        0.261        0.104       56.143       14.949        0.071      334.463        4.453      859.635
11/27/2013  21:33:00      -89.679      -60.150        1.026       27.529       17.234       19.696      757.841      297.018      387.948        0.655        0.072      107.983       12.155        0.013      334.432        4.401      859.623
11/27/2013  21:34:00      -85.013      -54.095       -9.057       21.384       16.631       11.865      457.264      276.604      140.789        0.555        0.044      100.764        8.993        0.008      334.399        4.347      859.616
11/27/2013  21:35:00      -73.310      -36.826       -5.297       26.079       15.875       14.554      680.135      252.015      211.816        0.395        0.057       82.040       10.023        0.015      334.327        4.228      859.619
11/27/2013  21:36:00      -82.563      -41.247       -9.944       12.968       14.861        8.879      168.161      220.840       78.838        0.454        0.023       92.293        6.459        0.005      334.334        4.237      859.618
11/27/2013  21:37:00      -77.693      -41.268       -8.171       12.523       10.513        8.027      156.834      110.520       64.427        0.407        0.017       87.972        4.400        0.003      334.378        4.313      859.620
11/27/2013  21:38:00      -83.104      -45.139       -6.986       15.362       15.036       10.917      235.980      226.067      119.179        0.479        0.029       94.572        9.146        0.009      334.352        4.268      859.626
11/27/2013  21:39:00      -83.522      -47.097       -4.853       13.587       14.663        8.665      184.615      214.999       75.089        0.485        0.024       95.886        6.887        0.005      334.315        4.207      859.640
11/27/2013  21:40:00      -58.170      -39.509       -2.677       33.442       18.316       15.079     1118.373      335.481      227.365        0.332        0.084       70.319       18.531        0.069      334.288        4.163      859.643
11/27/2013  21:41:00      -39.569      -29.882        0.590       23.831       18.448       12.660      567.923      340.330      160.271        0.176        0.053       49.584       12.558        0.064      334.234        4.072      859.649
11/27/2013  21:42:00      -64.031      -31.064       -4.849       14.762       20.393        9.185      217.905      415.862       84.358        0.290        0.036       71.168        5.807        0.007      334.247        4.094      859.659
11/27/2013  21:43:00      -50.873      -34.476        0.456       20.696       18.215       14.212      428.305      331.801      201.984        0.237        0.048       61.455       13.374        0.047      334.222        4.053      859.667
11/27/2013  21:44:00      -74.330      -26.531      -10.833       12.045       14.603        9.854      145.070      213.247       97.108        0.340        0.023       78.923        8.279        0.011      334.267        4.128      859.676
11/27/2013  21:45:00      -73.818      -34.791       -2.671       18.809       13.023       10.326      353.793      169.589      106.628        0.365        0.032       81.606        9.762        0.014      334.288        4.162      859.685
11/27/2013  21:46:00      -68.078      -37.212       -0.964       42.352       15.306       16.399     1793.657      234.277      268.917        0.416        0.115       77.584       20.515        0.070      334.256        4.110      859.695
11/27/2013  21:47:00      -50.467      -39.142        4.183       45.454       29.461       17.281     2066.086      867.944      298.644        0.366        0.162       63.867       23.658        0.137      334.176        3.975      859.701
11/27/2013  21:48:00      -73.477      -55.978        3.049       48.623       36.521       20.123     2364.216     1333.754      404.940        0.632        0.205       92.371       21.363        0.053      334.132        3.903      859.710
11/27/2013  21:49:00      -86.653      -72.131        6.972       39.369       36.238       19.500     1549.902     1313.167      380.235        0.800        0.162      112.746       21.494        0.036      334.240        4.083      859.734
11/27/2013  21:50:00      -81.312      -59.033       10.363       39.936       35.550       29.854     1594.856     1263.831      891.236        0.698        0.187      100.482       22.556        0.050      334.246        4.092      859.756
11/27/2013  21:51:00      -99.288      -68.162        1.780       56.785       32.126       25.070     3224.491     1032.062      628.498        0.970        0.244      120.433       25.108        0.043      334.243        4.086      859.770
11/27/2013  21:52:00     -100.304      -89.152       -0.440       41.516       37.084       27.005     1723.595     1375.211      729.297        1.092        0.191      134.198       25.291        0.036      334.155        3.939      859.782
11/27/2013  21:53:00     -107.787      -48.758        7.999       44.514       35.943       25.985     1981.529     1291.879      675.218        0.900        0.197      118.302       26.656        0.051      334.146        3.925      859.790
11/27/2013  21:54:00      -97.081      -56.366       -1.294       39.938       20.379       20.458     1595.053      415.301      418.512        0.752        0.121      112.258       20.507        0.033      334.166        3.960      859.785
11/27/2013  21:55:00      -90.932      -43.198       -3.558       28.721       14.849       14.213      824.921      220.491      202.008        0.570        0.062      100.672       15.101        0.022      334.194        4.005      859.790
11/27/2013  21:56:00      -96.725      -37.882       -4.737       23.430       20.220       12.486      548.952      408.856      155.889        0.596        0.056      103.879       10.614        0.010      334.217        4.045      859.807
11/27/2013  21:57:00     -107.068      -29.858       -8.034       11.501       18.844       10.123      132.284      355.092      102.473        0.650        0.029      111.153        2.887        0.001      334.158        3.947      859.836
11/27/2013  21:58:00      -80.989      -45.661       -8.024       15.330       19.932        8.755      235.024      397.271       76.642        0.471        0.035       92.973        3.075        0.001      334.161        3.950      859.847
11/27/2013  21:59:00      -72.670      -32.010       -9.010       15.970       18.483       13.558      255.051      341.607      183.825        0.358        0.039       79.407        9.005        0.013      334.140        3.916      859.856
11/27/2013  22:00:00      -79.172      -23.454       -5.146       13.508       12.852        9.958      182.461      165.172       99.158        0.365        0.022       82.573        7.096        0.007      334.118        3.880      859.849
11/27/2013  22:01:00      -85.830      -30.494      -13.360       10.468       10.848        9.091      109.587      117.679       82.654        0.439        0.015       91.086        3.813        0.002      334.100        3.849      859.851
11/27/2013  22:02:00      -74.224      -38.004       -5.790       17.383       17.521       11.540      302.160      307.000      133.170        0.386        0.037       83.388        8.414        0.010      334.065        3.791      859.850
11/27/2013  22:03:00      -67.272      -15.454       -4.843       29.344       21.360       13.482      861.056      456.237      181.768        0.314        0.075       69.024       14.777        0.046      334.090        3.834      859.850
11/27/2013  22:04:00      -96.483        3.221      -11.511       48.703       24.405       20.126     2371.995      595.606      405.052        0.641        0.169       96.536       21.714        0.051      334.058        3.780      859.851
11/27/2013  22:05:00      -96.965       -4.918       -5.800       26.593       25.811       17.606      707.199      666.223      309.956        0.557        0.084       97.090       14.316        0.022      334.075        3.807      859.862
11/27/2013  22:06:00      -45.314      -16.164        1.126       28.079       34.189       18.617      788.420     1168.888      346.607        0.231        0.115       48.111       14.164        0.087      334.074        3.806      859.862
11/27/2013  22:07:00      -40.926        2.569      -10.004       21.742       17.694       13.172      472.699      313.078      173.506        0.137        0.048       41.006       12.464        0.092      334.079        3.815      859.858
11/27/2013  22:08:00      -55.138        3.800      -11.714       18.322       12.119       12.216      335.713      146.870      149.240        0.191        0.032       55.268        7.276        0.017      334.139        3.915      859.859
11/27/2013  22:09:00      -43.233        1.263       -4.447       17.040       10.321        7.575      290.354      106.527       57.380        0.117        0.023       43.251        8.304        0.037      334.157        3.945      859.866
11/27/2013  22:10:00      -33.373      -13.250       -9.161        7.555       11.557        7.055       57.085      133.561       49.770        0.081        0.012       35.907        4.836        0.018      334.162        3.952      859.872
11/27/2013  22:11:00      -32.928      -19.264       -4.958       14.307       11.379        9.310      204.699      129.472       86.683        0.095        0.021       38.149        4.837        0.016      334.211        4.035      859.869
11/27/2013  22:12:00      -38.034      -22.384       -8.121       17.942       11.453        8.789      321.913      131.171       77.243        0.127        0.027       44.132        4.441        0.010      334.144        3.923      859.868
11/27/2013  22:13:00      -60.172      -19.438       -5.762        9.685       10.528        7.828       93.808      110.848       61.277        0.215        0.013       63.234        5.690        0.008      333.963        3.624      859.882
11/27/2013  22:14:00      -46.477      -25.320       -7.892       12.645        9.201        8.423      159.897       84.662       70.950        0.159        0.016       52.927        5.751        0.012      334.018        3.714      859.882
11/27/2013  22:15:00      -25.653      -18.911       -6.779       11.643       10.708        9.764      135.552      114.653       95.344        0.070        0.017       31.870        4.048        0.016      334.013        3.707      859.873
11/27/2013  22:16:00      -22.421      -19.616       -0.629       10.219       11.268        7.963      104.426      126.960       63.413        0.059        0.015       29.790        6.759        0.051      334.085        3.826      859.866
11/27/2013  22:17:00      -23.014      -15.623       -5.571        8.751       10.765        8.827       76.578      115.884       77.912        0.054        0.014       27.816        6.524        0.055      334.144        3.922      859.867
11/27/2013  22:18:00      -15.862      -26.642        5.919       17.384       12.896       18.463      302.200      166.310      340.886        0.090        0.040       31.006       13.590        0.192      334.256        4.108      859.868
11/27/2013  22:19:00      -10.811      -15.661        1.960        7.634        7.480        5.782       58.277       55.946       33.428        0.026        0.007       19.030        3.139        0.027      334.223        4.055      859.865
11/27/2013  22:20:00      -12.945      -25.573       -2.903       10.957        7.960        5.994      120.048       63.362       35.932        0.052        0.011       28.663        1.458        0.003      334.332        4.236      859.856
11/27/2013  22:21:00      -25.057      -12.686        4.742       13.989        9.988        8.456      195.683       99.769       71.502        0.059        0.018       28.085        3.985        0.020      334.253        4.105      859.856
11/27/2013  22:22:00       -7.450       -5.691        6.957       11.048        8.812        9.492      122.063       77.643       90.089        0.021        0.014        9.375        4.745        0.256      334.374        4.305      859.861
11/27/2013  22:23:00      -22.065      -15.580       -1.358       10.542        7.917        8.400      111.137       62.677       70.553        0.049        0.012       27.011        5.225        0.037      334.357        4.276      859.869
11/27/2013  22:24:00      -14.449      -11.063       -0.940       21.183       12.427        6.543      448.723      154.428       42.805        0.049        0.032       18.198        4.856        0.071      334.417        4.377      859.871
11/27/2013  22:25:00      -48.254      -17.834       -4.213       11.311       14.803       10.643      127.944      219.130      113.282        0.156        0.023       51.444        6.504        0.016      334.271        4.134      859.873
11/27/2013  22:26:00      -72.655       -7.663      -16.495       11.969       13.008        8.510      143.252      169.204       72.417        0.300        0.019       73.058        7.044        0.009      334.120        3.883      859.879
11/27/2013  22:27:00      -66.580        7.138      -11.159       15.681        8.365        9.272      245.891       69.979       85.970        0.251        0.020       66.961        3.124        0.002      334.074        3.806      859.880
11/27/2013  22:28:00      -62.120        7.219      -18.424       25.761       15.219       11.855      663.636      231.617      140.544        0.264        0.052       62.538       10.819        0.030      334.133        3.905      859.886
11/27/2013  22:29:00      -68.836      -35.448      -16.351       17.477       17.619       12.038      305.461      310.446      144.919        0.351        0.038       77.427        7.155        0.009      333.967        3.630      859.882
11/27/2013  22:30:00      -65.250      -32.178      -13.839       25.345       21.524       14.098      642.373      463.294      198.767        0.339        0.065       72.753       12.048        0.027      333.909        3.534      859.875
11/27/2013  22:31:00      -85.925      -33.947       -7.707       16.499       14.886       11.473      272.218      221.579      131.639        0.461        0.031       92.388        3.690        0.002      333.879        3.484      859.870
11/27/2013  22:32:00      -96.996      -27.647      -13.976        9.052       10.494        6.792       81.945      110.116       46.129        0.530        0.012      100.859        3.615        0.001      333.899        3.517      859.860
11/27/2013  22:33:00      -89.512       -5.561      -11.838       14.252        9.526        6.708      203.123       90.749       44.991        0.426        0.017       89.685        2.068        0.001      333.945        3.594      859.853
11/27/2013  22:34:00      -77.759       -3.630       -9.193       12.286       11.174        8.934      150.943      124.856       79.820        0.325        0.018       77.844        5.544        0.005      333.974        3.642      859.860
11/27/2013  22:35:00      -82.056        2.273      -10.561       19.052       10.778        9.666      362.994      116.158       93.436        0.371        0.029       82.087        8.894        0.012      333.995        3.675      859.871
11/27/2013  22:36:00      -59.431       -4.370      -10.305       18.027       10.975        8.267      324.971      120.443       68.345        0.209        0.026       59.591        7.575        0.016      334.000        3.684      859.862
11/27/2013  22:37:00      -42.056        1.535      -12.034       14.379       11.370        6.983      206.754      129.272       48.758        0.115        0.019       42.084        6.415        0.023      334.104        3.856      859.846
11/27/2013  22:38:00      -28.372       -3.405      -12.296        6.130        3.861        4.684       37.572       14.904       21.941        0.052        0.004       28.576        2.345        0.007      334.104        3.855      859.832
11/27/2013  22:39:00      -33.141       -8.652      -12.584       11.730       17.928        7.949      137.587      321.410       63.191        0.093        0.026       34.252        5.466        0.025      334.159        3.948      859.835
11/27/2013  22:40:00      -36.497      -21.969       -6.187       10.969        8.540       10.416      120.317       72.929      108.493        0.108        0.015       42.599        5.443        0.016      334.046        3.760      859.841
11/27/2013  22:41:00      -50.017      -16.192      -10.768        6.657        7.818        5.577       44.315       61.125       31.102        0.151        0.007       52.572        3.817        0.005      334.049        3.765      859.841
11/27/2013  22:42:00      -62.050       -5.282      -10.527       11.573       12.303        6.231      133.944      151.373       38.822        0.216        0.016       62.274        2.576        0.002      333.987        3.663      859.840
11/27/2013  22:43:00      -59.850      -12.955       -7.816       17.022       15.230        9.042      289.753      231.950       81.764        0.221        0.030       61.236        8.370        0.019      333.894        3.510      859.832
11/27/2013  22:44:00      -80.766       -3.511       -8.465       15.668       10.166       10.456      245.474      103.357      109.335        0.353        0.023       80.842        9.498        0.014      333.893        3.508      859.826
11/27/2013  22:45:00      -79.229       -9.269      -10.037       12.518       12.247        9.318      156.704      149.980       86.825        0.343        0.020       79.769        8.874        0.012      333.898        3.516      859.837
11/27/2013  22:46:00      -84.140      -24.738      -10.577        9.133       12.921        8.091       83.416      166.962       65.460        0.406        0.016       87.701        3.436        0.002      333.861        3.456      859.851
11/27/2013  22:47:00      -93.110      -21.098       -7.574       15.755       12.126        8.520      248.204      147.036       72.596        0.482        0.023       95.471        7.419        0.006      333.846        3.428      859.866
11/27/2013  22:48:00      -88.832      -37.983      -14.890        8.045        9.668        6.644       64.719       93.477       44.149        0.488        0.010       96.611        4.162        0.002      333.767        3.300      859.864
11/27/2013  22:49:00     -110.367      -40.967      -12.859       11.298        9.901        7.018      127.646       98.032       49.255        0.715        0.014      117.725        5.134        0.002      333.738        3.251      859.866
11/27/2013  22:50:00     -101.153      -37.034       -8.644       14.061       12.305       10.523      197.708      151.405      110.733        0.607        0.023      107.719        6.146        0.003      333.789        3.333      859.873
11/27/2013  22:51:00      -95.053      -47.746       -9.410        8.760        6.908        6.260       76.731       47.718       39.190        0.578        0.008      106.371        2.230        0.000      333.758        3.282      859.874
11/27/2013  22:52:00      -87.930      -46.030       -2.573        9.736       11.418        6.483       94.790      130.362       42.028        0.506        0.013       99.249        2.786        0.001      333.759        3.284      859.876
11/27/2013  22:53:00      -84.733      -49.868       -2.805       11.890       10.402        8.206      141.365      108.197       67.331        0.500        0.016       98.318        4.446        0.002      333.720        3.220      859.874
11/27/2013  22:54:00      -86.990      -47.894       -6.435       14.052       11.140        8.713      197.445      124.104       75.915        0.515        0.020       99.303        7.189        0.005      333.714        3.209      859.867
11/27/2013  22:55:00      -99.788      -36.494       -5.412       10.855       13.229        8.111      117.825      175.006       65.783        0.584        0.018      106.252        4.935        0.002      333.658        3.115      859.866
11/27/2013  22:56:00     -112.262      -57.437       -2.703       16.151       15.145       11.874      260.871      229.383      140.993        0.827        0.032      126.102        7.618        0.004      333.687        3.165      859.858
11/27/2013  22:57:00     -108.868      -36.669       -5.440       14.532       16.218       12.158      211.192      263.025      147.825        0.692        0.031      114.877        9.085        0.006      333.652        3.105      859.852
11/27/2013  22:58:00      -92.571      -23.033       -6.709       26.771       20.314       14.966      716.693      412.667      223.975        0.525        0.068       95.393       10.469        0.012      333.595        3.012      859.845
11/27/2013  22:59:00     -125.803      -17.398       -8.626       21.863       17.667       13.063      477.987      312.122      170.653        0.858        0.048      127.000       11.901        0.009      333.534        2.911      859.845
11/27/2013  23:00:00     -123.457      -28.921      -11.312       16.552       18.054       13.293      273.958      325.929      176.716        0.849        0.039      126.800       11.420        0.008      333.458        2.785      859.858
11/27/2013  23:01:00      -81.222      -56.906       -2.759       27.238       23.883       14.590      741.911      570.393      212.882        0.568        0.076       99.173       14.194        0.020      333.378        2.653      859.847
11/27/2013  23:02:00      -54.520      -15.857        1.874       32.176       40.227       22.082     1035.305     1618.199      487.623        0.318        0.157       56.779       16.382        0.083      333.466        2.799      859.836
11/27/2013  23:03:00      -76.487       11.730       -3.537       41.770       41.973       23.422     1744.740     1761.732      548.591        0.503        0.203       77.381       21.099        0.074      333.506        2.863      859.826
11/27/2013  23:04:00      -90.947       -6.313       -8.382       37.736       18.844       17.079     1423.997      355.108      291.680        0.523        0.104       91.166       18.175        0.040      333.450        2.773      859.826
11/27/2013  23:05:00      -91.528      -14.682       -7.256       16.705       19.719       12.341      279.042      388.853      152.302        0.473        0.041       92.698       10.434        0.013      333.401        2.692      859.831
11/27/2013  23:06:00      -52.655      -18.365        1.365       22.706       17.989       13.540      515.544      323.613      183.330        0.207        0.051       55.766       12.995        0.054      333.415        2.715      859.838
11/27/2013  23:07:00      -58.378      -20.461       -5.808       17.950       18.951       14.293      322.212      359.142      204.281        0.237        0.044       61.860       10.233        0.027      333.415        2.716      859.844
11/27/2013  23:08:00      -64.623      -10.920      -11.253       18.397       17.119       13.094      338.465      293.058      171.466        0.261        0.040       65.539        9.109        0.019      333.440        2.755      859.845
11/27/2013  23:09:00      -66.387      -15.957       -7.939       22.622       13.051       12.920      511.745      170.317      166.924        0.279        0.042       68.278       13.968        0.042      333.446        2.765      859.849
11/27/2013  23:10:00      -64.311      -38.552       -9.478       14.879        9.776        9.443      221.373       95.576       89.161        0.306        0.020       74.981        8.485        0.013      333.478        2.817      859.859
11/27/2013  23:11:00      -55.656      -36.291       -3.352       22.951       17.108       12.248      526.770      292.669      150.006        0.270        0.048       66.443       13.231        0.040      333.498        2.851      859.851
11/27/2013  23:12:00      -58.849      -34.589      -10.644       24.428       13.746       12.397      596.750      188.958      153.694        0.286        0.047       68.261       11.251        0.027      333.461        2.789      859.833
11/27/2013  23:13:00      -94.320      -29.254      -16.163        8.485       11.364        7.691       71.996      129.139       59.145        0.514        0.013       98.752        5.691        0.003      333.424        2.729      859.814
11/27/2013  23:14:00      -99.339      -25.770      -15.080       12.038       11.769        8.097      144.913      138.512       65.562        0.555        0.017      102.627        4.903        0.002      333.424        2.729      859.800
11/27/2013  23:15:00     -112.142      -27.545      -13.691       16.015       14.692       11.774      256.471      215.856      138.615        0.707        0.031      115.475        8.339        0.005      333.438        2.752      859.795
11/27/2013  23:16:00     -102.426      -40.455      -15.581       14.324       12.279        8.673      205.189      150.773       75.226        0.640        0.022      110.126        5.616        0.003      333.393        2.679      859.787
11/27/2013  23:17:00      -56.486      -43.508       -8.660       22.039       14.927       12.995      485.721      222.824      168.859        0.302        0.044       71.299        7.489        0.011      333.439        2.753      859.788
11/27/2013  23:18:00      -72.564      -30.112       -8.897       19.699       11.160        9.489      388.054      124.545       90.037        0.343        0.030       78.564        8.573        0.012      333.432        2.742      859.783
11/27/2013  23:19:00      -76.831      -25.871       -8.176       11.389        8.573        8.270      129.720       73.500       68.388        0.346        0.014       81.070        3.826        0.002      333.420        2.722      859.780
11/27/2013  23:20:00      -77.497      -16.561      -13.813        8.039        6.378        5.294       64.619       40.682       28.024        0.330        0.007       79.247        2.280        0.001      333.445        2.762      859.779
11/27/2013  23:21:00      -71.539      -25.621       -9.584       14.350       12.823        9.101      205.915      164.428       82.823        0.316        0.023       75.988        8.125        0.011      333.501        2.857      859.767
11/27/2013  23:22:00      -77.269      -30.495      -10.714        8.537        7.905        6.288       72.887       62.495       39.536        0.360        0.009       83.069        3.280        0.002      333.528        2.901      859.759
11/27/2013  23:23:00      -91.295      -29.261      -15.571        8.782        9.558        6.880       77.121       91.361       47.333        0.482        0.011       95.869        3.849        0.002      333.543        2.926      859.758
11/27/2013  23:24:00      -85.106      -33.797       -8.547        9.974        9.836        9.452       99.471       96.740       89.334        0.437        0.014       91.571        6.765        0.005      333.537        2.916      859.765
11/27/2013  23:25:00      -99.197      -43.257       -9.072        6.744        7.579        5.923       45.481       57.447       35.078        0.597        0.007      108.219        4.101        0.001      333.578        2.986      859.775
11/27/2013  23:26:00      -87.376      -37.110       -3.884       11.311       13.444        9.398      127.930      180.730       88.329        0.471        0.020       94.930        7.440        0.006      333.583        2.994      859.778
11/27/2013  23:27:00     -110.299      -31.521      -14.796       13.504       11.690        8.034      182.354      136.651       64.540        0.688        0.019      114.715        6.348        0.003      333.581        2.990      859.774
11/27/2013  23:28:00     -119.940      -40.032      -15.159        8.750       10.587        8.336       76.568      112.081       69.482        0.824        0.013      126.444        5.355        0.002      333.596        3.014      859.762
11/27/2013  23:29:00     -123.499      -60.044      -12.772       12.754       19.091       12.155      162.654      364.473      147.738        0.985        0.034      137.322        9.189        0.004      333.578        2.984      859.762
11/27/2013  23:30:00     -126.872      -59.454      -13.276       15.205       15.602        9.743      231.198      243.423       94.917        1.019        0.028      140.112        2.127        0.000      333.485        2.829      859.760
11/27/2013  23:31:00     -125.769      -55.772       -8.504       12.311       15.226       10.281      151.569      231.843      105.693        0.974        0.024      137.580        4.883        0.001      333.482        2.825      859.747
11/27/2013  23:32:00     -110.525      -45.153       -5.914       27.758       15.066       11.557      770.532      226.997      133.570        0.771        0.057      119.393       11.783        0.010      333.435        2.745      859.744
11/27/2013  23:33:00     -114.226      -41.475      -16.085       14.784       20.075       13.882      218.580      403.005      192.708        0.792        0.041      121.523        8.136        0.004      333.470        2.803      859.742
11/27/2013  23:34:00      -87.867      -36.747       -0.983       26.563       19.594       14.728      705.602      383.944      216.906        0.519        0.065       95.241       11.420        0.014      333.399        2.688      859.736
11/27/2013  23:35:00     -102.693      -38.524        1.116       27.863       23.285       15.748      776.321      542.204      247.997        0.680        0.078      109.681       10.555        0.009      333.354        2.615      859.740
11/27/2013  23:36:00     -116.443      -46.454       -3.428       18.175       19.678       13.505      330.338      387.237      182.376        0.831        0.045      125.368        9.631        0.006      333.404        2.697      859.738
11/27/2013  23:37:00     -104.610      -52.949       -6.123       22.311       15.949       15.333      497.787      254.359      235.090        0.739        0.049      117.247       12.100        0.011      333.395        2.681      859.721
11/27/2013  23:38:00      -95.506      -35.153       -4.742       11.983       13.823        9.576      143.593      191.072       91.702        0.540        0.021      101.770        4.131        0.002      333.466        2.799      859.703
11/27/2013  23:39:00      -72.053      -22.736       -2.528       27.661       17.769       12.294      765.113      315.729      151.145        0.347        0.062       75.555       12.892        0.029      333.467        2.799      859.685
11/27/2013  23:40:00      -78.403      -33.869       -1.321       14.080        9.011        8.848      198.246       81.193       78.286        0.383        0.018       85.405        7.117        0.007      333.547        2.933      859.661
11/27/2013  23:41:00      -86.429      -28.557      -13.279        7.604       11.194        8.198       57.814      125.304       67.213        0.436        0.013       91.025        5.276        0.003      333.458        2.784      859.645
11/27/2013  23:42:00      -90.456      -44.518      -12.952       11.730       11.134        7.312      137.602      123.968       53.469        0.532        0.016      100.817        3.713        0.001      333.452        2.774      859.638
11/27/2013  23:43:00     -101.876      -52.430      -15.206        8.735        6.530        5.493       76.305       42.645       30.171        0.675        0.007      114.576        3.561        0.001      333.439        2.754      859.632
11/27/2013  23:44:00     -117.113      -42.410      -13.738        8.531       11.374        7.179       72.773      129.363       51.531        0.798        0.013      124.555        4.463        0.001      333.468        2.799      859.620
11/27/2013  23:45:00     -102.590      -44.561      -10.600       20.042       26.409       11.690      401.664      697.409      136.666        0.693        0.062      111.850       10.935        0.010      333.436        2.749      859.619
11/27/2013  23:46:00     -120.059      -22.333      -11.842       17.910       13.842       13.880      320.763      191.610      192.656        0.788        0.035      122.118        8.893        0.005      333.435        2.748      859.622
11/27/2013  23:47:00     -121.319      -43.153      -15.538       14.741        9.900        9.495      217.297       98.001       90.154        0.861        0.020      128.765        4.230        0.001      333.408        2.702      859.631
11/27/2013  23:48:00      -96.085      -48.279       -7.676       15.788       14.446       13.202      249.253      208.697      174.293        0.613        0.032      107.532        8.225        0.006      333.404        2.695      859.633
11/27/2013  23:49:00      -93.007      -54.974      -10.447       25.174       17.862       19.821      633.717      319.064      392.866        0.656        0.067      108.040       17.824        0.027      333.295        2.516      859.633
11/27/2013  23:50:00      -91.347      -55.891      -11.056       19.940       16.263       14.214      397.591      264.471      202.040        0.623        0.043      107.089       11.151        0.011      333.360        2.623      859.633
11/27/2013  23:51:00      -90.256      -40.205      -12.445       10.118       12.086        8.689      102.364      146.069       75.494        0.512        0.016       98.806        7.338        0.006      333.377        2.652      859.626
11/27/2013  23:52:00     -112.117      -27.186      -13.078       16.965        9.596        9.940      287.815       92.091       98.808        0.698        0.024      115.366        8.027        0.005      333.405        2.696      859.626
11/27/2013  23:53:00     -123.271      -32.333      -13.616       11.705       10.139        7.014      137.014      102.806       49.193        0.836        0.014      127.441        2.948        0.001      333.391        2.675      859.635
11/27/2013  23:54:00     -120.159      -28.097      -12.409       10.293       11.829        7.898      105.954      139.931       62.378        0.784        0.015      123.401        4.041        0.001      333.414        2.712      859.640
11/27/2013  23:55:00     -118.804      -43.909      -10.566       10.291       10.960        7.442      105.900      120.122       55.377        0.822        0.014      126.659        4.110        0.001      333.409        2.704      859.642
11/27/2013  23:56:00     -135.823      -41.270      -10.231       12.091        9.297        9.362      146.184       86.430       87.656        1.029        0.016      141.954        5.275        0.001      333.367        2.635      859.642
11/27/2013  23:57:00     -104.376      -40.255        0.989       29.908       21.037       13.545      894.514      442.546      183.479        0.702        0.076      111.870       15.187        0.018      333.332        2.579      859.653
11/27/2013  23:58:00     -108.166      -47.621       -1.834       26.416       19.899       14.998      697.797      395.971      224.942        0.764        0.066      118.184       13.113        0.012      333.342        2.595      859.671
11/27/2013  23:59:00      -94.487      -56.617       -3.812       12.749       10.657        9.161      162.536      113.575       83.917        0.625        0.018      110.151        6.334        0.003      333.380        2.657      859.682
